[[{"header":{"parameterUnit":"m.s-1","parameterCategory":1,"la1":30.6,"la2":29.2853,"lo1":-89.7004,"lo2":-87.6739,"dy":0.0162,"dx":0.0183,"nx":112,"ny":82,"refTime":"2024-07-02T00:00:00:Z","depth":0,"parameterNumber":2,"parameterNumberName":"U-component_of_WINDS"},"data":[0.0,0.0,0.0,0.0,0.0,0.0,0.0,0.0,0.0,0.0,0.0,0.0,0.0,0.0,0.0,0.0,0.0,0.0,0.0,0.0,0.0,0.0,0.0,0.0,0.0,0.0,0.0,0.0,0.0,0.0,0.0,0.0,0.0,0.0,0.0,0.0,0.0,0.0,0.0,0.0,0.0,0.0,0.0,0.0,0.0,0.0,0.0,0.0,0.0,0.0,0.0,0.0,0.0,0.0,0.0,0.0,0.0,0.0,0.0,0.0,0.0,0.0,0.0,0.0,0.0,0.0,0.0,0.0,0.0,0.0,0.0,0.0,0.0,0.0,0.0,0.0,0.0,0.0,0.0,0.0,0.0,0.0,0.0,0.0,0.0,0.0,0.0,0.0,0.0,0.0,-3.6872,-3.8545,-3.986,-4.0549,-4.029,-3.8674,-3.7244,-3.6245,0.0,0.0,0.0,0.0,0.0,0.0,0.0,0.0,0.0,0.0,0.0,0.0,0.0,0.0,0.0,0.0,0.0,0.0,0.0,0.0,0.0,0.0,0.0,0.0,0.0,0.0,0.0,0.0,0.0,0.0,0.0,0.0,0.0,0.0,0.0,0.0,0.0,0.0,0.0,0.0,0.0,0.0,0.0,0.0,0.0,0.0,0.0,0.0,0.0,0.0,0.0,0.0,0.0,0.0,0.0,0.0,0.0,0.0,0.0,0.0,0.0,0.0,0.0,0.0,0.0,0.0,0.0,0.0,0.0,0.0,0.0,0.0,0.0,0.0,0.0,0.0,0.0,0.0,0.0,0.0,0.0,0.0,0.0,0.0,0.0,0.0,0.0,0.0,0.0,0.0,0.0,0.0,0.0,0.0,0.0,0.0,0.0,0.0,0.0,0.0,0.0,0.0,0.0,0.0,-3.7735,-3.9953,-4.0275,-4.005,-3.9282,-3.8192,-3.6898,-3.5385,0.0,0.0,0.0,0.0,0.0,0.0,0.0,0.0,0.0,0.0,0.0,0.0,0.0,0.0,0.0,0.0,0.0,0.0,0.0,0.0,0.0,0.0,0.0,0.0,0.0,0.0,0.0,0.0,0.0,0.0,0.0,0.0,0.0,0.0,0.0,0.0,0.0,0.0,0.0,0.0,0.0,0.0,0.0,0.0,0.0,0.0,0.0,0.0,0.0,0.0,0.0,0.0,0.0,0.0,0.0,0.0,0.0,0.0,0.0,0.0,0.0,0.0,0.0,0.0,0.0,0.0,0.0,0.0,0.0,0.0,0.0,0.0,0.0,0.0,0.0,0.0,0.0,0.0,0.0,0.0,0.0,0.0,0.0,0.0,0.0,0.0,0.0,0.0,0.0,0.0,0.0,0.0,0.0,0.0,0.0,0.0,0.0,0.0,0.0,0.0,0.0,0.0,0.0,-3.6541,-3.8211,-4.0084,-4.0238,-3.9833,-3.8982,-3.8026,-3.68,-3.5211,-3.3599,0.0,0.0,0.0,0.0,0.0,0.0,0.0,0.0,0.0,0.0,0.0,0.0,0.0,0.0,0.0,0.0,0.0,0.0,0.0,0.0,0.0,0.0,0.0,0.0,0.0,0.0,0.0,0.0,0.0,0.0,0.0,0.0,0.0,0.0,0.0,0.0,0.0,0.0,0.0,0.0,0.0,0.0,0.0,0.0,0.0,0.0,0.0,0.0,0.0,0.0,0.0,0.0,0.0,0.0,0.0,0.0,0.0,0.0,0.0,0.0,0.0,0.0,0.0,0.0,0.0,0.0,0.0,0.0,0.0,0.0,0.0,0.0,0.0,0.0,0.0,0.0,0.0,0.0,0.0,0.0,0.0,0.0,0.0,0.0,0.0,0.0,0.0,0.0,0.0,0.0,0.0,0.0,0.0,0.0,0.0,0.0,0.0,0.0,0.0,0.0,0.0,0.0,-3.7141,-3.8299,-3.9606,-3.9893,-3.9573,-3.8538,-3.7827,-3.6625,-3.4665,-3.3354,0.0,0.0,0.0,0.0,0.0,0.0,0.0,0.0,0.0,0.0,0.0,0.0,0.0,0.0,0.0,0.0,0.0,0.0,0.0,0.0,0.0,0.0,0.0,0.0,0.0,0.0,0.0,0.0,0.0,0.0,0.0,0.0,0.0,0.0,0.0,0.0,0.0,0.0,0.0,0.0,0.0,0.0,0.0,0.0,0.0,0.0,0.0,0.0,0.0,0.0,0.0,0.0,0.0,0.0,0.0,0.0,0.0,0.0,0.0,0.0,0.0,0.0,0.0,0.0,0.0,0.0,0.0,0.0,0.0,0.0,0.0,0.0,0.0,0.0,0.0,0.0,0.0,0.0,0.0,0.0,0.0,0.0,0.0,0.0,0.0,0.0,0.0,0.0,0.0,0.0,0.0,0.0,0.0,0.0,0.0,0.0,0.0,0.0,0.0,0.0,0.0,0.0,-3.6226,-3.7827,-3.8614,-3.9327,-3.9091,-3.7544,-3.7353,-3.603,-3.3072,-3.2656,0.0,0.0,0.0,0.0,0.0,0.0,0.0,0.0,0.0,0.0,0.0,0.0,0.0,0.0,0.0,0.0,0.0,0.0,0.0,0.0,0.0,0.0,0.0,0.0,0.0,0.0,0.0,0.0,0.0,0.0,0.0,0.0,0.0,0.0,0.0,0.0,0.0,0.0,0.0,0.0,0.0,0.0,0.0,0.0,0.0,0.0,0.0,0.0,0.0,0.0,0.0,0.0,0.0,0.0,0.0,0.0,0.0,0.0,0.0,0.0,0.0,0.0,0.0,0.0,0.0,0.0,0.0,0.0,0.0,0.0,0.0,0.0,0.0,0.0,0.0,0.0,0.0,0.0,0.0,0.0,0.0,0.0,0.0,0.0,0.0,0.0,0.0,0.0,0.0,0.0,0.0,0.0,0.0,0.0,0.0,0.0,0.0,0.0,0.0,0.0,0.0,0.0,-3.6437,-3.7978,-3.9167,-3.9108,-3.8539,-3.7394,-3.6878,-3.5466,-3.276,0.0,0.0,0.0,0.0,0.0,0.0,0.0,0.0,0.0,0.0,0.0,0.0,0.0,0.0,0.0,0.0,0.0,0.0,0.0,0.0,0.0,0.0,0.0,0.0,0.0,0.0,0.0,0.0,0.0,0.0,0.0,0.0,0.0,0.0,0.0,0.0,0.0,0.0,0.0,0.0,0.0,0.0,0.0,0.0,0.0,0.0,0.0,0.0,0.0,0.0,0.0,0.0,0.0,0.0,0.0,0.0,0.0,0.0,0.0,0.0,0.0,0.0,0.0,0.0,0.0,0.0,0.0,0.0,0.0,0.0,0.0,0.0,0.0,0.0,0.0,0.0,0.0,0.0,0.0,0.0,0.0,0.0,0.0,0.0,0.0,0.0,0.0,0.0,0.0,0.0,0.0,0.0,0.0,0.0,0.0,0.0,0.0,0.0,0.0,0.0,0.0,0.0,-3.433,-3.5959,-3.7394,-3.8421,-3.8279,-3.7778,-3.6945,-3.6397,-3.5057,-3.2623,0.0,0.0,0.0,0.0,0.0,0.0,0.0,0.0,0.0,0.0,0.0,0.0,0.0,0.0,0.0,0.0,0.0,0.0,0.0,0.0,0.0,0.0,0.0,0.0,0.0,0.0,0.0,0.0,0.0,0.0,0.0,0.0,0.0,0.0,0.0,0.0,0.0,0.0,0.0,0.0,0.0,0.0,0.0,0.0,0.0,0.0,0.0,0.0,0.0,0.0,0.0,0.0,0.0,0.0,0.0,0.0,0.0,0.0,0.0,0.0,0.0,0.0,0.0,0.0,0.0,0.0,0.0,0.0,0.0,0.0,0.0,0.0,0.0,0.0,0.0,0.0,0.0,0.0,0.0,0.0,0.0,0.0,0.0,0.0,0.0,0.0,0.0,0.0,0.0,0.0,0.0,0.0,0.0,0.0,0.0,0.0,0.0,0.0,0.0,0.0,0.0,0.0,-3.2613,-3.4634,-3.6009,-3.6009,-3.6671,-3.6795,-3.6042,-3.5869,-3.4816,0.0,0.0,0.0,0.0,0.0,0.0,0.0,0.0,0.0,0.0,0.0,0.0,0.0,0.0,0.0,0.0,0.0,0.0,0.0,0.0,0.0,0.0,0.0,0.0,0.0,0.0,0.0,0.0,0.0,0.0,0.0,0.0,0.0,0.0,0.0,0.0,0.0,0.0,0.0,0.0,0.0,0.0,0.0,0.0,0.0,0.0,0.0,0.0,0.0,0.0,0.0,0.0,0.0,0.0,0.0,0.0,0.0,0.0,0.0,0.0,0.0,0.0,0.0,0.0,0.0,0.0,0.0,0.0,0.0,0.0,0.0,0.0,0.0,0.0,0.0,0.0,0.0,0.0,0.0,0.0,0.0,0.0,0.0,0.0,0.0,0.0,0.0,0.0,0.0,0.0,0.0,0.0,0.0,0.0,0.0,0.0,0.0,0.0,0.0,0.0,0.0,0.0,0.0,-3.3309,-3.4949,-3.6208,-3.6721,-3.6489,-3.6216,-3.5902,-3.5258,-3.4037,-3.2103,0.0,0.0,0.0,0.0,0.0,0.0,0.0,0.0,0.0,0.0,0.0,0.0,0.0,0.0,0.0,0.0,0.0,0.0,0.0,0.0,0.0,0.0,0.0,0.0,0.0,0.0,0.0,0.0,0.0,0.0,0.0,0.0,0.0,0.0,0.0,0.0,0.0,0.0,0.0,0.0,0.0,0.0,0.0,0.0,0.0,0.0,0.0,0.0,0.0,0.0,0.0,0.0,0.0,0.0,0.0,0.0,0.0,0.0,0.0,0.0,0.0,0.0,0.0,0.0,0.0,0.0,0.0,0.0,0.0,0.0,0.0,0.0,0.0,0.0,0.0,0.0,0.0,0.0,0.0,0.0,0.0,0.0,0.0,0.0,0.0,0.0,0.0,0.0,0.0,0.0,0.0,0.0,0.0,0.0,0.0,0.0,0.0,0.0,0.0,0.0,0.0,0.0,-3.3057,-3.4508,-3.5564,-3.6018,-3.5605,-3.5284,-3.5217,-3.4543,-3.3355,-3.1575,0.0,0.0,0.0,0.0,0.0,0.0,0.0,0.0,0.0,0.0,0.0,0.0,0.0,0.0,0.0,0.0,0.0,0.0,0.0,0.0,0.0,0.0,0.0,0.0,0.0,0.0,0.0,0.0,0.0,0.0,0.0,0.0,0.0,0.0,0.0,0.0,0.0,0.0,0.0,0.0,0.0,0.0,0.0,0.0,0.0,0.0,0.0,0.0,0.0,0.0,0.0,0.0,0.0,0.0,0.0,0.0,0.0,0.0,0.0,0.0,0.0,0.0,0.0,0.0,0.0,0.0,0.0,0.0,0.0,0.0,0.0,0.0,0.0,0.0,0.0,0.0,0.0,0.0,0.0,0.0,0.0,0.0,0.0,0.0,0.0,0.0,0.0,0.0,0.0,0.0,0.0,0.0,0.0,0.0,0.0,0.0,0.0,0.0,0.0,0.0,0.0,0.0,-3.2204,-3.3588,-3.4464,-3.4447,-3.4332,-3.4242,-3.4189,-3.3687,-3.2648,-3.1032,0.0,0.0,0.0,0.0,0.0,0.0,0.0,0.0,0.0,0.0,0.0,0.0,0.0,0.0,0.0,0.0,0.0,0.0,0.0,0.0,0.0,0.0,0.0,0.0,0.0,0.0,0.0,0.0,0.0,0.0,0.0,0.0,0.0,0.0,0.0,0.0,0.0,0.0,0.0,0.0,0.0,0.0,0.0,0.0,0.0,0.0,0.0,0.0,0.0,0.0,0.0,0.0,0.0,0.0,0.0,0.0,0.0,0.0,0.0,0.0,-3.486,-3.4708,0.0,0.0,0.0,0.0,0.0,0.0,0.0,0.0,0.0,0.0,0.0,0.0,0.0,0.0,0.0,0.0,0.0,0.0,0.0,0.0,0.0,0.0,0.0,0.0,0.0,0.0,0.0,0.0,0.0,0.0,0.0,0.0,0.0,0.0,0.0,0.0,0.0,0.0,0.0,0.0,-3.1992,-3.3315,-3.4145,-3.4039,-3.3998,-3.384,-3.3474,-3.2652,-3.1661,-3.0458,-2.8994,0.0,0.0,0.0,0.0,0.0,0.0,0.0,0.0,0.0,0.0,0.0,0.0,0.0,0.0,0.0,0.0,0.0,0.0,0.0,0.0,0.0,0.0,0.0,0.0,0.0,0.0,0.0,0.0,0.0,0.0,0.0,0.0,0.0,0.0,0.0,0.0,0.0,0.0,0.0,0.0,0.0,0.0,0.0,0.0,0.0,0.0,0.0,0.0,0.0,0.0,0.0,0.0,0.0,0.0,0.0,0.0,0.0,0.0,0.0,-3.6293,-3.5722,0.0,0.0,0.0,0.0,0.0,0.0,0.0,0.0,0.0,0.0,0.0,0.0,0.0,0.0,0.0,0.0,0.0,0.0,0.0,0.0,0.0,0.0,0.0,0.0,0.0,0.0,0.0,0.0,0.0,0.0,0.0,0.0,0.0,0.0,0.0,0.0,0.0,0.0,0.0,0.0,-3.1406,-3.2125,-3.2645,-3.2869,-3.2496,-3.2107,-3.187,-3.1183,-3.0323,-2.94,-2.837,0.0,0.0,0.0,0.0,0.0,0.0,0.0,0.0,0.0,0.0,0.0,0.0,0.0,0.0,0.0,0.0,0.0,0.0,0.0,0.0,0.0,0.0,0.0,0.0,0.0,0.0,0.0,0.0,0.0,0.0,0.0,0.0,0.0,0.0,0.0,0.0,0.0,0.0,0.0,0.0,0.0,0.0,0.0,0.0,0.0,0.0,0.0,0.0,0.0,0.0,0.0,0.0,0.0,-4.022,-4.0166,-3.9586,-3.946,-3.946,-3.946,-3.7308,-3.6287,-3.6069,-3.5719,0.0,0.0,0.0,0.0,0.0,0.0,0.0,0.0,0.0,0.0,0.0,0.0,0.0,0.0,0.0,0.0,0.0,0.0,0.0,0.0,0.0,0.0,-3.2868,-3.3621,-3.3777,-3.353,-3.2632,0.0,0.0,0.0,0.0,0.0,0.0,0.0,0.0,0.0,0.0,0.0,-3.0855,-3.0947,-3.1099,-3.156,-3.0824,-3.0279,-3.0235,-2.9699,-2.9075,-2.8378,-2.798,-2.7182,0.0,0.0,0.0,0.0,0.0,0.0,0.0,0.0,0.0,0.0,0.0,0.0,0.0,0.0,0.0,0.0,0.0,0.0,0.0,0.0,0.0,0.0,0.0,0.0,0.0,0.0,0.0,0.0,0.0,0.0,0.0,0.0,-3.0785,-3.1654,0.0,0.0,0.0,0.0,0.0,0.0,0.0,0.0,0.0,0.0,0.0,0.0,0.0,-3.9387,-4.0021,-4.0239,-4.0347,-4.0365,-4.0438,-4.0438,-4.0329,-3.9695,-3.9749,-4.0293,-3.921,0.0,-3.8366,-3.7487,0.0,0.0,0.0,0.0,0.0,0.0,0.0,0.0,0.0,0.0,0.0,0.0,0.0,0.0,0.0,0.0,0.0,0.0,0.0,0.0,0.0,0.0,-3.4399,-3.5136,-3.5316,-3.5405,-3.5703,-3.4832,-3.3728,-3.2972,-3.2131,-3.1295,0.0,0.0,0.0,0.0,0.0,0.0,-3.0854,-3.0968,-3.0975,-3.0931,-3.0302,-2.9776,-2.9546,-2.8827,-2.8287,-2.8065,-2.7363,-2.6599,-2.584,-2.5676,0.0,0.0,0.0,0.0,0.0,0.0,0.0,0.0,0.0,0.0,0.0,0.0,0.0,0.0,0.0,0.0,0.0,0.0,0.0,0.0,0.0,0.0,0.0,0.0,0.0,0.0,0.0,0.0,0.0,-3.1751,-3.306,-3.3379,-3.4295,-3.4825,0.0,0.0,0.0,0.0,0.0,0.0,0.0,0.0,0.0,-3.8861,-4.0057,-4.0854,-4.1162,-4.1633,-4.185,-4.185,-4.185,-4.1615,-4.1162,-4.0836,-4.0854,-4.1089,-4.0635,-4.0248,-3.9904,-3.8832,-3.7335,-3.5645,0.0,0.0,0.0,0.0,-3.2741,-3.268,-3.2613,-3.2809,-3.3044,-3.2541,0.0,0.0,0.0,0.0,0.0,0.0,0.0,-3.3258,-3.3689,-3.3858,-3.4127,-3.4852,-3.5283,-3.5658,-3.6249,-3.6206,-3.5614,-3.4301,-3.3281,-3.2301,-3.1294,-3.0348,0.0,0.0,0.0,-3.0027,-3.0516,-3.0171,-2.9911,-2.9838,-2.9184,-2.8543,-2.8091,-2.7656,-2.7378,-2.7322,-2.7306,-2.6962,-2.6224,-2.6519,-2.6163,0.0,0.0,0.0,0.0,0.0,0.0,0.0,0.0,0.0,0.0,0.0,0.0,0.0,0.0,0.0,0.0,0.0,0.0,0.0,0.0,0.0,0.0,0.0,0.0,0.0,0.0,0.0,0.0,-3.3379,-3.4869,-3.5187,-3.6429,-3.7149,0.0,0.0,0.0,0.0,0.0,0.0,-3.8014,-3.9361,-4.0072,-3.9985,-4.1307,-4.1994,-4.1994,-4.2592,-4.2882,-4.2881,-4.2881,-4.2536,-4.192,-4.1721,-4.1702,-4.1843,-4.1437,-4.1159,-4.0909,-3.9866,-3.8304,-3.6549,-3.614,-3.5157,-3.397,-3.3868,-3.3783,-3.376,-3.3667,-3.3935,-3.4201,-3.3524,-3.3379,-3.3364,-3.281,0.0,0.0,0.0,0.0,-3.3496,-3.4027,-3.3898,-3.3779,-3.429,-3.4873,-3.5411,-3.6014,-3.6573,-3.6495,-3.4987,-3.4033,-3.3006,-3.1593,-3.0754,0.0,-2.9838,-2.9672,-2.9768,-3.0311,-2.9703,-2.9226,-2.9235,-2.8561,-2.7923,-2.7482,-2.7355,-2.7273,-2.7205,-2.7621,-2.7596,-2.6953,-2.7216,-2.6853,-2.5785,0.0,0.0,0.0,0.0,0.0,0.0,0.0,0.0,0.0,0.0,0.0,0.0,0.0,0.0,0.0,0.0,0.0,0.0,0.0,0.0,0.0,0.0,0.0,0.0,0.0,0.0,0.0,0.0,0.0,-3.7062,-3.7337,0.0,0.0,0.0,0.0,-3.8744,-3.9451,-4.007,-4.0504,-4.1305,-4.1724,-4.1578,-4.2393,-4.2847,-4.2847,-4.2883,-4.2862,-4.2803,-4.2803,-4.2727,-4.2519,-4.1746,-4.1818,-4.2482,-4.1393,-4.117,-4.1481,-4.0398,-3.9152,-3.7851,-3.7446,-3.7111,-3.6887,-3.6887,-3.6811,-3.6684,-3.6684,-3.6479,-3.6234,-3.6054,-3.4939,-3.3697,-3.3624,-3.3143,0.0,0.0,-3.4048,-3.4414,-3.4322,-3.4187,-3.4054,-3.3947,-3.4423,-3.5023,-3.5365,-3.5876,-3.5938,-3.4893,-3.4409,-3.3429,-3.1132,0.0,-3.0236,-3.003,-2.9862,-2.9971,-3.0542,-3.0012,-2.9577,-2.958,-2.903,-2.8641,-2.8608,-2.8607,-2.8523,-2.8311,-2.8354,-2.8297,-2.8111,-2.7414,-2.6919,-2.6722,-2.5598,0.0,0.0,0.0,0.0,0.0,0.0,0.0,0.0,0.0,0.0,0.0,0.0,0.0,0.0,0.0,0.0,0.0,0.0,0.0,0.0,0.0,0.0,0.0,0.0,0.0,0.0,0.0,0.0,-3.8812,-3.9478,0.0,-4.0283,-4.0528,-4.0609,-4.0511,-4.1156,-4.1519,-4.1469,-4.2232,-4.2595,-4.2484,-4.2737,-4.2881,-4.2841,-4.2841,-4.2785,-4.2668,-4.2668,-4.2649,-4.2591,-4.2304,-4.2318,-4.2508,-4.1822,-4.1519,-4.1396,-4.0543,-3.9542,-3.8475,-3.8171,-3.7585,-3.6975,-3.6975,-3.6873,-3.6701,-3.6623,-3.645,-3.6238,-3.5996,-3.5551,-3.507,-3.507,-3.4851,-3.4707,-3.499,-3.4986,-3.4857,-3.4657,-3.3991,-3.3284,-3.3156,-3.3236,-3.3514,-3.4061,-3.4272,-3.4178,-3.3713,-3.3607,-3.3051,-3.1217,-3.0733,-3.0573,-3.0412,-3.0368,-3.0381,-3.0569,-3.0392,-3.0087,-2.9653,-2.9407,-2.9117,-2.8724,-2.8582,-2.8468,-2.8411,-2.867,-2.8626,-2.8096,-2.7696,-2.7242,-2.6665,-2.5786,-2.5146,0.0,0.0,0.0,0.0,0.0,0.0,0.0,0.0,0.0,0.0,0.0,0.0,0.0,0.0,0.0,0.0,0.0,0.0,0.0,0.0,0.0,0.0,0.0,0.0,0.0,-3.7799,-3.9437,-4.0488,-4.1153,-4.1697,-4.2059,-4.2282,-4.2258,-4.1898,-4.2474,-4.269,-4.2359,-4.2832,-4.303,-4.2901,-4.2881,-4.2842,-4.2803,-4.2764,-4.2686,-4.2568,-4.251,-4.249,-4.2432,-4.2409,-4.2366,-4.232,-4.1909,-4.1547,-4.1209,-4.0517,-3.975,-3.9008,-3.8726,-3.8193,-3.7607,-3.7571,-3.7423,-3.7236,-3.7075,-3.6885,-3.6692,-3.6498,-3.6226,-3.6007,-3.6007,-3.5848,-3.5705,-3.5888,-3.5625,-3.5237,-3.4943,-3.398,-3.299,-3.2572,-3.2393,-3.2437,-3.2853,-3.3028,-3.2992,-3.2586,-3.2665,-3.2371,-3.1072,-3.0777,-3.0702,-3.0598,-3.0598,-3.0598,-3.0598,-3.0598,-3.0409,-2.9988,-2.9871,-2.9681,-2.9262,-2.9088,-2.8928,-2.8898,-2.9136,-2.9043,-2.8498,-2.8138,-2.7638,-2.7046,-2.635,-2.5813,-2.5423,0.0,0.0,0.0,0.0,0.0,0.0,0.0,0.0,0.0,0.0,0.0,0.0,0.0,0.0,0.0,0.0,0.0,0.0,0.0,0.0,0.0,0.0,0.0,-3.8414,-3.9236,-4.0398,-4.2046,-4.2234,-4.2209,-4.2178,-4.2827,-4.3133,-4.2865,-4.3384,-4.3563,-4.3214,-4.3142,-4.303,-4.29,-4.2823,-4.2802,-4.2783,-4.2649,-4.2548,-4.2483,-4.2346,-4.2225,-4.2082,-4.203,-4.2005,-4.1984,-4.1577,-4.1249,-4.0954,-4.0345,-3.9858,-3.9475,-3.9121,-3.898,-3.8936,-3.8799,-3.8662,-3.8467,-3.8214,-3.7899,-3.7653,-3.7669,-3.7091,-3.6393,-3.6424,-3.5995,-3.5572,-3.6077,-3.5985,-3.5612,-3.511,-3.4226,-3.3228,-3.2224,-3.1971,-3.1911,-3.1803,-3.2284,-3.2484,-3.1642,-3.1635,-3.1522,-3.0744,-3.0598,-3.0598,-3.0582,-3.0598,0.0,-3.0568,-3.0568,-3.0568,-3.0568,-3.0417,-3.0282,-3.0282,-3.0158,-3.0005,-2.9808,-2.9682,-2.954,-2.9415,-2.8612,-2.8081,-2.7886,-2.7311,-2.6854,-2.6592,0.0,0.0,0.0,0.0,0.0,0.0,0.0,0.0,0.0,0.0,0.0,0.0,0.0,0.0,0.0,0.0,0.0,0.0,0.0,0.0,0.0,-3.746,-3.9036,-3.9329,-4.0608,-4.1914,-4.302,-4.3133,-4.3353,-4.3853,-4.4049,-4.4074,-4.3886,-4.3862,-4.3716,-4.3427,-4.3269,-4.3068,-4.2823,-4.2803,-4.2743,-4.2584,-4.2447,-4.2328,-4.2205,-4.2118,-4.2051,-4.203,-4.2005,-4.2005,-4.1984,-4.1475,-4.11,-4.0819,-4.0104,-3.9625,-3.9325,-3.9077,-3.8559,-3.7894,-3.7758,-3.7242,-3.6532,-3.637,-3.6258,-3.6241,-3.6635,-3.6608,-3.6487,-3.7038,-3.7083,-3.6914,-3.6924,-3.6627,-3.6061,-3.5047,-3.3963,-3.2859,-3.1887,-3.1285,-3.1081,-3.1486,-3.14,-3.1222,-3.1341,-3.1013,-3.0684,-3.0627,-3.0598,-3.0536,-3.0382,-3.0369,-3.0341,-3.0262,-3.0248,-3.0233,-3.0233,-3.0189,-3.0158,-3.0158,-2.9991,-2.9853,-2.9808,-2.9588,-2.9446,-2.9383,-2.8505,-2.7691,-2.7115,-2.7015,-2.6957,0.0,0.0,0.0,0.0,0.0,0.0,0.0,0.0,0.0,0.0,0.0,0.0,0.0,0.0,0.0,0.0,0.0,0.0,0.0,0.0,0.0,0.0,-3.8902,-4.0315,-4.1092,-4.2052,-4.2968,-4.3815,-4.3909,-4.4084,-4.4513,-4.451,-4.4458,-4.4358,-4.4113,-4.3878,-4.3599,-4.3375,-4.3123,-4.2842,-4.2746,-4.2627,-4.2425,-4.2287,-4.2163,-4.2055,-4.1948,-4.1923,-4.1923,-4.1858,-4.1797,-4.1749,-4.1335,-4.0931,-4.049,-3.9927,-3.9468,0.0,0.0,0.0,0.0,0.0,-3.6263,-3.5708,-3.5629,-3.5546,-3.557,-3.5897,-3.6156,-3.6472,-3.6911,-3.7243,-3.745,-3.7195,-3.6831,-3.6198,-3.4951,-3.3776,-3.2656,-3.1654,-3.0894,-3.0472,-3.0847,-3.063,-3.0486,-3.0738,-3.0467,0.0,-3.0371,-3.0385,-3.0355,-3.023,-3.0232,-3.0187,-3.0109,-3.0095,-3.008,-3.008,-3.0005,-2.996,-2.996,-2.9761,0.0,0.0,0.0,-2.9131,-2.9067,-2.8488,0.0,0.0,0.0,0.0,0.0,0.0,0.0,0.0,-2.8644,-2.9328,0.0,0.0,0.0,0.0,0.0,0.0,0.0,0.0,0.0,0.0,0.0,0.0,0.0,0.0,0.0,0.0,-4.0319,-4.1501,-4.2943,-4.3238,-4.3595,-4.4388,-4.4407,-4.4388,-4.4482,-4.4501,-4.4487,-4.4411,-4.4233,-4.4017,-4.3747,-4.346,0.0,0.0,0.0,-4.251,-4.2287,-4.2163,-4.2055,-4.1984,-4.1841,-4.178,-4.178,-4.1648,-4.1538,-4.138,-4.1146,-4.071,-4.0145,-3.9764,-3.9139,-3.8384,-3.7622,-3.7178,-3.6869,-3.5915,-3.5457,-3.5336,-3.5336,0.0,0.0,-3.5236,-3.5679,-3.6187,-3.6345,-3.6835,-3.728,-3.7044,-3.6662,-3.6029,-3.4689,-3.3499,-3.2411,-3.1411,-3.0618,-3.008,-3.008,-3.008,-3.008,-3.008,-3.0054,-3.0054,-3.0017,-3.0048,-3.0095,-3.0064,-3.0048,-3.0031,-3.0019,-2.9988,-2.9988,-2.9988,0.0,0.0,-2.9716,-2.9495,-2.9383,-2.9383,-2.9004,-2.8748,-2.8619,-2.8587,-2.8587,-2.8587,-2.8587,-2.8678,-2.8889,-2.9422,-2.9835,-3.0124,-2.9564,-2.9914,0.0,0.0,0.0,0.0,0.0,0.0,0.0,0.0,0.0,0.0,0.0,0.0,0.0,0.0,0.0,-3.921,-4.1234,-4.2599,-4.2219,-4.2817,-4.3595,-4.4388,-4.3933,-4.3782,-4.4444,-4.4501,-4.4501,-4.4487,-4.434,-4.4147,-4.3881,-4.3599,-4.3268,-4.2841,-4.2668,-4.2452,-4.2145,-4.2055,-4.1966,-4.1841,-4.1692,0.0,-4.1648,-4.1604,-4.1538,-4.138,-4.0907,-4.0458,-3.9978,-3.9259,-3.7954,-3.6355,-3.6303,-3.5808,-3.5032,-3.425,-3.3847,-3.373,-3.373,-3.373,-3.3799,-3.4336,-3.4589,-3.492,-3.6045,-3.6416,0.0,-3.6691,-3.6061,-3.4986,-3.3642,-3.257,-3.1584,-3.0578,-3.0211,-3.008,-3.008,-3.008,-3.0036,-2.9886,-2.9777,-2.9665,-2.9551,-2.9845,-3.0031,-2.9874,-2.9769,-2.9648,-2.954,-2.9383,-2.9289,-2.9289,-2.9257,-2.9257,-2.9257,-2.9194,-2.9162,-2.9162,-2.894,-2.8748,-2.8619,-2.8587,-2.8587,-2.8587,-2.8587,-2.8864,-2.9372,-2.9481,-3.0052,-3.1025,-3.0704,-3.0936,0.0,0.0,0.0,0.0,0.0,0.0,0.0,0.0,0.0,0.0,0.0,-3.5631,-3.653,0.0,-3.9449,-4.0351,-4.1586,-4.2464,-4.2534,-4.2232,-4.2479,-4.3764,-4.3538,-4.3613,-4.4407,-4.4501,-4.4501,-4.4501,-4.4416,-4.4252,-4.402,-4.3714,-4.3339,-4.29,-4.2631,-4.2369,-4.2055,-4.1948,-4.1819,-4.1692,-4.1626,-4.1604,-4.1604,-4.1604,-4.1471,-4.1238,-4.0789,-4.022,-3.9499,-3.8341,-3.6989,-3.5664,-3.5406,-3.4793,-3.3996,-3.3551,-3.3346,-3.3309,-3.3309,-3.3309,-3.3356,-3.3688,-3.402,-3.4431,-3.5058,-3.5388,-3.5531,-3.5457,-3.4881,-3.3953,-3.2728,-3.1882,-3.1085,-3.0069,-2.9803,-2.9741,-2.9602,-2.962,-2.956,-2.9467,-2.9401,-2.932,-2.9253,-2.9439,-2.9579,-2.9471,-2.938,-2.932,-2.9257,-2.9162,-2.9099,-2.9099,-2.9099,-2.9099,-2.9099,-2.9004,-2.8908,-2.8844,-2.8748,-2.8651,-2.8587,-2.8587,-2.8587,-2.8587,-2.8587,-2.8885,-2.9515,-2.9794,-3.0405,-3.13,-3.1484,-3.1705,0.0,0.0,0.0,0.0,0.0,0.0,0.0,-3.214,-3.3831,-3.4291,-3.567,-3.7114,-3.8086,-3.8975,-4.0067,-4.1659,-4.1911,-4.2174,-4.2829,-4.1622,-4.1269,-4.2822,-4.3037,-4.3426,-4.4407,-4.4501,-4.4501,-4.4501,-4.4444,-4.4306,-4.4106,-4.3793,-4.3425,-4.3014,-4.2632,-4.2308,-4.2005,-4.1862,-4.1736,-4.1604,-4.1604,-4.1604,-4.1604,-4.1604,-4.1426,-4.1099,-4.0604,-3.9809,-3.8727,-3.7422,-3.6298,-3.5276,-3.4748,-3.4096,-3.345,-3.3319,-3.3309,-3.3309,-3.3309,-3.3309,-3.3309,-3.3309,-3.3645,-3.4076,-3.4093,-3.4338,-3.455,-3.4205,-3.3638,-3.2943,-3.1874,-3.1176,-3.0537,-2.9698,-2.9415,-2.9289,-2.9131,-2.9089,-2.9107,-2.9099,-2.9081,-2.9035,-2.9049,-2.9027,-2.9027,-2.9081,-2.9067,-2.9035,-2.9035,-2.9004,-2.9004,-2.9004,-2.9004,-2.9004,-2.9004,-2.8844,-2.8716,-2.8619,-2.8587,-2.8587,-2.8587,-2.8587,-2.8587,-2.8587,-2.8587,-2.8885,-2.9515,-2.9984,-3.0595,-3.13,-3.1789,-3.211,-2.6118,-2.6808,-2.7698,-2.885,-2.9414,-3.0103,0.0,-3.2962,-3.4161,-3.58,-3.6854,-3.7999,-3.9645,-4.0637,-4.1538,-4.2519,-4.2724,-4.2559,-4.1944,-4.1138,-4.0937,-4.1866,-4.2055,-4.2774,-4.435,-4.4501,-4.4501,-4.4501,-4.4444,-4.4306,-4.4106,-4.3841,-4.3477,-4.3014,-4.2728,-4.2389,-4.2005,-4.1862,-4.1736,-4.1604,-4.1604,-4.1604,-4.1604,-4.1604,-4.1453,-4.114,-4.0128,-3.8861,-3.7497,-3.7062,-3.5939,-3.4426,-3.4347,-3.392,-3.3335,-3.3309,-3.3309,-3.3309,-3.3309,-3.3309,-3.3309,-3.3309,-3.3277,-3.3343,-3.394,-3.3855,-3.36,-3.3712,-3.2915,-3.1816,-3.1106,-3.0192,-2.9425,-2.9208,-2.9131,-2.9131,-2.9099,-2.9099,-2.9113,-2.9118,-2.8949,-2.8826,-2.883,-2.8738,-2.8761,-2.9067,-2.894,-2.8812,-2.8812,-2.8716,-2.8651,-2.8651,-2.8651,-2.8651,-2.8651,-2.8651,-2.8619,-2.8587,-2.8587,-2.8587,-2.8587,-2.8587,-2.8587,-2.8587,-2.8587,-2.8885,-2.9515,-2.9583,-3.0174,-3.13,-3.1368,-3.168,-2.6386,-2.707,-2.7794,-2.9003,-2.9783,-3.0638,-3.2038,-3.3368,-3.4694,-3.5966,-3.6967,-3.7989,-3.9217,-4.06,-4.1705,-4.2095,-4.2205,-4.2165,-4.1871,-4.0739,-4.0461,-4.1761,-4.1938,-4.2575,-4.4219,-4.4387,-4.4387,-4.4387,-4.4358,-4.43,-4.4162,-4.386,-4.3545,-4.3178,-4.2731,-4.2351,-4.2076,-4.1801,-4.1648,-4.1604,-4.1604,-4.1604,-4.1604,-4.1515,-4.096,-3.9993,-3.9034,-3.7867,-3.6583,-3.5817,-3.5034,-3.4257,-3.3862,-3.3546,-3.3309,-3.3309,-3.3309,-3.3309,-3.3309,-3.3309,-3.3282,-3.3203,-3.315,-3.3132,-3.3193,-3.2968,-3.2649,-3.2476,-3.1708,-3.0823,-3.0347,-2.9694,-2.9149,-2.8972,-2.8926,-2.8881,-2.8812,-2.8812,-2.8826,-2.8821,-2.8743,-2.8697,-2.8692,-2.8646,-2.8651,-2.878,-2.8748,-2.8683,-2.8683,-2.8619,-2.8587,-2.8587,-2.8587,-2.8587,-2.8587,-2.8587,-2.8587,-2.8587,-2.8587,-2.8587,-2.8587,-2.8587,-2.8587,-2.8587,-2.8587,-2.8885,-2.9515,-2.9515,-3.014,-3.13,-3.13,-3.1612,-2.6788,-2.731,-2.7807,-2.9003,-2.9858,-3.0725,-3.1991,-3.3407,-3.4695,-3.5586,-3.6725,-3.7849,-3.8759,-4.0418,-4.1738,-4.2043,-4.2151,-4.2239,-4.2275,-4.1089,-4.0727,-4.2192,-4.2289,-4.2815,-4.4169,-4.43,-4.43,-4.43,-4.427,-4.4259,-4.4199,-4.3913,-4.3597,-4.3303,-4.277,-4.2356,-4.2103,-4.1784,-4.1626,-4.1538,-4.1538,-4.1538,-4.1475,-4.1108,-4.032,-3.9149,-3.8153,-3.7039,-3.5839,-3.4958,-3.4371,-3.3972,-3.3482,-3.3309,-3.3309,-3.3256,-3.3282,-3.3309,-3.3309,-3.3282,-3.3229,-3.3123,-3.3043,-3.2935,-3.2676,-3.2401,-3.2051,-3.1623,-3.0925,-3.0221,-2.9901,-2.9418,-2.8972,-2.883,-2.8753,-2.872,-2.8619,-2.8587,-2.8587,-2.8587,-2.8587,-2.8587,-2.8587,-2.8587,-2.8587,-2.8587,-2.8587,-2.8587,-2.8587,-2.8587,-2.8587,-2.8587,-2.8587,-2.8587,-2.8587,-2.8587,-2.8587,-2.8587,-2.8587,-2.8587,-2.8587,-2.8587,-2.8587,-2.8587,-2.8587,-2.8804,-2.9257,-2.9257,-2.9862,-3.1042,-3.1007,-3.1378,-2.7231,-2.7496,-2.7867,-2.9018,-2.9458,-3.008,-3.1808,-3.2904,-3.3807,-3.4745,-3.6311,-3.7805,-3.8812,-4.0486,-4.2006,-4.2899,-4.3165,-4.3257,-4.3257,-4.2487,-4.2275,-4.3144,-4.3202,-4.3451,-4.4225,-4.43,-4.43,-4.43,-4.4244,-4.4199,-4.4199,-4.395,-4.3634,-4.3303,-4.2902,-4.2496,-4.2103,-4.1909,-4.167,-4.1403,-4.1403,-4.134,-4.1174,-4.0268,-3.9622,-3.9132,-3.7852,-3.6521,-3.5218,-3.4898,-3.4208,-3.3324,-3.3309,-3.3309,-3.3266,-3.315,-3.3176,-3.3309,-3.3309,-3.3203,-3.3112,-3.3096,-3.2866,-3.2605,-3.2594,-3.2318,-3.1925,-3.161,-3.0925,-3.0221,-2.9901,-2.9293,-2.8812,-2.8803,-2.8688,-2.8587,-2.8587,-2.8587,-2.8587,-2.8587,-2.8587,-2.8587,-2.8587,-2.8587,-2.8587,-2.8587,-2.8587,-2.8587,-2.8587,-2.8587,-2.8587,-2.8587,-2.8587,-2.8587,-2.8587,-2.8587,-2.8587,-2.8587,-2.8587,-2.8587,-2.8587,-2.8587,-2.8587,-2.8587,-2.8587,-2.86,-2.8627,-2.8627,-2.9252,-3.0432,-3.0233,-3.0747,-2.7198,-2.7417,-2.7837,-2.885,-2.9297,-2.9765,-3.0941,-3.1964,-3.2885,-3.3796,-3.496,-3.6333,-3.796,-3.9312,-4.0694,-4.2265,-4.2642,-4.296,-4.3502,-4.2893,-4.2678,-4.3464,-4.3441,-4.3638,-4.4421,-4.4344,-4.4195,-4.4116,-4.4085,-4.407,-4.407,-4.3947,-4.3749,-4.3494,-4.3069,-4.2653,-4.2295,-4.1956,-4.167,-4.1403,-4.1318,-4.0925,-4.0325,-3.9876,-3.8922,-3.7547,-3.6686,-3.5613,-3.4431,-3.4088,-3.3699,-3.3309,-3.3309,-3.3256,-3.315,-3.3112,-3.3069,-3.3032,-3.3032,-3.3005,-3.2951,-3.2812,-3.2703,-3.2578,-3.2496,-3.2302,-3.2051,-3.1739,-3.1146,-3.0539,-3.0115,-2.9515,-2.898,-2.8817,-2.8716,-2.8587,-2.8587,-2.8587,-2.8587,-2.8587,-2.8587,-2.8587,-2.8587,-2.8587,-2.8587,-2.8587,-2.8587,-2.8587,-2.8587,-2.8587,-2.8587,-2.8587,-2.8587,-2.8587,-2.8587,-2.8587,-2.8587,-2.8587,-2.8587,-2.8587,-2.8587,-2.8476,-2.8398,-2.8398,-2.8327,-2.8276,-2.8276,-2.8631,-2.9201,-3.0025,-3.0224,-3.0642,-2.6442,-2.6556,-2.6941,-2.7886,-2.8315,-2.8784,-2.9959,-3.0988,-3.1966,-3.2902,-3.4147,-3.5583,-3.7285,-3.8646,-4.0169,-4.2028,-4.2709,-4.3303,-4.4154,-4.3863,-4.374,-4.4222,-4.412,-4.4172,-4.4629,-4.4468,-4.427,-4.4085,-4.402,-4.4005,-4.4005,-4.3945,-4.3816,-4.3614,-4.3214,-4.2825,-4.2398,-4.2023,-4.1648,-4.1307,-4.1157,-4.0666,-3.9807,-3.9359,-3.8276,-3.6749,-3.5815,-3.4906,-3.4075,-3.3684,-3.3424,-3.3309,-3.3256,-3.3176,-3.3085,-3.2962,-3.2854,-3.28,-3.287,-3.2843,-3.2773,-3.2648,-3.2578,-3.2523,-3.2425,-3.233,-3.2163,-3.1938,-3.1437,-3.0896,-3.0524,-2.9842,-2.9247,-2.9031,-2.8761,-2.8587,-2.8587,-2.8587,-2.8587,-2.8587,-2.8587,-2.8587,-2.8587,-2.8587,-2.8587,-2.8587,-2.8587,-2.8587,-2.8587,-2.8587,-2.8587,-2.8587,-2.8587,-2.8587,-2.8587,-2.8587,-2.8554,-2.8509,-2.8476,-2.8476,-2.8438,-2.8281,-2.8249,-2.8249,-2.8131,-2.8112,-2.8112,-2.8632,-2.9169,-2.9719,-3.0017,-3.0351,-2.5146,-2.504,-2.5313,-2.629,-2.6651,-2.7222,-2.8873,-3.0066,-3.1091,-3.2124,-3.3815,-3.5532,-3.6786,-3.8478,-4.0325,-4.2294,-4.3302,-4.4185,-4.5173,-4.5317,-4.5317,-4.5317,-4.5192,-4.5026,-4.4833,-4.4699,-4.4501,-4.4229,-4.4085,-4.4005,-4.4005,-4.3945,-4.3832,-4.3631,-4.3357,-4.2957,-4.2418,-4.2047,-4.1609,-4.1093,-4.0924,-4.0429,-3.9612,-3.8654,-3.7688,-3.6648,-3.5293,-3.4472,-3.4075,-3.3658,-3.3398,-3.3282,-3.315,-3.3096,-3.3043,-3.273,-3.2594,-3.2621,-3.2816,-3.2746,-3.2578,-3.2578,-3.2496,-3.2398,-3.2398,-3.2315,-3.2219,-3.2191,-3.1768,-3.1263,-3.1043,-3.0299,-2.9554,-2.9341,-2.8931,-2.8587,-2.8587,-2.8587,-2.8587,-2.8587,-2.8587,-2.8587,-2.8587,-2.8587,-2.8587,-2.8587,-2.8587,-2.8587,-2.8587,-2.8587,-2.8587,-2.8587,-2.8587,-2.8587,-2.8587,-2.8587,-2.8509,-2.83,-2.83,-2.8235,-2.8112,-2.8079,-2.8079,-2.8079,-2.8079,-2.8079,-2.8079,-2.8638,-2.9106,-2.9482,-2.9718,-2.988,-2.4969,-2.4971,-2.5092,-2.534,-2.6041,-2.6778,-2.7268,-2.9147,-3.0914,-3.1342,-3.2996,-3.494,-3.6733,-3.7583,-3.9055,-4.2228,-4.2977,-4.3695,-4.5227,-4.5495,-4.5505,-4.5448,-4.5331,-4.5208,-4.5114,-4.4833,-4.4605,-4.4444,-4.4255,-4.4119,-4.4005,-4.3989,-4.3926,-4.3832,-4.3461,-4.3069,-4.2634,-4.1796,-4.1272,-4.1093,-4.0372,-3.9595,-3.8853,-3.7866,-3.6865,-3.5864,-3.4941,-3.4374,-3.405,-3.3555,-3.3282,-3.315,-3.3096,-3.2962,-3.273,-3.2648,-3.2551,-3.2453,-3.2523,-3.2496,-3.2453,-3.2453,-3.2425,-3.2398,-3.2398,-3.237,-3.233,-3.2122,-3.1764,-3.1332,-3.0822,-3.016,-2.9509,-2.9222,-2.8858,-2.8587,-2.8587,-2.8587,-2.8587,-2.8587,-2.8587,-2.8587,-2.8587,-2.8587,-2.8587,-2.8587,-2.8587,-2.8587,-2.8587,-2.8587,-2.8587,-2.8587,-2.8587,-2.8554,-2.8398,-2.8365,-2.8314,-2.8164,-2.8164,-2.8145,-2.8112,-2.7967,-2.7888,-2.7888,-2.7736,-2.7669,-2.7669,-2.8694,-2.9166,-2.9158,-2.9739,-2.977,-2.3936,-2.3861,-2.4001,-2.4399,-2.5254,-2.6128,-2.6643,-2.8844,-3.0884,-3.1175,-3.2841,-3.4843,-3.6825,-3.736,-3.8661,-4.225,-4.288,-4.3519,-4.5291,-4.5577,-4.5594,-4.5586,-4.5495,-4.539,-4.53,-4.5053,-4.4802,-4.4605,-4.4344,-4.4135,-4.4005,-4.4005,-4.3961,-4.3867,-4.3548,-4.3051,-4.2358,-4.1266,-4.0631,-4.0487,-3.9623,-3.8819,-3.8094,-3.7487,-3.6604,-3.5577,-3.4849,-3.4333,-3.3975,-3.3424,-3.3123,-3.3005,-3.2908,-3.2757,-3.2578,-3.2523,-3.2453,-3.2398,-3.2398,-3.2398,-3.2398,-3.2398,-3.2398,-3.2398,-3.2398,-3.2398,-3.237,-3.2145,-3.1806,-3.1362,-3.0836,-3.0142,-2.9537,-2.9196,-2.8835,-2.8587,-2.8587,-2.8587,-2.8554,-2.8476,-2.8476,-2.8444,-2.8392,-2.8373,-2.8373,-2.8373,-2.8373,-2.8373,-2.8373,-2.8425,-2.8476,-2.8476,-2.8425,-2.8327,-2.8216,-2.8216,-2.8151,-2.7967,-2.7967,-2.7934,-2.7848,-2.7723,-2.7656,-2.7656,-2.7556,-2.749,-2.749,-2.8438,-2.892,-2.8993,-2.9488,-2.949,-2.2699,-2.2515,-2.2709,-2.3526,-2.4472,-2.5467,-2.6436,-2.8823,-3.0948,-3.1353,-3.3034,-3.5027,-3.6967,-3.748,-3.8765,-4.2315,-4.2898,-4.3556,-4.5355,-4.5603,-4.564,-4.5682,-4.5657,-4.5558,-4.5448,-4.5243,-4.5015,-4.4757,-4.4411,-4.418,-4.402,-4.4005,-4.3929,-4.3771,-4.3422,-4.2776,-4.1761,-4.0569,-3.9827,-3.9543,-3.8801,-3.8134,-3.7473,-3.7244,-3.659,-3.56,-3.4927,-3.4374,-3.3899,-3.3361,-3.3032,-3.287,-3.2676,-3.2578,-3.2551,-3.2425,-3.2398,-3.2398,-3.2398,-3.2398,-3.2398,-3.2398,-3.2398,-3.2398,-3.2398,-3.2398,-3.2355,-3.2167,-3.1806,-3.1351,-3.0835,-3.0068,-2.9376,-2.9105,-2.8724,-2.846,-2.8509,-2.8522,-2.849,-2.83,-2.8268,-2.8249,-2.8112,-2.8112,-2.8112,-2.8112,-2.8112,-2.8112,-2.8112,-2.8183,-2.8268,-2.8268,-2.8164,-2.8079,-2.8046,-2.8046,-2.7967,-2.7776,-2.7756,-2.7689,-2.749,-2.749,-2.749,-2.749,-2.749,-2.749,-2.749,-2.8064,-2.8521,-2.8828,-2.9031,-2.9063,-2.2626,-2.2579,-2.2613,-2.2791,-2.406,-2.5382,-2.5791,-2.8563,-3.1162,-3.1494,-3.3179,-3.5144,-3.7019,-3.7547,-3.8821,-4.2334,-4.2953,-4.3609,-4.5426,-4.5693,-4.5682,-4.5711,-4.5692,-4.564,-4.5571,-4.5381,-4.5159,-4.4879,-4.4608,-4.4358,-4.4184,-4.407,-4.3862,-4.3566,-4.245,-4.1569,-4.0985,-3.9781,-3.9068,-3.8767,-3.8025,-3.7633,-3.7456,-3.6732,-3.6156,-3.5728,-3.5062,0.0,-3.4176,-3.3529,-3.3123,-3.287,-3.2676,-3.2523,-3.2425,-3.2425,-3.2398,-3.2398,-3.2398,-3.2398,-3.2398,-3.2398,-3.2398,-3.2398,-3.2398,-3.2398,-3.2299,-3.1908,-3.1583,-3.1176,-3.0416,-2.9438,-2.8615,-2.8666,-2.8125,-2.7709,-2.8103,-2.8177,-2.8177,-2.8131,-2.8131,-2.8145,-2.8112,-2.8112,-2.8112,-2.8112,-2.8112,-2.8112,-2.8112,-2.8112,-2.8131,-2.8131,-2.8112,-2.8033,-2.7855,-2.7855,-2.7756,-2.7556,-2.7556,-2.7523,-2.749,-2.749,-2.749,-2.749,-2.749,-2.749,-2.749,-2.7941,-2.8092,-2.8033,-2.851,-2.8433,-2.2725,-2.2672,-2.2762,-2.3171,-2.4309,-2.5507,-2.6271,-2.8913,-3.131,-3.1688,-3.3326,-3.5272,-3.7157,-3.7613,-3.8722,-4.1829,-4.2736,-4.3517,-4.485,-4.5406,-4.5711,-4.575,-4.5758,-4.5731,-4.5708,-4.5547,-4.5342,-4.5074,-4.4739,-4.4449,-4.4214,-4.4011,-4.358,-4.2907,-4.196,-4.1038,-4.0185,-3.8975,-3.8269,-3.803,-3.7232,-3.687,-3.6853,-3.6401,-3.6036,-3.5773,-3.5091,-3.4586,-3.4151,-3.3477,-3.3016,-3.2746,-3.2551,-3.2453,-3.2398,-3.2398,-3.2398,-3.2398,-3.2398,-3.2398,-3.2398,-3.2398,-3.2398,-3.2398,-3.2398,-3.2367,-3.2226,-3.1949,-3.1452,-3.0895,-3.0258,-2.9147,-2.8216,-2.8392,-2.8099,-2.7817,-2.8059,-2.8112,-2.8079,-2.7967,-2.7921,-2.7901,-2.7802,-2.7802,-2.7802,-2.7802,-2.7802,-2.7802,-2.7802,-2.7802,-2.7835,-2.7934,-2.7835,-2.7736,-2.7656,-2.7656,-2.759,-2.749,-2.749,-2.749,-2.749,-2.749,-2.749,-2.749,-2.749,-2.749,-2.749,-2.7608,-2.7722,-2.7783,-2.788,-2.778,-2.2928,-2.2951,-2.3175,-2.3794,-2.4787,-2.5901,-2.6908,-2.9331,-3.1494,-3.1877,-3.3492,-3.541,-3.7299,-3.7703,-3.8637,-4.1373,-4.2548,-4.3435,-4.4314,-4.5198,-4.5761,-4.5817,-4.5824,-4.5824,-4.581,-4.5703,-4.5522,-4.5243,-4.4649,-4.4177,-4.3904,-4.3691,-4.3109,-4.2081,-4.1343,-4.0445,-3.9408,-3.819,-3.7492,-3.7275,-3.6632,-3.6301,-3.6301,-3.6229,-3.6058,-3.5817,-3.5178,-3.4634,-3.4126,-3.345,-3.2973,-3.2648,-3.2453,-3.2398,-3.2398,-3.2398,-3.2398,-3.2398,-3.2398,-3.2398,-3.2398,-3.237,-3.237,-3.237,-3.2367,-3.2266,-3.2124,-3.1944,-3.1364,-3.0657,-3.0005,-2.8839,-2.781,-2.7816,-2.7899,-2.798,-2.798,-2.798,-2.7901,-2.7756,-2.7756,-2.7689,-2.7523,-2.749,-2.749,-2.749,-2.749,-2.749,-2.749,-2.749,-2.7556,-2.7723,-2.759,-2.749,-2.749,-2.749,-2.749,-2.749,-2.749,-2.749,-2.749,-2.749,-2.749,-2.749,-2.749,-2.749,-2.7469,-2.7268,-2.7284,-2.7465,-2.7135,-2.693,-2.332,-2.3552,-2.4073,-2.4077,-2.538,-2.6766,-2.7185,-2.9502,-3.1693,-3.2096,-3.3668,-3.5569,-3.7441,-3.7846,-3.8766,-4.1458,-4.2616,-4.3515,-4.4453,-4.5338,-4.588,-4.5893,-4.5899,-4.5886,-4.5893,-4.5769,-4.5582,-4.5322,-4.4071,-4.3203,-4.2939,-4.2851,-4.2308,-4.1236,-4.0102,-3.923,-3.8692,-3.7484,-3.6792,-3.6586,-3.6377,-3.6301,-3.6301,-3.6229,-3.6122,-3.5954,-3.5458,-3.4947,0.0,-3.3745,-3.3229,-3.2843,-3.2523,-3.2398,-3.2398,-3.2398,-3.2398,-3.2398,-3.2398,-3.2398,-3.237,-3.2274,-3.2219,-3.2231,-3.2223,-3.2112,-3.1959,-3.1645,-3.1176,-3.0518,-2.932,-2.81,-2.7026,-2.6361,-2.6895,-2.757,-2.757,-2.757,-2.757,-2.7523,-2.7523,-2.7523,-2.749,-2.749,-2.749,-2.749,-2.749,-2.749,-2.749,-2.749,-2.749,-2.7523,-2.749,-2.749,-2.749,-2.749,-2.749,-2.749,-2.749,-2.749,-2.749,-2.749,-2.749,-2.749,-2.749,-2.7436,-2.7302,-2.693,-2.6602,-2.6355,-2.6081,-2.5751,-2.3653,-2.3874,-2.4489,-2.4953,-2.6029,-2.7341,-2.8719,-3.0452,-3.2024,-3.293,-3.422,-3.5733,-3.7579,-3.7976,-3.8728,-4.0894,-4.2376,-4.3395,-4.3826,-4.5053,-4.5893,-4.5905,-4.5911,-4.5905,-4.5893,-4.5814,-4.5373,-4.4473,-4.368,-4.2725,-4.1491,-4.1772,-4.149,-4.0454,-3.9698,-3.8851,-3.795,-3.7189,-3.6708,-3.6502,-3.6364,-3.628,-3.6251,-3.6144,-3.6014,-3.5861,-3.5389,-3.497,0.0,-3.3899,-3.3372,-3.3005,-3.2633,-3.2453,-3.2398,-3.233,-3.2274,-3.2274,-3.2191,-3.2163,-3.2135,-3.2094,-3.2025,-3.1981,-3.2074,-3.199,-3.1851,-3.1707,-3.1249,-3.0552,-2.9489,-2.8342,-2.7321,-2.6683,-2.713,-2.7656,-2.7523,-2.749,-2.749,-2.749,-2.749,-2.749,-2.749,-2.749,-2.749,-2.749,-2.749,-2.749,-2.749,-2.749,-2.749,-2.749,-2.749,-2.749,-2.749,-2.749,-2.749,-2.749,-2.749,-2.749,-2.749,-2.749,-2.749,-2.749,-2.749,-2.7436,-2.7302,-2.6897,-2.6487,-2.6002,-2.5552,-2.5048,-2.4422,-2.4725,-2.5458,-2.578,-2.6746,-2.8094,-2.9915,-3.1174,-3.2324,-3.3539,-3.4617,-3.589,-3.7718,-3.8099,-3.8754,-4.0549,-4.2247,-4.3383,-4.3455,-4.4896,-4.5964,-4.5964,-4.5958,-4.5947,-4.5941,-4.5815,-4.5222,-4.3954,-4.3312,-4.2269,-4.0653,-4.0684,-4.0414,-3.9669,-3.9268,-3.8576,-3.7578,-3.711,-3.6771,-3.6544,-3.6381,-3.6255,-3.6204,-3.6058,-3.5927,-3.5773,-3.5389,-3.5018,0.0,-3.405,-3.3529,-3.3069,-3.273,-3.2496,-3.2315,-3.2247,-3.2163,-3.2122,-3.2038,-3.1996,-3.1996,-3.194,-3.1898,-3.1798,-3.1851,-3.1781,-3.1726,-3.1726,-3.1115,-3.0205,-2.9069,-2.8279,-2.7615,-2.7046,-2.7367,-2.7756,-2.7523,-2.749,-2.749,-2.749,-2.749,-2.749,-2.749,-2.749,-2.749,-2.749,-2.749,-2.749,-2.749,-2.749,-2.749,-2.749,-2.749,-2.749,-2.749,-2.749,-2.749,-2.749,-2.749,-2.749,-2.749,-2.749,-2.7503,-2.7436,-2.7436,-2.7289,-2.7019,-2.6645,-2.6176,-2.5606,-2.4993,-2.4383,-2.5739,-2.6352,-2.7258,-2.6404,-2.7554,-2.9174,-3.0329,-3.143,-3.254,-3.3743,-3.4733,-3.5965,-3.7858,-3.825,-3.8874,-4.0624,-4.2363,-4.3514,-4.3599,-4.5043,-4.6093,-4.6093,-4.6095,-4.6066,-4.6002,-4.5754,-4.5164,-4.4085,-4.2895,-4.1763,-4.0757,-3.964,-3.8972,-3.8825,-3.8621,-3.8252,-3.7703,-3.7299,-3.697,-3.6702,-3.6423,-3.6255,-3.6204,-3.6058,-3.5927,-3.5795,-3.5566,-3.5198,0.0,-3.425,-3.3694,-3.3069,-3.273,-3.2441,-3.2191,-3.2191,-3.2122,-3.1996,-3.1996,-3.1996,-3.1968,-3.1841,-3.1798,-3.1768,-3.1553,-3.1496,-3.1511,-3.1511,-3.063,-2.9348,-2.7724,-2.7611,-2.7727,-2.7078,-2.7367,-2.7756,-2.7523,-2.749,-2.749,-2.749,-2.749,-2.749,-2.749,-2.749,-2.749,-2.749,-2.749,-2.749,-2.749,-2.749,-2.749,-2.749,-2.749,-2.749,-2.749,-2.749,-2.749,-2.749,-2.749,-2.749,-2.749,-2.749,-2.7436,-2.7302,-2.7302,-2.7019,-2.6414,-2.6072,-2.5606,-2.4981,-2.4238,-2.3604,-2.6842,-2.7221,-2.7855,-2.7609,-2.8471,-2.9804,-3.1467,-3.2205,-3.3012,-3.4684,-3.5765,-3.6804,-3.804,-3.8814,-3.9634,-4.0785,-4.2436,-4.3576,-4.36,-4.5032,-4.6098,-4.6098,-4.6095,-4.6056,-4.5947,-4.5265,-4.4383,-4.3264,-4.2069,-4.0933,-3.9864,-3.9291,-3.895,-3.8881,-3.8572,-3.8269,-3.7915,-3.7466,-3.7085,-3.6768,-3.6464,-3.6233,-3.6058,-3.591,-3.5778,-3.5644,-3.556,-3.5291,-3.4947,-3.4448,-3.3899,-3.3319,-3.2807,-3.2425,-3.2163,-3.1996,-3.1898,-3.1841,-3.1712,-3.1655,-3.1581,-3.1082,-3.0915,-3.0831,-3.0355,-3.0821,-3.1377,-3.0844,-3.0276,-2.9639,-2.875,-2.8386,-2.8195,-2.7924,-2.7919,-2.7901,-2.757,-2.749,-2.749,-2.749,-2.749,-2.749,-2.749,-2.749,-2.749,-2.749,-2.749,-2.749,-2.749,-2.749,-2.749,-2.749,-2.749,-2.749,-2.749,-2.749,-2.749,-2.749,-2.749,-2.749,-2.749,-2.749,-2.7436,-2.7302,-2.7302,-2.7066,-2.6598,-2.6267,-2.5535,-2.4431,-2.3922,-2.3446,-2.7961,-2.8233,-2.8723,-2.8491,-2.912,-3.0284,-3.2157,-3.2703,-3.3346,-3.5197,-3.6327,-3.7258,-3.8171,-3.9104,-4.0129,-4.1325,-4.2719,-4.3757,-4.4085,-4.5299,-4.6138,-4.6142,-4.6113,-4.6066,-4.5953,-4.5093,-4.4068,-4.2925,-4.1736,-4.0601,-3.9489,-3.9156,-3.8964,-3.8892,-3.8637,-3.8352,-3.8001,-3.7577,-3.7166,-3.6731,-3.6426,-3.6174,-3.591,-3.5839,-3.5728,-3.56,-3.5549,-3.5383,0.0,-3.457,-3.4025,-3.345,-3.2846,-3.2425,-3.2094,-3.187,-3.159,-3.1308,-3.1179,-3.0957,-3.0705,-3.0301,-3.0145,-3.0078,-2.9714,-3.0153,-3.0623,-2.9803,-2.9596,-2.9403,-2.8584,-2.8275,-2.8063,-2.7692,-2.7528,-2.7303,-2.6948,-2.685,-2.685,-2.685,-2.7033,-2.721,-2.721,-2.7392,-2.749,-2.749,-2.749,-2.749,-2.749,-2.749,-2.749,-2.749,-2.749,-2.749,-2.749,-2.749,-2.749,-2.749,-2.749,-2.7503,-2.7436,-2.7436,-2.7302,-2.6952,-2.6952,-2.6714,-2.6151,-2.5664,-2.4933,-2.397,-2.3629,-2.3298,0.0,-2.9429,-2.9867,-2.9171,-2.9666,-3.0785,-3.2605,-3.3059,0.0,-3.5359,-3.6502,-3.7449,-3.8254,-3.9215,-4.0441,-4.2134,-4.3124,-4.3993,-4.4883,-4.5689,-4.6195,-4.6203,-4.6142,-4.6041,-4.5929,-4.5059,-4.4042,-4.2896,-4.1752,-4.0639,-3.9557,-3.9183,-3.8964,-3.8892,-3.8765,-3.8483,-3.8036,-3.7632,-3.7156,-3.6565,-3.6319,-3.6041,-3.5749,-3.5778,-3.5728,-3.56,-3.56,-3.5418,-3.5065,-3.4667,-3.4101,-3.3435,-3.2819,-3.2342,-3.1968,-3.1796,-3.1189,-3.0492,-3.0447,-3.0073,-2.9597,-2.954,-2.952,-2.9452,-2.9452,-2.9528,-2.9445,-2.8648,-2.8746,-2.8812,-2.7565,-2.7471,-2.7485,-2.6708,-2.6417,-2.6215,-2.5887,-2.5793,-2.5793,-2.5793,-2.6242,-2.6654,-2.6654,-2.7092,-2.7438,-2.7438,-2.7477,-2.749,-2.749,-2.749,-2.749,-2.749,-2.749,-2.749,-2.749,-2.749,-2.749,-2.749,-2.749,-2.7436,-2.7302,-2.7302,-2.7019,-2.6427,-2.638,-2.6,-2.5312,-2.4575,-2.4007,-2.3641,-2.3409,-2.3187,-3.021,0.0,-3.1243,-3.1128,-3.1787,-3.2768,0.0,-3.4175,-3.452,-3.5638,-3.7097,-3.8237,-3.8441,-3.9757,-4.1147,-4.2225,-4.3136,-4.4001,-4.4873,-4.5694,-4.6195,-4.6203,-4.6138,-4.5825,-4.5152,-4.4192,-4.3149,-4.2063,-4.0941,-4.0076,-3.9587,-3.921,-3.8964,-3.8892,-3.8765,-3.8549,-3.8223,-3.7233,-3.6541,-3.615,-3.5682,-3.5332,-3.5113,-3.5479,-3.5622,-3.56,-3.56,-3.5481,-3.5222,-3.4707,-3.4068,-3.3351,-3.2711,-3.2191,-3.1752,-3.1069,-3.067,-3.0432,-2.9968,-2.9722,-2.9538,-2.9003,-2.8495,-2.8081,-2.8081,-2.8801,-2.9465,-2.8745,-2.8815,-2.8868,-2.7855,-2.7641,-2.7544,-2.6889,-2.6509,-2.6215,-2.5887,-2.5793,-2.5793,-2.5793,-2.5897,-2.602,-2.602,-2.6491,-2.6883,-2.6883,-2.7249,-2.749,-2.749,-2.749,-2.749,-2.749,-2.749,-2.749,-2.749,-2.749,-2.749,-2.749,-2.749,-2.7436,-2.7302,-2.7302,-2.71,-2.6645,-2.6245,-2.5781,-2.5312,-2.473,-2.4225,-2.3824,-2.3482,-2.3187,-3.1112,-3.1524,-3.1856,-3.1886,-3.2565,-3.3468,-3.435,-3.4606,-3.4995,-3.6237,-3.7554,-3.8628,-3.9023,-4.0526,-4.1971,-4.2846,-4.373,-4.4601,-4.5464,-4.5974,-4.6228,-4.6206,-4.5809,-4.5344,-4.4856,-4.3557,-4.2486,-4.1836,-4.0734,-3.9953,-3.967,-3.9285,-3.9036,-3.8892,-3.8412,-3.8031,-3.7744,-3.7009,-3.6202,-3.536,-3.494,-3.4599,-3.4324,-3.4486,-3.4585,-3.4585,-3.4585,-3.4492,-3.4242,-3.371,-3.3121,-3.2501,-3.1778,-3.1274,-3.0903,-3.0306,-2.9894,-2.9579,-2.925,-2.8943,-2.8624,-2.826,-2.7893,-2.76,-2.76,-2.8109,-2.8618,-2.8233,-2.8226,-2.8139,-2.744,-2.711,-2.6806,-2.613,-2.5733,-2.5419,-2.5101,-2.501,-2.501,-2.501,-2.5249,-2.5432,-2.5432,-2.5903,-2.6373,-2.6667,-2.6935,-2.7236,-2.7464,-2.749,-2.749,-2.749,-2.749,-2.749,-2.749,-2.749,-2.749,-2.749,-2.7436,-2.7335,-2.718,-2.6998,-2.6645,-2.6082,-2.5548,-2.5123,-2.4778,-2.4213,-2.3824,-2.3641,-2.3298,-2.3113,-3.1776,-3.2118,-3.2255,-3.2375,-3.3051,-3.388,-3.462,-3.4943,-3.548,-3.6908,-3.7988,-3.8902,-3.9668,-4.1228,-4.2695,-4.3569,-4.4547,-4.5466,-4.6207,-4.6195,-4.6087,-4.6014,-4.5228,-4.4627,-4.4444,-4.302,-4.1997,-4.1728,-4.077,-4.0015,-3.9539,-3.9201,-3.8859,-3.8541,-3.7732,-3.7116,-3.6757,-3.6546,-3.577,-3.4497,-3.4161,-3.381,-3.3441,-3.3397,-3.3406,-3.3406,-3.3385,0.0,-3.3054,-3.2517,-3.1994,-3.1485,-3.0699,-3.0215,-2.994,-2.9582,-2.9086,-2.8592,-2.8472,-2.8094,-2.76,-2.76,-2.76,-2.76,-2.76,-2.76,-2.76,-2.76,-2.7499,-2.7284,-2.6814,-2.6392,-2.5921,-2.5174,-2.4806,-2.4505,-2.4171,-2.4083,-2.4083,-2.4083,-2.4504,-2.4861,-2.4861,-2.5315,-2.589,-2.6452,-2.6654,-2.6883,-2.7425,-2.749,-2.749,-2.749,-2.749,-2.749,-2.749,-2.749,-2.749,-2.749,-2.7403,-2.7248,-2.7024,-2.6577,-2.6047,-2.5347,-2.479,-2.4418,-2.42,-2.3593,-2.3298,-2.3298,-2.3075,-2.3001,-3.1855,-3.2611,-3.3351,-3.4101,-3.4902,-3.5547,-3.5664,-3.6288,-3.689,-3.714,-3.8434,-3.9562,-3.976,-4.1213,-4.2692,-4.3569,-4.5058,-4.6143,-4.6284,-4.5654,-4.5178,-4.5119,-4.434,-4.351,-4.2755,-4.2373,-4.1793,-4.0879,-4.0476,-3.9814,-3.8738,-3.8371,-3.7777,-3.6897,-3.6628,-3.6065,-3.5155,-3.4911,-3.4507,-3.4001,-3.3453,-3.3018,-3.2775,-3.3202,-3.3406,-3.3385,0.0,-3.3244,-3.3054,-3.2459,-3.1869,-3.1291,-3.0649,-3.0162,-2.9735,-2.9019,-2.8682,-2.8517,-2.7959,-2.769,-2.76,-2.76,-2.76,-2.76,-2.76,-2.76,-2.76,-2.76,-2.7499,-2.7284,-2.6814,-2.6392,-2.5921,-2.5174,-2.4806,-2.4505,-2.4171,-2.4083,-2.4083,-2.4083,-2.4178,-2.4243,-2.4243,-2.4726,-2.5301,-2.5863,-2.636,-2.6883,-2.7425,-2.749,-2.749,-2.749,-2.749,-2.749,-2.749,-2.749,-2.749,-2.749,-2.7503,-2.7335,-2.7024,-2.6499,-2.6015,-2.5571,-2.4981,-2.4527,-2.42,-2.3593,-2.3298,-2.3298,-2.3075,-2.3001,-3.2386,-3.3042,-3.3667,-3.5006,-3.5628,-3.6012,-3.6502,-3.6882,-3.7412,-3.8356,-3.9151,-3.9831,-4.0301,-4.1841,-4.3507,-4.4875,-4.5781,-4.6145,-4.5659,-4.5242,-4.4803,-4.4317,-4.3457,-4.2744,-4.2342,-4.1814,-4.1265,-4.0701,-4.0031,-3.9334,-3.8591,-3.7788,-3.7091,-3.6528,-3.5915,-3.5347,-3.4859,-3.4192,-3.3671,-3.3253,-3.2721,-3.2321,-3.207,-3.2173,-3.2165,-3.2103,0.0,-3.1955,-3.1766,-3.1298,-3.0836,-3.0305,-2.9652,-2.9189,-2.8859,-2.8287,-2.8064,-2.8019,-2.7705,-2.76,-2.76,-2.76,-2.76,-2.76,-2.76,-2.76,-2.76,-2.76,-2.7549,-2.7412,-2.6974,-2.6539,-2.6001,-2.5272,-2.4835,-2.4505,-2.4171,-2.4083,-2.4083,-2.4083,-2.4083,-2.4083,-2.4083,-2.4596,-2.5188,-2.5702,-2.6308,-2.6883,-2.7425,-2.749,-2.749,-2.749,-2.749,-2.749,-2.749,-2.749,-2.7469,-2.7403,-2.7302,-2.7066,-2.6679,-2.6258,-2.5793,-2.5276,-2.4707,-2.425,-2.3861,-2.3372,-2.315,-2.315,-2.3038,-2.3001,-3.284,-3.3287,-3.3699,-3.541,-3.6015,-3.6362,-3.7013,-3.7439,-3.8056,-3.9408,-3.9836,-4.0174,-4.0816,-4.2237,-4.3849,-4.5429,-4.5683,-4.5463,-4.4781,-4.4516,-4.4135,-4.3478,-4.2574,-4.1993,-4.1992,-4.1153,-4.0533,-4.0404,-3.9425,-3.8593,-3.8047,-3.7065,-3.6335,-3.5919,-3.5129,-3.4655,-3.4599,-3.3786,-3.3165,-3.2734,-3.2214,-3.1859,-3.1579,-3.1291,-3.1112,-3.0995,-3.0955,-3.0834,-3.0671,-3.0295,-2.9935,-2.9544,-2.8818,-2.8374,-2.8088,-2.7896,-2.7833,-2.7867,-2.8008,-2.8068,-2.8043,-2.7874,-2.7839,-2.7809,-2.7645,-2.76,-2.76,-2.76,-2.76,-2.7499,-2.7093,-2.6686,-2.6149,-2.5425,-2.4977,-2.4578,-2.4216,-2.4157,-2.4128,-2.4112,-2.4083,-2.4083,-2.4083,-2.4596,-2.5188,-2.5702,-2.6308,-2.6831,-2.7275,-2.7294,-2.7242,-2.7111,-2.7098,-2.7098,-2.7098,-2.7098,-2.7117,-2.7161,-2.7103,-2.6897,-2.6577,-2.6164,-2.5676,-2.5075,-2.4503,-2.4007,-2.3593,-2.3187,-2.3001,-2.3001,-2.3001,-2.3001,-3.2845,-3.3253,-3.3615,-3.5296,-3.637,-3.7023,-3.7086,-3.8306,-3.9455,-3.9572,-4.0248,-4.0854,-4.096,-4.1802,-4.2796,-4.373,-4.3885,-4.3876,-4.3805,-4.3092,-4.2555,-4.2503,-4.1655,-4.1094,-4.1097,-4.0239,-3.9636,-3.9496,-3.8563,-3.7485,-3.6346,-3.5897,-3.5224,-3.4214,-3.393,-3.3762,-3.3692,-3.3429,-3.3135,-3.2797,-3.2248,-3.1859,-3.1579,-3.1193,-3.0995,-3.0995,-3.0794,-3.0712,-3.0651,-3.021,-2.9848,-2.9544,-2.8943,-2.8334,-2.7886,-2.8353,-2.853,-2.8631,-2.9229,-2.9456,-2.9362,-2.8734,-2.8532,-2.8412,-2.7794,-2.76,-2.76,-2.76,-2.76,-2.7499,-2.7093,-2.6724,-2.6283,-2.5577,-2.5175,-2.4863,-2.4379,-2.4292,-2.4247,-2.4112,-2.4083,-2.4083,-2.4083,-2.4596,-2.5188,-2.5702,-2.6308,-2.6719,-2.6758,-2.6771,-2.653,-2.5976,-2.591,-2.591,-2.591,-2.591,-2.6177,-2.67,-2.707,-2.7167,-2.6977,-2.6452,-2.5873,-2.5276,-2.4575,-2.4007,-2.3593,-2.3187,-2.3001,-2.3001,-2.3001,-2.3001,-3.2836,-3.3273,-3.3666,-3.5346,-3.6848,-3.7894,-3.7855,-3.8714,-3.9693,-4.0232,-4.0615,-4.1039,-4.17,-4.2095,-4.263,-4.3554,-4.3709,-4.3505,-4.2964,-4.2618,-4.2195,-4.1661,-4.076,-4.0193,-4.0198,-3.9339,-3.8747,-3.867,-3.767,-3.6815,-3.6188,-3.534,-3.4621,-3.4074,-3.3834,-3.3657,-3.3605,-3.3393,-3.3104,-3.2732,-3.2248,-3.1859,-3.1579,-3.1176,-3.0935,-3.0814,-3.0733,-3.0651,-3.0568,-3.0253,-2.9957,-2.9639,-2.8842,-2.822,-2.7866,-2.8386,-2.8595,-2.8687,-2.9372,-2.9593,-2.9558,-2.931,-2.9205,-2.916,-2.8933,-2.8843,-2.8843,-2.8843,-2.8843,-2.8611,-2.7547,-2.6933,-2.6484,-2.5947,-2.5467,-2.5033,-2.4679,-2.445,-2.4292,-2.4218,-2.4157,-2.4083,-2.4083,-2.4883,-2.5576,-2.5754,-2.6608,-2.7079,-2.6745,-2.6706,-2.6452,-2.5845,-2.5793,-2.5793,-2.5793,-2.5793,-2.6073,-2.6667,-2.672,-2.6873,-2.7154,-2.6645,-2.6117,-2.5676,-2.4921,-2.4274,-2.3787,-2.3372,-2.3113,-2.3001,-2.3001,-2.3001,-3.2914,-3.349,-3.4078,-3.5758,-3.7273,-3.8428,-3.8636,-3.9312,-4.0087,-4.0685,-4.0839,-4.1077,-4.1766,-4.1908,-4.2123,-4.2773,-4.2888,-4.2664,-4.2062,-4.1753,-4.1367,-4.0752,-3.9867,-3.9295,-3.9284,-3.8437,-3.7854,-3.7781,-3.679,-3.6072,-3.5808,-3.4918,-3.4293,-3.4049,-3.3807,-3.3633,-3.3534,-3.3334,-3.3057,-3.2653,-3.2179,-3.1822,-3.1542,-3.1114,-3.0834,-3.0692,-3.0651,-3.0572,-3.0468,-3.0274,-2.9957,-2.9499,-2.8732,-2.8192,-2.7966,-2.8659,-2.8907,-2.9039,-2.9907,-3.0201,-3.0163,-2.9939,-2.9864,-2.9834,-2.9666,-2.9606,-2.9606,-2.9606,-2.9606,-2.937,-2.8368,-2.7786,-2.7372,-2.6953,-2.6414,-2.5879,-2.5359,-2.4932,-2.4575,-2.4361,-2.4203,-2.4083,-2.4083,-2.4909,-2.5615,-2.5767,-2.6648,-2.7118,-2.6758,-2.6549,-2.6112,-2.5336,-2.5258,-2.5258,-2.5258,-2.5258,-2.5524,-2.613,-2.618,-2.6524,-2.7175,-2.6748,-2.6289,-2.5828,-2.5087,-2.4443,-2.3897,-2.3482,-2.3187,-2.3001,-2.3001,-2.3001,-3.3089,-3.3891,-3.4891,-3.6576,-3.7652,-3.8514,-3.9315,-4.0164,-4.0807,-4.0807,-4.0893,-4.0995,-4.0989,-4.1031,-4.1082,-4.1093,-4.109,-4.1102,-4.1097,-4.0342,-3.9799,-3.9794,-3.8958,-3.8389,-3.8391,-3.7545,-3.6957,-3.6887,-3.5904,-3.5179,-3.4908,-3.4586,-3.4245,-3.3908,-3.3698,-3.3534,-3.3393,-3.3211,-3.293,-3.2588,-3.2126,-3.1765,-3.1466,-3.0938,-3.0692,-3.0692,-3.0568,-3.0506,-3.0468,-3.0274,-2.9776,-2.9068,-2.8659,-2.8287,-2.8122,-2.9217,-2.9603,-2.9779,-3.105,-3.1496,-3.1391,-3.0731,-3.0507,-3.0402,-2.9789,-2.9636,-2.9636,-2.9636,-2.9636,-2.9636,-2.9636,-2.9362,-2.9016,-2.861,-2.814,-2.7493,-2.6431,-2.577,-2.5196,-2.444,-2.4216,-2.4083,-2.4083,-2.4596,-2.5201,-2.5702,-2.6321,-2.6706,-2.6693,-2.6164,-2.5349,-2.4213,-2.4083,-2.4083,-2.4083,-2.4083,-2.436,-2.4966,-2.5511,-2.6155,-2.696,-2.6794,-2.6371,-2.5606,-2.5016,-2.4443,-2.3897,-2.3482,-2.3187,-2.3001,-2.3001,-2.3001,-3.3891,-3.4422,-3.4971,-3.6647,-3.7735,-3.8582,-3.9392,-4.0217,-4.0798,-4.0801,-4.0379,-4.0042,-4.0145,-4.0173,-4.0202,-4.0254,-4.0737,-4.0884,-4.0268,-3.9958,-3.9565,-3.8956,-3.8105,-3.7537,-3.7493,-3.6634,-3.6035,-3.5925,-3.5535,-3.5193,-3.4908,-3.4542,-3.4221,-3.3972,-3.3684,-3.3495,-3.3393,-3.3211,-3.2914,-3.2523,-3.2091,-3.1711,-3.1334,-3.0898,-3.0651,-3.0568,-3.0526,-3.0506,-3.0468,-3.0177,-2.9738,-2.919,-2.8811,-2.8444,-2.8225,-2.8804,-2.9292,-2.9719,-3.0524,-3.1092,-3.1466,-3.1271,-3.1197,-3.1167,-3.0972,-3.0928,-3.0928,-3.0928,-3.0928,-3.0928,-3.0928,-3.0856,-3.0447,-2.9095,-2.8354,-2.7794,-2.7233,-2.6215,-2.5345,-2.5113,-2.455,-2.4083,-2.4083,-2.4922,-2.5628,-2.5767,-2.6615,-2.6987,-2.6177,-2.5576,-2.4936,-2.4174,-2.4083,-2.4083,-2.4083,-2.4083,-2.436,-2.4966,-2.5511,-2.6087,-2.6778,-2.6994,-2.6897,-2.6371,-2.5816,-2.5135,-2.4311,-2.3922,-2.3482,-2.3001,-2.3001,-2.3001,-3.4402,-3.5158,-3.5947,-3.7286,-3.8272,-3.9118,-3.9892,-4.0449,-4.0709,-4.0394,-3.9961,-3.9571,-3.9327,-3.9271,-3.9319,-3.9374,-3.9784,-3.9914,-3.9358,-3.8986,-3.8571,-3.8052,-3.7193,-3.6616,-3.6541,-3.6018,-3.561,-3.5502,-3.535,-3.5132,-3.487,-3.448,-3.4148,-3.3881,-3.3619,-3.3393,-3.3244,-3.3104,-3.2852,-3.2489,-3.2038,-3.1638,-3.1276,-3.0878,-3.063,-3.0506,-3.0506,-3.0468,-3.0443,-3.0236,-2.987,-2.9418,-2.9059,-2.8677,-2.8327,-2.8723,-2.9196,-2.9696,-3.0283,-3.0748,-3.1092,-3.1092,-3.0928,-3.0761,-3.0761,-3.0761,-3.0761,-3.0761,-3.0913,-3.1092,-3.1092,-3.1273,-3.1113,-2.9941,-2.9232,-2.8632,-2.7917,-2.6911,-2.5957,-2.5432,-2.4866,-2.4387,-2.4122,-2.4883,-2.5563,-2.5754,-2.6759,-2.7085,-2.5936,-2.572,-2.5371,-2.4543,-2.4661,-2.4792,-2.4792,-2.4583,-2.4596,-2.4979,-2.5288,-2.5746,-2.6321,-2.6953,-2.7053,-2.6611,-2.6141,-2.5465,-2.4587,-2.4213,-2.3714,-2.3113,-2.3113,-2.3075,-3.4805,-3.5994,-3.7408,-3.8218,-3.9058,-3.9876,-4.0537,-4.0624,-4.0374,-3.973,-3.9524,-3.9229,-3.8511,-3.8387,-3.8391,-3.8473,-3.8535,-3.8534,-3.8407,-3.7704,-3.7164,-3.7079,-3.632,-3.5769,-3.5693,-3.5637,-3.557,-3.5507,-3.5289,-3.5081,-3.4793,-3.4401,-3.4036,-3.3698,-3.3477,-3.3259,-3.2979,-3.2932,-3.2755,-3.249,-3.1984,-3.1582,-3.1295,-3.0878,-3.063,-3.0506,-3.0506,-3.0464,-3.0401,-3.0396,-3.0141,-2.9681,-2.9418,-2.8959,-2.8473,-2.8814,-2.9184,-2.9592,-3.0133,-3.0372,-3.0417,-3.0417,-3.0043,-2.9606,-2.9606,-2.9606,-2.9606,-2.9606,-3.0028,-3.0507,-3.0507,-3.0902,-3.1219,-3.0851,-3.0417,-2.9728,-2.8549,-2.7718,-2.6822,-2.5589,-2.5161,-2.4848,-2.4347,-2.47,-2.528,-2.5811,-2.6759,-2.7007,-2.5858,-2.6242,-2.6209,-2.5123,-2.5484,-2.5793,-2.5793,-2.5341,-2.507,-2.507,-2.5123,-2.5354,-2.5845,-2.6778,-2.7002,-2.6496,-2.6141,-2.5571,-2.4791,-2.4431,-2.3934,-2.3335,-2.3298,-2.3187,-3.5527,-3.6479,-3.7463,-3.8274,-3.9039,-3.9664,-3.982,-3.9295,-3.8918,-3.9472,-3.8525,-3.7556,-3.7497,-3.7479,-3.7503,-3.758,-3.8101,-3.8281,-3.7576,-3.7326,-3.6937,-3.619,-3.5924,-3.5741,-3.5629,-3.5548,-3.5489,-3.5427,-3.5245,-3.4982,-3.4663,-3.4255,-3.3908,-3.3633,-3.3313,-3.3088,-3.2916,-3.29,-3.2739,-3.2422,-3.2144,-3.182,-3.1447,-3.0918,-3.063,-3.0506,-3.0506,-3.0452,-3.0393,-3.0396,-3.0162,-2.9782,-2.9659,-2.9213,-2.8621,-2.8565,-2.8718,-2.8974,-2.9019,-2.934,-2.9774,-2.9774,-2.9711,-2.9606,-2.9606,-2.9606,-2.9606,-2.9606,-3.0028,-3.0507,-3.0507,-3.0902,-3.119,-3.0762,-3.0251,-2.9687,-2.9059,-2.8017,-2.7062,-2.6633,-2.57,-2.5097,-2.5362,-2.5532,-2.5837,-2.6431,-2.6732,-2.647,-2.5332,-2.5654,-2.5746,-2.507,-2.5484,-2.5793,-2.5793,-2.5675,-2.5641,-2.5641,-2.6059,-2.6392,-2.6491,-2.6694,-2.6901,-2.7087,-2.6726,-2.6164,-2.5418,-2.4874,-2.4227,-2.353,-2.3372,-2.3187,-3.5879,-3.6932,-3.8213,-3.939,-3.9669,-3.9634,-3.9602,-3.8576,-3.7763,-3.8255,-3.7633,-3.6913,-3.6635,-3.6579,-3.6584,-3.6618,-3.7013,-3.7144,-3.6699,-3.6609,-3.6393,-3.5901,-3.5783,-3.5694,-3.5574,-3.5527,-3.5449,-3.5312,-3.5143,-3.4917,-3.4628,-3.4191,-3.3663,-3.2998,-3.2616,-3.2212,-3.1711,-3.1635,-3.1703,-3.1876,-3.1603,-3.1401,-3.1252,-3.0875,-3.063,-3.0506,-3.0506,-3.0489,-3.0452,-3.0443,-3.0312,-3.0065,-2.9908,-2.9486,-2.8943,-2.8581,-2.8624,-2.8863,-2.867,-2.8831,-2.9116,-2.9116,-2.8918,-2.8648,-2.8648,-2.8648,-2.8648,-2.8648,-2.9337,-3.0058,-3.0058,-3.0622,-3.1117,-3.0791,-3.0251,-2.9654,-2.9071,-2.8265,-2.7487,-2.7016,-2.6317,-2.5829,-2.5793,-2.6046,-2.6334,-2.6654,-2.6706,-2.6392,-2.5484,-2.5876,-2.6112,-2.5842,-2.6295,-2.6602,-2.6602,-2.6386,-2.6229,-2.6229,-2.6242,-2.6386,-2.6693,-2.6706,-2.6883,-2.7289,-2.6985,-2.653,-2.5886,-2.5264,-2.4587,-2.3897,-2.3593,-2.3298,-3.5995,-3.7167,-3.8739,-4.0203,-3.9913,-3.9245,-3.9189,-3.7948,-3.6783,-3.6783,-3.6775,-3.6589,-3.5997,-3.5882,-3.5908,-3.5904,-3.5838,-3.5785,-3.5779,-3.5595,-3.5453,-3.5437,-3.5327,-3.5259,-3.5263,-3.5258,-3.523,-3.5198,-3.5046,-3.485,-3.4612,-3.4018,-3.3235,-3.2296,-3.176,-3.111,-3.0376,-3.0243,-3.0482,-3.1064,-3.0716,-3.0601,-3.0628,-3.0426,-3.0414,-3.0506,-3.0506,-3.0506,-3.0506,-3.0506,-3.0464,-3.0375,-3.0124,-2.9754,-2.9266,-2.8764,-2.8679,-2.8824,-2.8542,-2.8453,-2.8427,-2.8427,-2.8064,-2.76,-2.76,-2.76,-2.76,-2.76,-2.8573,-2.9606,-2.9606,-3.0355,-3.1073,-3.0881,-3.0342,-2.9716,-2.9012,-2.8509,-2.7965,-2.7233,-2.6947,-2.6648,-2.6009,-2.6406,-2.6759,-2.6622,-2.6609,-2.6368,-2.5795,-2.6225,-2.6609,-2.6609,-2.7097,-2.7436,-2.7469,-2.7059,-2.6817,-2.685,-2.6373,-2.6334,-2.6837,-2.685,-2.6987,-2.7323,-2.7154,-2.6803,-2.6289,-2.5699,-2.504,-2.4298,-2.3849,-2.3446,-3.5984,-3.6718,-3.769,-3.8609,-3.817,-3.7525,-3.7452,-3.666,-3.5964,-3.5964,-3.5916,-3.5863,-3.5814,-3.5861,-3.5898,-3.5908,-3.5325,-3.4868,-3.4862,-3.4163,-3.3634,-3.3579,-3.3483,-3.3699,-3.4308,-3.4325,-3.4546,-3.5152,-3.4963,-3.4742,-3.4528,-3.3401,-3.2569,-3.2137,-3.1133,-3.0452,-3.0229,-3.015,-3.0106,-3.0079,-2.9747,-2.9434,-2.9175,-2.903,-2.9536,-3.0506,-3.0506,-3.0506,-3.0506,-3.0506,-3.0464,-3.038,-3.0231,-2.9886,-2.9425,-2.8997,-2.8628,-2.8274,-2.8001,-2.7836,-2.7735,-2.7735,-2.7675,-2.76,-2.76,-2.76,-2.76,-2.76,-2.8573,-2.9606,-2.9606,-3.044,-3.1219,-3.1029,-3.0583,-3.0068,-2.9373,-2.8849,-2.8411,-2.8005,-2.765,-2.717,-2.6447,-2.6822,-2.6984,-2.6282,-2.6173,-2.5967,-2.5435,-2.5858,-2.6173,-2.6173,-2.6699,-2.7146,-2.7302,-2.7271,-2.7252,-2.7385,-2.7307,-2.7307,-2.7372,-2.7385,-2.7425,-2.7456,-2.7335,-2.7053,-2.6645,-2.6107,-2.5418,-2.4612,-2.4093,-2.3629,-3.6394,-3.6985,-3.748,-3.8297,-3.7833,-3.7197,-3.7169,-3.6489,-3.5853,-3.5803,-3.5803,-3.5803,-3.5795,-3.5466,-3.5176,-3.5164,-3.4498,-3.3959,-3.3924,-3.3539,-3.3212,-3.3149,-3.3083,-3.3138,-3.3382,-3.3358,-3.3402,-3.3617,-3.3524,-3.3325,-3.3063,-3.2305,-3.1519,-3.0771,-3.0058,-2.9437,-2.8911,-2.8772,-2.8809,-2.9068,-2.9214,-2.9104,-2.8775,-2.8609,-2.8807,-2.9317,-2.932,-2.932,-2.9317,-2.9317,-2.9529,-2.9815,-2.9645,-2.9658,-2.9716,-2.9113,-2.8669,-2.8326,-2.7925,-2.77,-2.76,-2.76,-2.76,-2.76,-2.76,-2.76,-2.76,-2.76,-2.8573,-2.9606,-2.9606,-3.044,-3.1278,-3.119,-3.0807,-3.0387,-3.0099,-2.9355,-2.8527,-2.7901,-2.757,-2.7258,-2.6824,-2.6945,-2.692,-2.6197,-2.6107,-2.6017,-2.5774,-2.5953,-2.6235,-2.6568,-2.6824,-2.7045,-2.7113,-2.7113,-2.7146,-2.7214,-2.7214,-2.7214,-2.7214,-2.7214,-2.7214,-2.7214,-2.7335,-2.7235,-2.6875,-2.6418,-2.5721,-2.4862,-2.4322,-2.3787,-3.6174,-3.6732,-3.7081,-3.7714,-3.7381,-3.6897,-3.6909,-3.6377,-3.5886,-3.5833,-3.5702,-3.5569,-3.5509,-3.5004,-3.4525,-3.4334,-3.3583,-3.3105,-3.328,-3.3047,-3.2896,-3.3026,-3.2794,-3.2654,-3.274,-3.2489,-3.2338,-3.2396,-3.2353,-3.2193,-3.1882,-3.1315,-3.058,-2.9697,-2.9126,-2.8494,-2.783,-2.765,-2.773,-2.8077,-2.8442,-2.8454,-2.8109,-2.7914,-2.7819,-2.7822,-2.819,-2.8362,-2.8398,-2.8412,-2.8787,-2.936,-2.8997,-2.923,-2.9637,-2.8812,-2.8302,-2.7992,-2.7531,-2.7384,-2.7395,-2.7345,-2.7465,-2.76,-2.76,-2.76,-2.76,-2.76,-2.8573,-2.9606,-2.9606,-3.0468,-3.1351,-3.1351,-3.1029,-3.0642,-3.0357,-2.9498,-2.8578,-2.7756,-2.7436,-2.7201,-2.6977,-2.6909,-2.6756,-2.6256,-2.6192,-2.6192,-2.6192,-2.6192,-2.6357,-2.6837,-2.6875,-2.6875,-2.6909,-2.6909,-2.6956,-2.699,-2.699,-2.699,-2.699,-2.699,-2.699,-2.699,-2.7235,-2.7201,-2.6909,-2.6577,-2.5965,-2.5123,-2.4563,-2.3995,-3.4681,-3.5331,-3.5995,-3.6099,-3.6092,-3.6054,-3.6065,-3.5971,-3.5896,-3.5906,-3.5286,-3.4747,-3.4677,-3.4633,-3.4344,-3.3583,-3.2675,-3.2359,-3.3176,-3.2481,-3.2121,-3.2837,-3.2116,-3.1855,-3.2538,-3.1811,-3.1596,-3.2343,-3.2213,-3.2023,-3.1816,-3.0751,-2.9982,-2.9616,-2.8596,-2.7921,-2.7617,-2.7485,-2.7329,-2.717,-2.7077,-2.6843,-2.6518,-2.6385,-2.6257,-2.6204,-2.7604,-2.8284,-2.8396,-2.8398,-2.8787,-2.933,-2.855,-2.8571,-2.8925,-2.7795,-2.7115,-2.6754,-2.632,-2.6487,-2.6832,-2.6696,-2.7091,-2.76,-2.76,-2.76,-2.76,-2.76,-2.8573,-2.9606,-2.9606,-3.0552,-3.1511,-3.1511,-3.1278,-3.0762,-2.9623,-2.9075,-2.861,-2.7908,-2.7523,-2.7167,-2.6782,-2.6726,-2.6645,-2.6483,-2.6483,-2.6483,-2.6483,-2.6483,-2.6496,-2.6521,-2.6533,-2.6602,-2.6679,-2.6726,-2.6794,-2.699,-2.699,-2.699,-2.699,-2.699,-2.699,-2.699,-2.7024,-2.6909,-2.6726,-2.6496,-2.6117,-2.5535,-2.4933,-2.4371,-3.363,-3.4264,-3.4954,-3.5069,-3.5515,-3.5947,-3.5995,-3.5975,-3.5969,-3.595,-3.5284,-3.4524,-3.3944,-3.3374,-3.2904,-3.2617,-3.2245,-3.2087,-3.2318,-3.2391,-3.2487,-3.2629,-3.2305,-3.1925,-3.1558,-3.1192,-3.0893,-3.0612,-3.0546,-3.0399,-3.0208,-2.9655,-2.9174,-2.8828,-2.8205,-2.7733,-2.7467,-2.7423,-2.7296,-2.7103,-2.6975,-2.6708,-2.6401,-2.6256,-2.6122,-2.6036,-2.6566,-2.6862,-2.6987,-2.7,-2.7412,-2.8009,-2.7646,-2.784,-2.827,-2.7563,-2.7068,-2.6717,-2.6258,-2.6122,-2.6139,-2.6006,-2.6408,-2.6971,-2.6971,-2.727,-2.76,-2.76,-2.8573,-2.9606,-2.9606,-3.0552,-3.1467,-3.138,-3.1249,-3.0821,-2.9839,-2.9293,-2.872,-2.7789,-2.7335,-2.6977,-2.6624,-2.6555,-2.6555,-2.6499,-2.6499,-2.6499,-2.6499,-2.6499,-2.6499,-2.6499,-2.6499,-2.6521,-2.6555,-2.6555,-2.6589,-2.6671,-2.6671,-2.6671,-2.6671,-2.6671,-2.6671,-2.6671,-2.6671,-2.6705,-2.6679,-2.6496,-2.6117,-2.5571,-2.5123,-2.4671,-3.2612,-3.3277,-3.3971,-3.4068,-3.477,-3.5459,-3.5507,-3.5755,-3.5975,-3.5993,-3.5077,-3.4081,-3.3508,-3.2435,-3.1731,-3.2029,-3.199,-3.2078,-3.2512,-3.2878,-3.3142,-3.3237,-3.2911,-3.242,-3.171,-3.1136,-3.0544,-2.9949,-2.9649,-2.9419,-2.924,-2.8998,-2.8682,-2.8282,-2.7908,-2.7585,-2.7392,-2.7392,-2.7312,-2.7117,-2.7039,-2.6842,-2.6504,-2.6347,-2.618,-2.605,-2.602,-2.6079,-2.6202,-2.6202,-2.6634,-2.7265,-2.6941,-2.7158,-2.7594,-2.6957,-2.6495,-2.6136,-2.5648,-2.5507,-2.5492,-2.5332,-2.5869,-2.6587,-2.6587,-2.7076,-2.76,-2.76,-2.8573,-2.9606,-2.9606,-3.0552,-3.1467,-3.1322,-3.1234,-3.094,-3.0085,-2.9481,-2.8766,-2.7723,-2.7248,-2.6875,-2.6568,-2.6499,-2.6499,-2.6499,-2.6499,-2.6499,-2.6499,-2.6499,-2.6499,-2.6499,-2.6499,-2.6499,-2.6499,-2.6499,-2.6499,-2.6499,-2.6499,-2.6499,-2.6499,-2.6499,-2.6499,-2.6499,-2.6499,-2.6521,-2.6624,-2.6508,-2.6233,-2.5793,-2.5453,-2.5028,0.0,0.0,0.0,-3.3048,-3.3771,-3.4477,-3.4579,-3.5245,-3.5882,-3.5968,-3.4623,-3.343,-3.3432,-3.1977,-3.1054,-3.1913,-3.1934,-3.2366,-3.3872,-3.3872,-3.3959,-3.461,-3.3874,-3.327,-3.3112,-3.161,-3.0607,-3.0505,-2.9768,-2.9266,-2.9119,-2.8905,-2.8549,-2.8028,-2.7677,-2.7483,-2.7392,-2.7392,-2.7343,-2.7197,-2.7197,-2.7037,-2.6708,-2.6504,-2.6343,-2.6204,-2.6074,-2.6081,-2.6202,-2.6202,-2.6617,-2.7199,-2.6485,-2.6506,-2.6864,-2.594,-2.5339,-2.4926,-2.4482,-2.46,-2.4932,-2.4695,-2.5486,-2.6572,-2.6587,-2.7051,-2.76,-2.76,-2.8547,-2.9579,-2.9624,-3.0554,-3.1453,-3.1322,-3.1278,-3.1073,-3.0282,-2.9588,-2.8798,-2.7723,-2.7248,-2.6909,-2.6568,-2.6499,-2.6499,-2.6499,-2.6499,-2.6499,-2.6499,-2.6499,-2.6499,-2.6499,-2.6499,-2.6499,-2.6499,-2.6499,-2.6499,-2.6499,-2.6499,-2.6499,-2.6499,-2.6499,-2.6499,-2.6499,-2.6499,-2.6499,-2.6499,-2.6499,-2.6396,-2.6213,-2.598,-2.55,-3.0538,0.0,0.0,0.0,0.0,0.0,-3.4299,-3.4685,-3.5061,-3.5671,-3.4944,-3.4188,-3.4123,-3.3196,-3.2662,-3.3335,-3.2931,-3.284,-3.375,-3.4139,-3.4358,-3.433,-3.4022,-3.3525,-3.2816,-3.2318,-3.1581,-3.0436,-3.0148,-2.9757,-2.9126,-2.8767,-2.8401,-2.7996,-2.7721,-2.7542,-2.7465,-2.7423,-2.7407,-2.7434,-2.7373,-2.7246,-2.7053,-2.6791,-2.6622,-2.647,-2.6307,-2.6206,-2.6202,-2.6202,-2.6318,-2.6485,-2.6286,-2.6193,-2.6159,-2.5801,-2.5397,-2.4946,-2.4564,-2.4378,-2.431,-2.453,-2.5126,-2.5816,-2.6307,-2.6867,-2.7295,-2.7295,-2.8243,-2.9472,-3.0435,-3.0953,-3.119,-3.1161,-3.1029,-3.0777,-3.0221,-2.9775,-2.9117,-2.7941,-2.7469,-2.7066,-2.6602,-2.6499,-2.6499,-2.6499,-2.6499,-2.6499,-2.6499,-2.6499,-2.6499,-2.6499,-2.6499,-2.6499,-2.6499,-2.6499,-2.6499,-2.6499,-2.6499,-2.6499,-2.6499,-2.6499,-2.6499,-2.6499,-2.6499,-2.6499,-2.6499,-2.6339,-2.6236,-2.6213,-2.598,-2.5688,-3.1107,-3.1257,-3.1415,-3.1507,0.0,0.0,-3.3097,-3.3548,-3.3968,-3.4444,-3.4138,-3.378,-3.3741,-3.3249,-3.3071,-3.3723,-3.3374,-3.3285,-3.4081,-3.4372,-3.4424,-3.4161,-3.3998,-3.3671,-3.3085,-3.271,-3.2138,-3.1242,-3.0571,-2.9849,-2.903,-2.8712,-2.8406,-2.8095,-2.7821,-2.763,-2.7542,-2.7513,-2.7513,-2.7542,-2.7524,-2.7463,-2.7324,-2.7053,-2.6809,-2.6619,-2.6398,-2.6259,-2.6202,-2.6202,-2.6202,-2.6202,-2.6202,-2.6079,-2.5917,-2.5756,-2.5454,-2.5064,-2.4686,-2.4317,-2.4095,-2.4551,-2.5007,-2.553,-2.6204,-2.6766,-2.7207,-2.7207,-2.811,-2.9407,-3.0763,-3.1117,-3.1117,-3.1117,-3.1014,-3.0791,-3.0282,-2.9991,-2.9449,-2.8222,-2.7756,-2.7323,-2.6782,-2.6658,-2.6555,-2.6499,-2.6499,-2.6499,-2.6499,-2.6499,-2.6499,-2.6499,-2.6499,-2.6499,-2.6499,-2.6499,-2.6499,-2.6499,-2.6499,-2.6499,-2.6499,-2.6499,-2.6499,-2.6499,-2.6499,-2.6499,-2.6499,-2.6361,-2.6339,-2.6339,-2.6188,-2.605,-3.2462,-3.1998,-3.1489,-3.1394,-3.1417,0.0,-3.1539,-3.2159,-3.2748,-3.2835,-3.2799,-3.275,-3.2743,-3.2591,-3.2695,-3.343,-3.3379,-3.3575,-3.4509,-3.4458,-3.4233,-3.3972,-3.3834,-3.3684,-3.3563,-3.2897,-3.2443,-3.2365,-3.0951,-2.9716,-2.8852,-2.8687,-2.851,-2.8242,-2.7975,-2.7774,-2.7647,-2.7632,-2.7617,-2.76,-2.7657,-2.7644,-2.7509,-2.7261,-2.6989,-2.6725,-2.6452,-2.6277,-2.6203,-2.6203,-2.6202,-2.6202,-2.6202,-2.6115,-2.5974,-2.5793,-2.5549,-2.5256,-2.4811,-2.441,-2.42,-2.4752,-2.5136,-2.5545,-2.6278,-2.68,-2.7196,-2.7244,-2.8057,-2.9248,-3.0601,-3.094,-3.0955,-3.1029,-3.1043,-3.0925,-3.0417,-3.0221,-2.9777,-2.8675,-2.8124,-2.7676,-2.7175,-2.6918,-2.6726,-2.6589,-2.6555,-2.6521,-2.6521,-2.6499,-2.6499,-2.6499,-2.6499,-2.6499,-2.6499,-2.6499,-2.6499,-2.6499,-2.6499,-2.6499,-2.6499,-2.6499,-2.6499,-2.6499,-2.6499,-2.6499,-2.6499,-2.6499,-2.6499,-2.6499,-2.6499,-2.6396,-3.226,-3.2194,-3.1975,-3.1319,-3.1174,0.0,-3.1253,-3.1417,-3.1737,-3.2439,-3.2523,-3.2447,-3.2412,-3.2314,-3.2458,-3.309,-3.3071,-3.3283,-3.4174,-3.4086,-3.3847,-3.3615,-3.3481,-3.3349,-3.3208,-3.3067,-3.2718,-3.2126,-3.0802,-2.9654,-2.8852,-2.8773,-2.8662,-2.844,-2.8242,-2.8067,-2.7911,-2.7763,-2.7672,-2.7672,-2.7701,-2.7686,-2.7657,-2.7432,-2.7231,-2.699,-2.6691,-2.6435,-2.6279,-2.6222,-2.6202,-2.6202,-2.6202,-2.6115,-2.6008,-2.5956,-2.5698,-2.5339,-2.5088,-2.469,-2.4418,-2.5379,-2.5565,-2.561,-2.6712,-2.7041,-2.7106,-2.7511,-2.7777,-2.8257,-2.9566,-2.99,-3.0032,-3.0571,-3.0702,-3.0612,-3.0357,-3.0282,-3.0099,-2.9623,-2.8803,-2.8091,-2.7709,-2.739,-2.7167,-2.7134,-2.6863,-2.6658,-2.6658,-2.6555,-2.6499,-2.6499,-2.6499,-2.6499,-2.6499,-2.6499,-2.6499,-2.6499,-2.6499,-2.6499,-2.6499,-2.6499,-2.6499,-2.6499,-2.6499,-2.6499,-2.6499,-2.6499,-2.6499,-2.6499,-2.6499,-2.6499,-3.3248,-3.3002,-3.2642,-3.2248,-3.1864,0.0,0.0,-3.1014,-3.1005,-3.1042,-3.1271,-3.1439,-3.1408,-3.1613,-3.1901,-3.2156,-3.2397,-3.2669,-3.3012,-3.3378,-3.3508,-3.3283,-3.3132,-3.3136,-3.3385,-3.3064,-3.259,-3.1954,-3.1396,-3.0597,-2.946,-2.946,-2.9247,-2.8712,-2.8505,-2.8335,-2.8201,-2.7993,-2.7879,-2.785,-2.785,-2.785,-2.7836,-2.7617,-2.7373,-2.7119,-2.6808,-2.6522,-2.628,-2.624,-2.6202,-2.6202,-2.6202,-2.6383,-2.6594,-2.6122,-2.6001,-2.6015,-2.5293,-2.4751,-2.4569,-2.5613,-2.5693,-2.5625,-2.691,-2.7144,-2.7109,-2.7642,-2.775,-2.7913,-2.8898,-2.9377,-2.9668,-3.0031,-3.035,-3.0538,-3.0357,-3.0282,-3.0235,-2.9991,-2.9467,-2.8885,-2.8384,-2.8039,-2.7756,-2.7556,-2.739,-2.7188,-2.7032,-2.693,-2.6829,-2.6624,-2.6589,-2.6555,-2.6499,-2.6499,-2.6499,-2.6499,-2.6499,-2.6499,-2.6499,-2.6499,-2.6499,-2.6499,-2.6499,-2.6499,-2.6499,-2.6499,-2.6499,-2.6499,-2.6499,-2.6499,-3.4209,-3.3778,-3.331,-3.312,-3.266,-3.2002,0.0,0.0,0.0,-2.9698,-2.9893,-3.0213,-3.0183,-3.0567,-3.0907,-3.0996,-3.1383,-3.1733,-3.1828,-3.2508,-3.2991,-3.2925,-3.2782,-3.2867,-3.337,-3.2875,-3.2336,-3.1791,-3.1992,-3.1592,-3.0303,-3.0216,-2.9886,-2.9178,-2.884,-2.8594,-2.8435,-2.8246,-2.8099,-2.8028,-2.8014,-2.8014,-2.8,-2.7751,-2.7509,-2.726,-2.6919,-2.6623,-2.6367,-2.6258,-2.6202,-2.6202,-2.6202,-2.6651,-2.7197,-2.6418,-2.6498,-2.687,-2.5671,-2.5031,-2.488,-2.5734,-2.5912,-2.599,-2.7075,-2.7222,-2.7158,-2.7615,-2.7669,-2.7721,-2.8388,-2.8985,-2.945,-2.9566,-3.0103,-3.0568,-3.0387,-3.0357,-3.0326,-3.0233,-3.0021,-2.9716,-2.9107,-2.8707,-2.8384,-2.8105,-2.7973,-2.7809,-2.7503,-2.7369,-2.7201,-2.6782,-2.6714,-2.6658,-2.6499,-2.6499,-2.6499,-2.6499,-2.6499,-2.6499,-2.6499,-2.6499,-2.6499,-2.6499,-2.6499,-2.6499,-2.6499,-2.6499,-2.6499,-2.6499,-2.6499,-2.6499,-3.3868,-3.3873,-3.3703,-3.2884,-3.2742,-3.24,-3.0813,0.0,-3.0298,-2.9421,0.0,-2.9138,-2.9092,0.0,0.0,-2.9873,-2.9873,-3.0234,-3.1449,-3.1588,-3.1808,-3.2567,-3.2421,-3.2301,-3.2372,-3.2354,-3.2155,-3.1653,-3.1828,-3.1682,-3.1081,-3.0521,-3.0178,-3.0145,-2.9318,-2.8767,-2.8576,-2.8375,-2.8205,-2.8085,-2.8042,-2.8014,-2.7982,-2.785,-2.7704,-2.7542,-2.7192,-2.6905,-2.664,-2.6396,-2.6253,-2.6202,-2.6202,-2.6651,-2.7263,-2.705,-2.7347,-2.7702,-2.6555,-2.5887,-2.5611,-2.5969,-2.6576,-2.7193,-2.7357,-2.7299,-2.7196,-2.727,-2.7169,-2.7226,-2.7839,-2.84,-2.8927,-2.9465,-3.0103,-3.0598,-3.0568,-3.0568,-3.0568,-3.0552,-3.0387,-3.0129,-2.9747,-2.9404,-2.9121,-2.899,-2.8656,-2.8287,-2.7973,-2.7656,-2.7356,-2.7007,-2.6816,-2.6658,-2.6499,-2.6499,-2.6499,-2.6499,-2.6499,-2.6499,-2.6499,-2.6499,-2.6499,-2.6499,-2.6499,-2.6499,-2.6499,-2.6499,-2.6499,-2.6499,-2.6499,-2.6499,-3.3484,-3.3522,-3.3392,-3.2575,-3.2486,-3.2199,-3.0648,-3.0309,-3.0088,-2.9262,0.0,0.0,0.0,0.0,0.0,0.0,-2.9118,-2.9467,-3.0064,-3.0746,-3.1459,-3.2213,-3.2214,-3.2108,-3.1965,-3.2474,-3.2599,-3.2049,-3.2351,-3.2328,-3.1851,-3.1304,-3.0861,-3.0546,-2.9632,-2.9033,-2.8821,-2.8632,-2.8445,-2.8259,-2.825,-2.8219,-2.8201,-2.7638,-2.7536,-2.7725,-2.6968,-2.6741,-2.6841,-2.6504,-2.6311,-2.6253,-2.622,-2.6651,-2.723,-2.6634,-2.6836,-2.7248,-2.6029,-2.5417,-2.5259,-2.5749,-2.6425,-2.7121,-2.7419,-2.7412,-2.731,-2.731,-2.7222,-2.7239,-2.7776,-2.8353,-2.8953,-2.9479,-3.0103,-3.0598,-3.0598,-3.0598,-3.0598,-3.0598,-3.0538,-3.0447,-3.0282,-2.9991,-2.9713,-2.9543,-2.9293,-2.9022,-2.867,-2.8235,-2.7776,-2.7356,-2.7032,-2.6773,-2.6521,-2.6499,-2.6499,-2.6499,-2.6499,-2.6499,-2.6499,-2.6499,-2.6499,-2.6499,-2.6499,-2.6499,-2.6499,-2.6499,-2.6499,-2.6499,-2.6499,-2.6499,-3.3144,-3.3031,-3.2766,-3.2177,-3.1999,-3.1624,-3.0337,-3.0082,-2.9862,-2.9064,-2.8761,0.0,0.0,0.0,-2.8635,-2.884,0.0,-2.9115,-2.9311,-3.0144,-3.101,-3.1742,-3.1969,-3.2001,-3.1893,-3.2523,-3.2878,-3.2738,-3.2925,-3.3028,-3.3008,-3.2322,-3.1638,-3.106,-3.0137,-2.9462,-2.9067,-2.8851,-2.8644,-2.8445,-2.8216,-2.8083,-2.8052,-2.7192,-2.7004,-2.7297,-2.6443,-2.6355,-2.6775,-2.6385,-2.6268,-2.6308,-2.6257,-2.6536,-2.6949,-2.6418,-2.667,-2.7101,-2.5889,-2.5278,-2.5087,-2.5513,-2.6196,-2.691,-2.727,-2.7415,-2.7437,-2.7437,-2.7494,-2.7602,-2.7954,-2.8622,-2.9314,-2.9609,-3.0177,-3.0642,-3.0598,-3.0598,-3.0598,-3.0598,-3.0598,-3.0598,-3.0598,-3.0401,-3.0158,-2.9976,-2.9806,-2.9602,-2.9289,-2.8785,-2.8222,-2.7689,-2.7335,-2.6977,-2.6589,-2.6555,-2.6521,-2.6499,-2.6499,-2.6499,-2.6499,-2.6499,-2.6499,-2.6499,-2.6499,-2.6499,-2.6499,-2.6499,-2.6499,-2.6499,-2.6499,-2.6499,-3.2948,-3.2442,-3.19,-3.1662,-3.1225,-3.0656,-2.9882,-2.9781,-2.958,-2.8775,-2.8562,-2.8706,-2.9353,-2.9362,-2.9504,-3.0213,-2.9538,0.0,0.0,-2.9892,-3.0157,-3.1026,-3.1603,-3.1966,-3.2073,-3.2179,-3.2669,-3.3769,-3.3373,-3.3608,-3.4753,-3.35,-3.2476,-3.1868,-3.1016,-3.0123,-2.9207,-2.8998,-2.8798,-2.8569,-2.7741,-2.73,-2.7207,-2.6404,-2.6008,-2.5952,-2.5644,-2.583,-2.6291,-2.5891,-2.5998,-2.6383,-2.633,-2.6258,-2.6301,-2.6852,-2.7449,-2.782,-2.6823,-2.6064,-2.5544,-2.5376,-2.6016,-2.6901,-2.685,-2.718,-2.76,-2.76,-2.7961,-2.8363,-2.8393,-2.9208,-3.0012,-2.9928,-3.0353,-3.0762,-3.0642,-3.0598,-3.0598,-3.0598,-3.0598,-3.0598,-3.0598,-3.0598,-3.0507,-3.0312,-3.0158,-2.9958,-2.9634,-2.9103,-2.8578,-2.8039,-2.7689,-2.7255,-2.676,-2.6679,-2.6658,-2.6499,-2.6499,-2.6499,-2.6499,-2.6499,-2.6499,-2.6499,-2.6499,-2.6499,-2.6499,-2.6499,-2.6499,-2.6499,-2.6499,-2.6499,0.0,0.0,-3.0572,-3.0011,-2.9751,-2.9443,-2.8859,-2.9143,-2.9457,-2.9188,-2.9436,-2.9754,-2.9917,-2.9786,-2.9732,-3.0078,-2.9726,-2.9528,0.0,-3.0109,-3.0647,-3.1461,-3.1756,-3.1966,-3.209,-3.2318,-3.2891,-3.3957,-3.4114,-3.4397,-3.4926,-3.4188,-3.3182,-3.1989,-3.1163,-3.0253,-2.9289,-2.9149,-2.8998,-2.8779,-2.793,-2.7501,-2.7423,-2.6086,-2.5726,-2.6128,-2.5374,-2.5625,-2.6521,-2.6088,-2.62,-2.664,-2.6398,-2.6291,-2.6274,-2.6361,-2.65,-2.659,-2.6078,-2.5689,-2.5433,-2.5582,-2.6022,-2.6543,-2.6788,-2.7223,-2.76,-2.76,-2.7739,-2.8036,-2.8809,-2.9277,-2.977,-3.0513,-3.0852,-3.0955,-3.0762,-3.0732,-3.0702,-3.0612,-3.0598,-3.0598,-3.0598,-3.0598,-3.0568,-3.0507,-3.0249,-3.005,-2.9958,-2.9383,-2.883,-2.8444,-2.7987,-2.7477,-2.6939,-2.6337,-2.5954,-2.5921,-2.5561,-2.5372,-2.5372,-2.5372,-2.5372,-2.5372,-2.5711,-2.5887,-2.5921,-2.6311,-2.6499,-2.6499,-2.6499,-2.6499,-3.0198,-2.9924,0.0,-2.902,-2.8699,-2.8423,-2.8127,-2.8436,-2.8895,-2.9219,-2.952,-2.988,-3.0365,-3.0274,-3.0228,-3.0592,-3.0282,-2.9972,0.0,-3.0281,-3.0829,-3.1641,-3.1875,-3.2037,-3.2214,-3.2522,-3.328,-3.4647,-3.4773,-3.503,-3.5515,-3.5013,-3.4044,-3.2502,-3.1684,-3.0793,-2.9802,-2.9418,-2.9149,-2.8991,-2.7812,-2.7225,-2.7148,-2.552,-2.5022,-2.5434,-2.4732,-2.5159,-2.6375,-2.595,-2.6226,-2.689,-2.6589,-2.6399,-2.6278,-2.6134,-2.6209,-2.6369,-2.6164,-2.5972,-2.5773,-2.5663,-2.5811,-2.611,-2.6504,-2.6935,-2.735,-2.755,-2.7764,-2.8188,-2.9146,-2.9565,-2.9969,-3.0924,-3.1161,-3.1132,-3.0955,-3.0851,-3.0762,-3.0702,-3.0642,-3.0598,-3.0598,-3.0598,-3.0598,-3.0598,-3.0371,-3.0158,-3.0158,-2.9682,-2.9212,-2.8894,-2.843,-2.7782,-2.6845,-2.6067,-2.5523,-2.5335,-2.4976,-2.4788,-2.4788,-2.4788,-2.4788,-2.4788,-2.5146,-2.541,-2.5598,-2.5996,-2.6298,-2.6499,-2.6499,-2.6499]},{"header":{"parameterUnit":"m.s-1","parameterCategory":1,"la1":30.6,"la2":29.2853,"lo1":-89.7004,"lo2":-87.6739,"dy":0.0162,"dx":0.0183,"nx":112,"ny":82,"refTime":"2024-07-02T00:00:00:Z","depth":0,"parameterNumber":3,"parameterNumberName":"V-component_of_WINDS"},"data":[0.0,0.0,0.0,0.0,0.0,0.0,0.0,0.0,0.0,0.0,0.0,0.0,0.0,0.0,0.0,0.0,0.0,0.0,0.0,0.0,0.0,0.0,0.0,0.0,0.0,0.0,0.0,0.0,0.0,0.0,0.0,0.0,0.0,0.0,0.0,0.0,0.0,0.0,0.0,0.0,0.0,0.0,0.0,0.0,0.0,0.0,0.0,0.0,0.0,0.0,0.0,0.0,0.0,0.0,0.0,0.0,0.0,0.0,0.0,0.0,0.0,0.0,0.0,0.0,0.0,0.0,0.0,0.0,0.0,0.0,0.0,0.0,0.0,0.0,0.0,0.0,0.0,0.0,0.0,0.0,0.0,0.0,0.0,0.0,0.0,0.0,0.0,0.0,0.0,0.0,-2.0176,-2.0983,-2.1755,-2.2246,-2.2391,-2.2272,-2.2048,-2.1778,0.0,0.0,0.0,0.0,0.0,0.0,0.0,0.0,0.0,0.0,0.0,0.0,0.0,0.0,0.0,0.0,0.0,0.0,0.0,0.0,0.0,0.0,0.0,0.0,0.0,0.0,0.0,0.0,0.0,0.0,0.0,0.0,0.0,0.0,0.0,0.0,0.0,0.0,0.0,0.0,0.0,0.0,0.0,0.0,0.0,0.0,0.0,0.0,0.0,0.0,0.0,0.0,0.0,0.0,0.0,0.0,0.0,0.0,0.0,0.0,0.0,0.0,0.0,0.0,0.0,0.0,0.0,0.0,0.0,0.0,0.0,0.0,0.0,0.0,0.0,0.0,0.0,0.0,0.0,0.0,0.0,0.0,0.0,0.0,0.0,0.0,0.0,0.0,0.0,0.0,0.0,0.0,0.0,0.0,0.0,0.0,0.0,0.0,0.0,0.0,0.0,0.0,0.0,0.0,-2.1078,-2.2032,-2.2497,-2.2659,-2.2508,-2.2441,-2.2171,-2.1578,0.0,0.0,0.0,0.0,0.0,0.0,0.0,0.0,0.0,0.0,0.0,0.0,0.0,0.0,0.0,0.0,0.0,0.0,0.0,0.0,0.0,0.0,0.0,0.0,0.0,0.0,0.0,0.0,0.0,0.0,0.0,0.0,0.0,0.0,0.0,0.0,0.0,0.0,0.0,0.0,0.0,0.0,0.0,0.0,0.0,0.0,0.0,0.0,0.0,0.0,0.0,0.0,0.0,0.0,0.0,0.0,0.0,0.0,0.0,0.0,0.0,0.0,0.0,0.0,0.0,0.0,0.0,0.0,0.0,0.0,0.0,0.0,0.0,0.0,0.0,0.0,0.0,0.0,0.0,0.0,0.0,0.0,0.0,0.0,0.0,0.0,0.0,0.0,0.0,0.0,0.0,0.0,0.0,0.0,0.0,0.0,0.0,0.0,0.0,0.0,0.0,0.0,0.0,-2.1044,-2.1784,-2.2678,-2.2882,-2.2882,-2.2676,-2.2567,-2.2221,-2.1525,-2.0792,0.0,0.0,0.0,0.0,0.0,0.0,0.0,0.0,0.0,0.0,0.0,0.0,0.0,0.0,0.0,0.0,0.0,0.0,0.0,0.0,0.0,0.0,0.0,0.0,0.0,0.0,0.0,0.0,0.0,0.0,0.0,0.0,0.0,0.0,0.0,0.0,0.0,0.0,0.0,0.0,0.0,0.0,0.0,0.0,0.0,0.0,0.0,0.0,0.0,0.0,0.0,0.0,0.0,0.0,0.0,0.0,0.0,0.0,0.0,0.0,0.0,0.0,0.0,0.0,0.0,0.0,0.0,0.0,0.0,0.0,0.0,0.0,0.0,0.0,0.0,0.0,0.0,0.0,0.0,0.0,0.0,0.0,0.0,0.0,0.0,0.0,0.0,0.0,0.0,0.0,0.0,0.0,0.0,0.0,0.0,0.0,0.0,0.0,0.0,0.0,0.0,0.0,-2.1606,-2.2335,-2.304,-2.3207,-2.3136,-2.2814,-2.2673,-2.217,-2.1295,-2.0741,0.0,0.0,0.0,0.0,0.0,0.0,0.0,0.0,0.0,0.0,0.0,0.0,0.0,0.0,0.0,0.0,0.0,0.0,0.0,0.0,0.0,0.0,0.0,0.0,0.0,0.0,0.0,0.0,0.0,0.0,0.0,0.0,0.0,0.0,0.0,0.0,0.0,0.0,0.0,0.0,0.0,0.0,0.0,0.0,0.0,0.0,0.0,0.0,0.0,0.0,0.0,0.0,0.0,0.0,0.0,0.0,0.0,0.0,0.0,0.0,0.0,0.0,0.0,0.0,0.0,0.0,0.0,0.0,0.0,0.0,0.0,0.0,0.0,0.0,0.0,0.0,0.0,0.0,0.0,0.0,0.0,0.0,0.0,0.0,0.0,0.0,0.0,0.0,0.0,0.0,0.0,0.0,0.0,0.0,0.0,0.0,0.0,0.0,0.0,0.0,0.0,0.0,-2.1659,-2.2673,-2.3145,-2.3513,-2.3488,-2.2839,-2.2778,-2.2133,-2.0566,-2.0605,0.0,0.0,0.0,0.0,0.0,0.0,0.0,0.0,0.0,0.0,0.0,0.0,0.0,0.0,0.0,0.0,0.0,0.0,0.0,0.0,0.0,0.0,0.0,0.0,0.0,0.0,0.0,0.0,0.0,0.0,0.0,0.0,0.0,0.0,0.0,0.0,0.0,0.0,0.0,0.0,0.0,0.0,0.0,0.0,0.0,0.0,0.0,0.0,0.0,0.0,0.0,0.0,0.0,0.0,0.0,0.0,0.0,0.0,0.0,0.0,0.0,0.0,0.0,0.0,0.0,0.0,0.0,0.0,0.0,0.0,0.0,0.0,0.0,0.0,0.0,0.0,0.0,0.0,0.0,0.0,0.0,0.0,0.0,0.0,0.0,0.0,0.0,0.0,0.0,0.0,0.0,0.0,0.0,0.0,0.0,0.0,0.0,0.0,0.0,0.0,0.0,0.0,-2.1839,-2.2763,-2.3476,-2.3499,-2.3271,-2.2859,-2.2544,-2.1894,-2.077,0.0,0.0,0.0,0.0,0.0,0.0,0.0,0.0,0.0,0.0,0.0,0.0,0.0,0.0,0.0,0.0,0.0,0.0,0.0,0.0,0.0,0.0,0.0,0.0,0.0,0.0,0.0,0.0,0.0,0.0,0.0,0.0,0.0,0.0,0.0,0.0,0.0,0.0,0.0,0.0,0.0,0.0,0.0,0.0,0.0,0.0,0.0,0.0,0.0,0.0,0.0,0.0,0.0,0.0,0.0,0.0,0.0,0.0,0.0,0.0,0.0,0.0,0.0,0.0,0.0,0.0,0.0,0.0,0.0,0.0,0.0,0.0,0.0,0.0,0.0,0.0,0.0,0.0,0.0,0.0,0.0,0.0,0.0,0.0,0.0,0.0,0.0,0.0,0.0,0.0,0.0,0.0,0.0,0.0,0.0,0.0,0.0,0.0,0.0,0.0,0.0,0.0,-2.0832,-2.1874,-2.2747,-2.3314,-2.3285,-2.3094,-2.2807,-2.2468,-2.1959,-2.1236,0.0,0.0,0.0,0.0,0.0,0.0,0.0,0.0,0.0,0.0,0.0,0.0,0.0,0.0,0.0,0.0,0.0,0.0,0.0,0.0,0.0,0.0,0.0,0.0,0.0,0.0,0.0,0.0,0.0,0.0,0.0,0.0,0.0,0.0,0.0,0.0,0.0,0.0,0.0,0.0,0.0,0.0,0.0,0.0,0.0,0.0,0.0,0.0,0.0,0.0,0.0,0.0,0.0,0.0,0.0,0.0,0.0,0.0,0.0,0.0,0.0,0.0,0.0,0.0,0.0,0.0,0.0,0.0,0.0,0.0,0.0,0.0,0.0,0.0,0.0,0.0,0.0,0.0,0.0,0.0,0.0,0.0,0.0,0.0,0.0,0.0,0.0,0.0,0.0,0.0,0.0,0.0,0.0,0.0,0.0,0.0,0.0,0.0,0.0,0.0,0.0,0.0,-2.0379,-2.1642,-2.2501,-2.2501,-2.2915,-2.3048,-2.2741,-2.2686,-2.2448,0.0,0.0,0.0,0.0,0.0,0.0,0.0,0.0,0.0,0.0,0.0,0.0,0.0,0.0,0.0,0.0,0.0,0.0,0.0,0.0,0.0,0.0,0.0,0.0,0.0,0.0,0.0,0.0,0.0,0.0,0.0,0.0,0.0,0.0,0.0,0.0,0.0,0.0,0.0,0.0,0.0,0.0,0.0,0.0,0.0,0.0,0.0,0.0,0.0,0.0,0.0,0.0,0.0,0.0,0.0,0.0,0.0,0.0,0.0,0.0,0.0,0.0,0.0,0.0,0.0,0.0,0.0,0.0,0.0,0.0,0.0,0.0,0.0,0.0,0.0,0.0,0.0,0.0,0.0,0.0,0.0,0.0,0.0,0.0,0.0,0.0,0.0,0.0,0.0,0.0,0.0,0.0,0.0,0.0,0.0,0.0,0.0,0.0,0.0,0.0,0.0,0.0,0.0,-2.0814,-2.1838,-2.2625,-2.2946,-2.2912,-2.2795,-2.2707,-2.23,-2.1999,-2.1807,0.0,0.0,0.0,0.0,0.0,0.0,0.0,0.0,0.0,0.0,0.0,0.0,0.0,0.0,0.0,0.0,0.0,0.0,0.0,0.0,0.0,0.0,0.0,0.0,0.0,0.0,0.0,0.0,0.0,0.0,0.0,0.0,0.0,0.0,0.0,0.0,0.0,0.0,0.0,0.0,0.0,0.0,0.0,0.0,0.0,0.0,0.0,0.0,0.0,0.0,0.0,0.0,0.0,0.0,0.0,0.0,0.0,0.0,0.0,0.0,0.0,0.0,0.0,0.0,0.0,0.0,0.0,0.0,0.0,0.0,0.0,0.0,0.0,0.0,0.0,0.0,0.0,0.0,0.0,0.0,0.0,0.0,0.0,0.0,0.0,0.0,0.0,0.0,0.0,0.0,0.0,0.0,0.0,0.0,0.0,0.0,0.0,0.0,0.0,0.0,0.0,0.0,-2.0958,-2.1878,-2.2548,-2.278,-2.2628,-2.2478,-2.2328,-2.2006,-2.2077,-2.2731,0.0,0.0,0.0,0.0,0.0,0.0,0.0,0.0,0.0,0.0,0.0,0.0,0.0,0.0,0.0,0.0,0.0,0.0,0.0,0.0,0.0,0.0,0.0,0.0,0.0,0.0,0.0,0.0,0.0,0.0,0.0,0.0,0.0,0.0,0.0,0.0,0.0,0.0,0.0,0.0,0.0,0.0,0.0,0.0,0.0,0.0,0.0,0.0,0.0,0.0,0.0,0.0,0.0,0.0,0.0,0.0,0.0,0.0,0.0,0.0,0.0,0.0,0.0,0.0,0.0,0.0,0.0,0.0,0.0,0.0,0.0,0.0,0.0,0.0,0.0,0.0,0.0,0.0,0.0,0.0,0.0,0.0,0.0,0.0,0.0,0.0,0.0,0.0,0.0,0.0,0.0,0.0,0.0,0.0,0.0,0.0,0.0,0.0,0.0,0.0,0.0,0.0,-2.0913,-2.1865,-2.2381,-2.2264,-2.2189,-2.2078,-2.1834,-2.1929,-2.2702,-2.43,0.0,0.0,0.0,0.0,0.0,0.0,0.0,0.0,0.0,0.0,0.0,0.0,0.0,0.0,0.0,0.0,0.0,0.0,0.0,0.0,0.0,0.0,0.0,0.0,0.0,0.0,0.0,0.0,0.0,0.0,0.0,0.0,0.0,0.0,0.0,0.0,0.0,0.0,0.0,0.0,0.0,0.0,0.0,0.0,0.0,0.0,0.0,0.0,0.0,0.0,0.0,0.0,0.0,0.0,0.0,0.0,0.0,0.0,0.0,0.0,-1.4084,-1.4199,0.0,0.0,0.0,0.0,0.0,0.0,0.0,0.0,0.0,0.0,0.0,0.0,0.0,0.0,0.0,0.0,0.0,0.0,0.0,0.0,0.0,0.0,0.0,0.0,0.0,0.0,0.0,0.0,0.0,0.0,0.0,0.0,0.0,0.0,0.0,0.0,0.0,0.0,0.0,0.0,-2.1376,-2.2103,-2.2547,-2.253,-2.2131,-2.1871,-2.179,-2.2969,-2.4349,-2.5899,-2.4545,0.0,0.0,0.0,0.0,0.0,0.0,0.0,0.0,0.0,0.0,0.0,0.0,0.0,0.0,0.0,0.0,0.0,0.0,0.0,0.0,0.0,0.0,0.0,0.0,0.0,0.0,0.0,0.0,0.0,0.0,0.0,0.0,0.0,0.0,0.0,0.0,0.0,0.0,0.0,0.0,0.0,0.0,0.0,0.0,0.0,0.0,0.0,0.0,0.0,0.0,0.0,0.0,0.0,0.0,0.0,0.0,0.0,0.0,0.0,-1.4709,-1.466,0.0,0.0,0.0,0.0,0.0,0.0,0.0,0.0,0.0,0.0,0.0,0.0,0.0,0.0,0.0,0.0,0.0,0.0,0.0,0.0,0.0,0.0,0.0,0.0,0.0,0.0,0.0,0.0,0.0,0.0,0.0,0.0,0.0,0.0,0.0,0.0,0.0,0.0,0.0,0.0,-2.2093,-2.2599,-2.2911,-2.3068,-2.2648,-2.2691,-2.3421,-2.4582,-2.5331,-2.5333,-2.4553,0.0,0.0,0.0,0.0,0.0,0.0,0.0,0.0,0.0,0.0,0.0,0.0,0.0,0.0,0.0,0.0,0.0,0.0,0.0,0.0,0.0,0.0,0.0,0.0,0.0,0.0,0.0,0.0,0.0,0.0,0.0,0.0,0.0,0.0,0.0,0.0,0.0,0.0,0.0,0.0,0.0,0.0,0.0,0.0,0.0,0.0,0.0,0.0,0.0,0.0,0.0,0.0,0.0,-1.625,-1.6279,-1.5994,-1.5943,-1.5943,-1.5943,-1.5168,-1.5031,-1.545,-1.5763,0.0,0.0,0.0,0.0,0.0,0.0,0.0,0.0,0.0,0.0,0.0,0.0,0.0,0.0,0.0,0.0,0.0,0.0,0.0,0.0,0.0,0.0,-2.1396,-2.1886,-2.204,-2.1775,-2.0789,0.0,0.0,0.0,0.0,0.0,0.0,0.0,0.0,0.0,0.0,0.0,-2.2988,-2.332,-2.3541,-2.3675,-2.3386,-2.371,-2.4979,-2.5703,-2.5498,-2.4184,-2.4109,-2.4101,0.0,0.0,0.0,0.0,0.0,0.0,0.0,0.0,0.0,0.0,0.0,0.0,0.0,0.0,0.0,0.0,0.0,0.0,0.0,0.0,0.0,0.0,0.0,0.0,0.0,0.0,0.0,0.0,0.0,0.0,0.0,0.0,-0.9596,-0.9829,0.0,0.0,0.0,0.0,0.0,0.0,0.0,0.0,0.0,0.0,0.0,0.0,0.0,-1.5913,-1.622,-1.6309,-1.6353,-1.6309,-1.6389,-1.6389,-1.6345,-1.6038,-1.606,-1.6331,-1.6141,0.0,-1.6682,-1.6788,0.0,0.0,0.0,0.0,0.0,0.0,0.0,0.0,0.0,0.0,0.0,0.0,0.0,0.0,0.0,0.0,0.0,0.0,0.0,0.0,0.0,0.0,-2.2339,-2.2817,-2.2934,-2.3047,-2.352,-2.2783,-2.2008,-2.1772,-2.152,-2.1258,0.0,0.0,0.0,0.0,0.0,0.0,-2.4052,-2.4633,-2.4749,-2.4112,-2.3996,-2.4059,-2.4248,-2.435,-2.432,-2.4129,-2.4103,-2.4108,-2.4096,-2.4101,0.0,0.0,0.0,0.0,0.0,0.0,0.0,0.0,0.0,0.0,0.0,0.0,0.0,0.0,0.0,0.0,0.0,0.0,0.0,0.0,0.0,0.0,0.0,0.0,0.0,0.0,0.0,0.0,0.0,-0.9443,-0.9558,-0.9927,-0.9996,-1.0274,0.0,0.0,0.0,0.0,0.0,0.0,0.0,0.0,0.0,-1.5652,-1.6184,-1.6506,-1.6683,-1.6821,-1.6908,-1.6908,-1.6908,-1.6813,-1.6683,-1.6551,-1.661,-1.6862,-1.6988,-1.7448,-1.808,-1.8211,-1.8615,-1.9203,0.0,0.0,0.0,0.0,-2.0359,-2.042,-2.0527,-2.0801,-2.1051,-2.0931,0.0,0.0,0.0,0.0,0.0,0.0,0.0,-2.2118,-2.2351,-2.2837,-2.3345,-2.3841,-2.4249,-2.4737,-2.5323,-2.5352,-2.4937,-2.3574,-2.3195,-2.3093,-2.3051,-2.2817,0.0,0.0,0.0,-2.4153,-2.4821,-2.5148,-2.5154,-2.4816,-2.438,-2.411,-2.4098,-2.4094,-2.4116,-2.412,-2.4695,-2.4869,-2.4401,-2.4514,-2.4666,0.0,0.0,0.0,0.0,0.0,0.0,0.0,0.0,0.0,0.0,0.0,0.0,0.0,0.0,0.0,0.0,0.0,0.0,0.0,0.0,0.0,0.0,0.0,0.0,0.0,0.0,0.0,0.0,-0.9218,-0.9547,-1.0007,-1.006,-1.039,0.0,0.0,0.0,0.0,0.0,0.0,-1.4926,-1.5505,-1.5937,-1.6155,-1.6689,-1.702,-1.702,-1.7208,-1.7326,-1.738,-1.738,-1.7348,-1.7203,-1.7122,-1.722,-1.7439,-1.7749,-1.8433,-1.9348,-1.9444,-1.9728,-2.0155,-2.0918,-2.1125,-2.097,-2.1061,-2.1161,-2.1198,-2.1345,-2.1723,-2.2105,-2.1927,-2.2041,-2.2135,-2.1768,0.0,0.0,0.0,0.0,-2.3021,-2.3386,-2.3846,-2.4317,-2.4742,-2.5337,-2.6024,-2.6588,-2.731,-2.7252,-2.5245,-2.4897,-2.4872,-2.4628,-2.4463,0.0,-2.4816,-2.4678,-2.4868,-2.5831,-2.5877,-2.58,-2.5582,-2.5047,-2.465,-2.4528,-2.4523,-2.4557,-2.4603,-2.5421,-2.5621,-2.5079,-2.4939,-2.4986,-2.5229,0.0,0.0,0.0,0.0,0.0,0.0,0.0,0.0,0.0,0.0,0.0,0.0,0.0,0.0,0.0,0.0,0.0,0.0,0.0,0.0,0.0,0.0,0.0,0.0,0.0,0.0,0.0,0.0,0.0,-0.9585,-0.9613,0.0,0.0,0.0,0.0,-1.3341,-1.3922,-1.4683,-1.5853,-1.6271,-1.6593,-1.6851,-1.7128,-1.7257,-1.7257,-1.7271,-1.7426,-1.7675,-1.7675,-1.7807,-1.8048,-1.772,-1.7751,-1.8087,-1.8483,-1.9253,-2.0232,-2.0307,-2.0763,-2.1469,-2.2168,-2.2686,-2.3049,-2.3049,-2.317,-2.337,-2.337,-2.369,-2.4097,-2.4261,-2.3957,-2.3486,-2.3489,-2.3153,0.0,0.0,-2.4007,-2.4604,-2.4765,-2.4952,-2.5199,-2.5407,-2.588,-2.6512,-2.7382,-2.8156,-2.8267,-2.6714,-2.6702,-2.6591,-2.5549,0.0,-2.5767,-2.5648,-2.5844,-2.6342,-2.7259,-2.738,-2.7103,-2.6401,-2.6311,-2.613,-2.5759,-2.5702,-2.5795,-2.5999,-2.6038,-2.61,-2.6214,-2.5845,-2.5713,-2.5862,-2.472,0.0,0.0,0.0,0.0,0.0,0.0,0.0,0.0,0.0,0.0,0.0,0.0,0.0,0.0,0.0,0.0,0.0,0.0,0.0,0.0,0.0,0.0,0.0,0.0,0.0,0.0,0.0,0.0,-0.9992,-1.0072,0.0,-1.1219,-1.1573,-1.227,-1.3604,-1.4372,-1.5214,-1.6283,-1.6636,-1.694,-1.7165,-1.7267,-1.738,-1.7581,-1.7581,-1.7667,-1.7947,-1.7947,-1.7994,-1.8079,-1.7957,-1.8072,-1.8373,-1.9004,-1.9748,-2.0583,-2.1557,-2.2088,-2.2382,-2.2935,-2.3258,-2.3386,-2.3386,-2.3547,-2.3777,-2.3897,-2.4126,-2.4443,-2.4797,-2.472,-2.4556,-2.4556,-2.446,-2.4359,-2.45,-2.5013,-2.5558,-2.5762,-2.5965,-2.6239,-2.6432,-2.6675,-2.7078,-2.7767,-2.8189,-2.8363,-2.7914,-2.7889,-2.761,-2.6603,-2.6657,-2.6812,-2.6847,-2.6926,-2.7116,-2.7464,-2.7485,-2.721,-2.6466,-2.6536,-2.639,-2.5863,-2.5905,-2.6029,-2.6091,-2.656,-2.6694,-2.6488,-2.6455,-2.6307,-2.6033,-2.5339,-2.4765,0.0,0.0,0.0,0.0,0.0,0.0,0.0,0.0,0.0,0.0,0.0,0.0,0.0,0.0,0.0,0.0,0.0,0.0,0.0,0.0,0.0,0.0,0.0,0.0,0.0,-0.9776,-1.0153,-1.0612,-1.0691,-1.0929,-1.1614,-1.1975,-1.2618,-1.3765,-1.4625,-1.5538,-1.6472,-1.6818,-1.7113,-1.7279,-1.738,-1.7527,-1.7675,-1.7768,-1.7955,-1.8234,-1.8319,-1.8365,-1.845,-1.855,-1.8697,-1.8897,-1.9654,-2.032,-2.0997,-2.2344,-2.3065,-2.3323,-2.3789,-2.3981,-2.3958,-2.4051,-2.4245,-2.453,-2.4773,-2.5055,-2.5336,-2.5615,-2.5662,-2.5565,-2.5565,-2.5452,-2.5351,-2.5599,-2.6062,-2.6553,-2.6874,-2.709,-2.7195,-2.727,-2.7362,-2.7521,-2.7997,-2.8333,-2.8554,-2.8515,-2.8395,-2.8078,-2.7309,-2.7289,-2.7403,-2.749,-2.749,-2.749,-2.749,-2.749,-2.732,-2.6824,-2.6955,-2.6902,-2.6521,-2.6654,-2.6799,-2.6831,-2.7349,-2.7561,-2.734,-2.7291,-2.716,-2.687,-2.6407,-2.5756,-2.4928,0.0,0.0,0.0,0.0,0.0,0.0,0.0,0.0,0.0,0.0,0.0,0.0,0.0,0.0,0.0,0.0,0.0,0.0,0.0,0.0,0.0,0.0,0.0,-1.0428,-1.0605,-1.0872,-1.1365,-1.1415,-1.1508,-1.1697,-1.2129,-1.2828,-1.3824,-1.4621,-1.5534,-1.6534,-1.6831,-1.7113,-1.7333,-1.7574,-1.7729,-1.7721,-1.7994,-1.828,-1.8527,-1.8743,-1.8966,-1.9234,-1.9487,-1.9587,-1.9633,-2.0391,-2.0961,-2.149,-2.2652,-2.3537,-2.4249,-2.4743,-2.4893,-2.4925,-2.5137,-2.5348,-2.5642,-2.6019,-2.6475,-2.6857,-2.6869,-2.6702,-2.6501,-2.6524,-2.6152,-2.5904,-2.6635,-2.7117,-2.7574,-2.8179,-2.8213,-2.8068,-2.795,-2.7853,-2.7862,-2.8075,-2.8562,-2.8866,-2.849,-2.8235,-2.795,-2.7561,-2.749,-2.749,-2.7536,-2.749,0.0,-2.7523,-2.7523,-2.7523,-2.7523,-2.7689,-2.7809,-2.7809,-2.8,-2.8164,-2.8287,-2.8476,-2.8651,-2.878,-2.8426,-2.8266,-2.8377,-2.7792,-2.709,-2.6246,0.0,0.0,0.0,0.0,0.0,0.0,0.0,0.0,0.0,0.0,0.0,0.0,0.0,0.0,0.0,0.0,0.0,0.0,0.0,0.0,0.0,-1.0653,-1.0963,-1.0861,-1.1071,-1.1329,-1.1577,-1.1608,-1.1769,-1.2161,-1.2475,-1.2951,-1.3574,-1.4358,-1.5159,-1.5967,-1.6447,-1.6965,-1.7574,-1.7675,-1.7869,-1.8295,-1.8512,-1.8735,-1.9012,-1.925,-1.9442,-1.9487,-1.9587,-1.9587,-1.9633,-2.051,-2.1168,-2.1704,-2.3038,-2.3927,-2.4454,-2.4775,-2.4861,-2.4844,-2.5051,-2.512,-2.5225,-2.5526,-2.5684,-2.591,-2.6434,-2.6537,-2.657,-2.6909,-2.6881,-2.6881,-2.7198,-2.7726,-2.8237,-2.8444,-2.8499,-2.8439,-2.8274,-2.7923,-2.7741,-2.8226,-2.8087,-2.8051,-2.8531,-2.8108,-2.7628,-2.7516,-2.749,-2.7616,-2.7901,-2.7828,-2.7802,-2.7974,-2.7961,-2.7947,-2.7947,-2.7967,-2.8,-2.8,-2.8151,-2.8268,-2.8287,-2.8573,-2.8748,-2.8812,-2.8505,-2.824,-2.7956,-2.7671,-2.7372,0.0,0.0,0.0,0.0,0.0,0.0,0.0,0.0,0.0,0.0,0.0,0.0,0.0,0.0,0.0,0.0,0.0,0.0,0.0,0.0,0.0,0.0,-1.1293,-1.1608,-1.1589,-1.1711,-1.1916,-1.2151,-1.2177,-1.2277,-1.2554,-1.271,-1.2958,-1.3298,-1.3962,-1.4682,-1.5493,-1.6109,-1.677,-1.7527,-1.7761,-1.8094,-1.8612,-1.8827,-1.9104,-1.9387,-1.9617,-1.9716,-1.9716,-1.9853,-1.9936,-2.0081,-2.0835,-2.1535,-2.2271,-2.3343,-2.4186,0.0,0.0,0.0,0.0,0.0,-2.5098,-2.5177,-2.5356,-2.5472,-2.5607,-2.6021,-2.6329,-2.6559,-2.6818,-2.7059,-2.7272,-2.7586,-2.807,-2.8536,-2.8684,-2.872,-2.8702,-2.8564,-2.8123,-2.7861,-2.8204,-2.8006,-2.7874,-2.8351,-2.804,0.0,-2.7769,-2.7782,-2.7815,-2.8066,-2.8007,-2.8027,-2.8139,-2.8125,-2.8112,-2.8112,-2.8164,-2.8183,-2.8183,-2.8365,0.0,0.0,0.0,-2.9067,-2.9131,-2.899,0.0,0.0,0.0,0.0,0.0,0.0,0.0,0.0,-2.8087,-2.8757,0.0,0.0,0.0,0.0,0.0,0.0,0.0,0.0,0.0,0.0,0.0,0.0,0.0,0.0,0.0,0.0,-1.1943,-1.2146,-1.2364,-1.2398,-1.2501,-1.278,-1.2786,-1.278,-1.2807,-1.2813,-1.2861,-1.305,-1.3576,-1.4196,-1.501,-1.5764,0.0,0.0,0.0,-1.8319,-1.8827,-1.9104,-1.9387,-1.9633,-1.9845,-1.9928,-1.9928,-2.0201,-2.0428,-2.0744,-2.1248,-2.1989,-2.2887,-2.3657,-2.4457,-2.5166,-2.4902,-2.49,-2.5044,-2.4915,-2.5058,-2.5263,-2.5263,0.0,0.0,-2.5601,-2.5922,-2.6352,-2.6467,-2.6823,-2.7273,-2.7788,-2.8195,-2.853,-2.8787,-2.8864,-2.8802,-2.8657,-2.8365,-2.8112,-2.8112,-2.8112,-2.8112,-2.8112,-2.8026,-2.8026,-2.8237,-2.8204,-2.8125,-2.8158,-2.8204,-2.825,-2.8177,-2.821,-2.821,-2.821,0.0,0.0,-2.8384,-2.867,-2.8812,-2.8812,-2.9194,-2.9446,-2.9571,-2.9602,-2.9602,-2.9602,-2.9602,-2.9568,-2.9526,-3.0071,-3.0294,-3.0256,-2.9628,-2.9914,0.0,0.0,0.0,0.0,0.0,0.0,0.0,0.0,0.0,0.0,0.0,0.0,0.0,0.0,0.0,-1.2035,-1.2361,-1.2568,-1.2406,-1.2379,-1.2501,-1.278,-1.2597,-1.2554,-1.2797,-1.2813,-1.2813,-1.2861,-1.3292,-1.3919,-1.4736,-1.5493,-1.6393,-1.7581,-1.7947,-1.8404,-1.9096,-1.9387,-1.9625,-1.9845,-2.011,0.0,-2.0201,-2.0292,-2.0428,-2.0744,-2.1579,-2.2369,-2.3139,-2.4413,-2.5002,-2.5103,-2.4834,-2.4726,-2.4644,-2.4262,-2.4255,-2.445,-2.445,-2.445,-2.4556,-2.4946,-2.513,-2.5371,-2.6249,-2.6701,0.0,-2.79,-2.8237,-2.8394,-2.8606,-2.8563,-2.8438,-2.8266,-2.8172,-2.8112,-2.8112,-2.8112,-2.8131,-2.8176,-2.832,-2.8522,-2.8724,-2.8446,-2.825,-2.8473,-2.8498,-2.8568,-2.8651,-2.8812,-2.8908,-2.8908,-2.894,-2.894,-2.894,-2.9004,-2.9035,-2.9035,-2.9257,-2.9446,-2.9571,-2.9602,-2.9602,-2.9602,-2.9602,-2.9824,-3.0283,-3.0395,-3.0984,-3.1918,-3.0973,-3.0936,0.0,0.0,0.0,0.0,0.0,0.0,0.0,0.0,0.0,0.0,0.0,-1.1879,-1.1958,0.0,-1.258,-1.2578,-1.2813,-1.2881,-1.265,-1.236,-1.2281,-1.2549,-1.2484,-1.2506,-1.2786,-1.2813,-1.2813,-1.2813,-1.3104,-1.3582,-1.425,-1.5105,-1.615,-1.7333,-1.7986,-1.8643,-1.9387,-1.9617,-1.9891,-2.011,-2.0246,-2.0292,-2.0292,-2.0292,-2.0564,-2.1069,-2.1802,-2.2755,-2.391,-2.5018,-2.5422,-2.5205,-2.4791,-2.4475,-2.4249,-2.4098,-2.4116,-2.42,-2.42,-2.42,-2.4235,-2.4476,-2.4717,-2.5015,-2.5647,-2.6186,-2.6714,-2.7454,-2.787,-2.8176,-2.8262,-2.8456,-2.8609,-2.841,-2.8406,-2.8471,-2.8587,-2.8541,-2.8546,-2.8643,-2.8766,-2.8876,-2.8999,-2.8867,-2.8752,-2.8835,-2.8871,-2.8876,-2.894,-2.9035,-2.9099,-2.9099,-2.9099,-2.9099,-2.9099,-2.9194,-2.9289,-2.9352,-2.9446,-2.954,-2.9602,-2.9602,-2.9602,-2.9602,-2.9602,-2.9912,-3.0498,-3.0853,-3.1485,-3.2412,-3.2179,-3.2263,0.0,0.0,0.0,0.0,0.0,0.0,0.0,-1.2137,-1.2523,-1.2227,-1.2369,-1.2553,-1.2789,-1.2899,-1.3019,-1.3235,-1.3215,-1.3095,-1.289,-1.2428,-1.2175,-1.2431,-1.2391,-1.2452,-1.2786,-1.2813,-1.2813,-1.2813,-1.3007,-1.3335,-1.3854,-1.4813,-1.5859,-1.6943,-1.7932,-1.8781,-1.9587,-1.9799,-2.0019,-2.0292,-2.0292,-2.0292,-2.0292,-2.0292,-2.0654,-2.1338,-2.2104,-2.3274,-2.4672,-2.548,-2.5594,-2.5279,-2.4842,-2.4377,-2.397,-2.4152,-2.42,-2.42,-2.42,-2.42,-2.42,-2.42,-2.4501,-2.4872,-2.5113,-2.57,-2.6391,-2.7026,-2.7606,-2.8012,-2.82,-2.8567,-2.8852,-2.8741,-2.878,-2.8908,-2.9067,-2.9026,-2.898,-2.9099,-2.9145,-2.9162,-2.9176,-2.9281,-2.9281,-2.9145,-2.9131,-2.9162,-2.9162,-2.9194,-2.9194,-2.9194,-2.9194,-2.9194,-2.9194,-2.9352,-2.9477,-2.9571,-2.9602,-2.9602,-2.9602,-2.9602,-2.9602,-2.9602,-2.9602,-2.9912,-3.0498,-3.105,-3.1682,-3.2412,-3.2918,-3.3178,-1.64,-1.5245,-1.3999,-1.3415,-1.2828,-1.2354,0.0,-1.2447,-1.2645,-1.2765,-1.3006,-1.3223,-1.3361,-1.3597,-1.3798,-1.3815,-1.3625,-1.3368,-1.3175,-1.2675,-1.2467,-1.27,-1.2408,-1.2316,-1.277,-1.2813,-1.2813,-1.2813,-1.3007,-1.3335,-1.3854,-1.4669,-1.5717,-1.6943,-1.7753,-1.8596,-1.9587,-1.9799,-2.0019,-2.0292,-2.0292,-2.0292,-2.0292,-2.0292,-2.0555,-2.1132,-2.2877,-2.4165,-2.5055,-2.5591,-2.5458,-2.4955,-2.4897,-2.4588,-2.4164,-2.42,-2.42,-2.42,-2.42,-2.42,-2.42,-2.42,-2.4344,-2.4616,-2.5057,-2.5627,-2.631,-2.7361,-2.7803,-2.8148,-2.8817,-2.8903,-2.8853,-2.9017,-2.9067,-2.9067,-2.9099,-2.9099,-2.9113,-2.9245,-2.9331,-2.9397,-2.953,-2.9565,-2.946,-2.9131,-2.9257,-2.9383,-2.9383,-2.9477,-2.954,-2.954,-2.954,-2.954,-2.954,-2.954,-2.9571,-2.9602,-2.9602,-2.9602,-2.9602,-2.9602,-2.9602,-2.9602,-2.9602,-2.9912,-3.0498,-3.0568,-3.1246,-3.2412,-3.2483,-3.2806,-1.5698,-1.4775,-1.3896,-1.3409,-1.3105,-1.2848,-1.262,-1.2809,-1.3058,-1.3224,-1.3272,-1.3313,-1.3408,-1.3585,-1.3601,-1.3475,-1.3257,-1.2992,-1.2751,-1.231,-1.2081,-1.237,-1.2323,-1.251,-1.3151,-1.3201,-1.3201,-1.3201,-1.3298,-1.3491,-1.3871,-1.4675,-1.5527,-1.652,-1.7645,-1.8635,-1.9342,-1.9882,-2.0201,-2.0292,-2.0292,-2.0292,-2.0292,-2.0473,-2.0926,-2.1714,-2.328,-2.424,-2.4734,-2.5021,-2.5047,-2.4889,-2.4602,-2.4372,-2.42,-2.42,-2.42,-2.42,-2.42,-2.42,-2.4236,-2.4345,-2.4418,-2.4573,-2.5013,-2.5469,-2.597,-2.6712,-2.7382,-2.7998,-2.8485,-2.8801,-2.9022,-2.9226,-2.9243,-2.9261,-2.9383,-2.9383,-2.9397,-2.9457,-2.9505,-2.9523,-2.9582,-2.9599,-2.954,-2.9415,-2.9446,-2.9509,-2.9509,-2.9571,-2.9602,-2.9602,-2.9602,-2.9602,-2.9602,-2.9602,-2.9602,-2.9602,-2.9602,-2.9602,-2.9602,-2.9602,-2.9602,-2.9602,-2.9602,-2.9912,-3.0498,-3.0498,-3.1143,-3.2412,-3.2412,-3.2736,-1.5002,-1.4369,-1.3826,-1.3409,-1.3177,-1.3042,-1.2844,-1.3033,-1.3275,-1.3349,-1.3367,-1.3357,-1.3298,-1.3328,-1.331,-1.3055,-1.2837,-1.2612,-1.2422,-1.2025,-1.1871,-1.2148,-1.2376,-1.2733,-1.3451,-1.3491,-1.3491,-1.3491,-1.3588,-1.369,-1.3883,-1.464,-1.5439,-1.619,-1.7498,-1.8527,-1.9188,-1.9874,-2.0246,-2.0428,-2.0428,-2.0428,-2.051,-2.072,-2.1269,-2.2149,-2.3266,-2.3939,-2.4231,-2.4478,-2.463,-2.4682,-2.4326,-2.42,-2.42,-2.4273,-2.4236,-2.42,-2.42,-2.4236,-2.4309,-2.4454,-2.4562,-2.4706,-2.5016,-2.5371,-2.5781,-2.6242,-2.7061,-2.7875,-2.8189,-2.872,-2.9226,-2.9338,-2.9387,-2.9418,-2.9571,-2.9602,-2.9602,-2.9602,-2.9602,-2.9602,-2.9602,-2.9602,-2.9602,-2.9602,-2.9602,-2.9602,-2.9602,-2.9602,-2.9602,-2.9602,-2.9602,-2.9602,-2.9602,-2.9602,-2.9602,-2.9602,-2.9602,-2.9602,-2.9602,-2.9602,-2.9602,-2.9602,-2.9602,-2.9827,-3.0231,-3.0231,-3.0923,-3.2145,-3.2179,-3.2635,-1.4517,-1.401,-1.3705,-1.3377,-1.2923,-1.2613,-1.2932,-1.3086,-1.3189,-1.3034,-1.3306,-1.348,-1.3081,-1.3057,-1.3043,-1.286,-1.2581,-1.2404,-1.2404,-1.2183,-1.2072,-1.2371,-1.2592,-1.2922,-1.3468,-1.3491,-1.3491,-1.3491,-1.3738,-1.3883,-1.3883,-1.4652,-1.5452,-1.619,-1.7171,-1.8203,-1.9188,-1.9654,-2.0155,-2.0699,-2.0699,-2.0781,-2.0979,-2.1074,-2.1457,-2.214,-2.2631,-2.3154,-2.3755,-2.4153,-2.4288,-2.4212,-2.42,-2.42,-2.4225,-2.4418,-2.4381,-2.42,-2.42,-2.4345,-2.4502,-2.449,-2.4766,-2.5076,-2.5123,-2.5477,-2.5968,-2.6289,-2.7061,-2.7875,-2.8189,-2.8849,-2.9383,-2.931,-2.9449,-2.9602,-2.9602,-2.9602,-2.9602,-2.9602,-2.9602,-2.9602,-2.9602,-2.9602,-2.9602,-2.9602,-2.9602,-2.9602,-2.9602,-2.9602,-2.9602,-2.9602,-2.9602,-2.9602,-2.9602,-2.9602,-2.9602,-2.9602,-2.9602,-2.9602,-2.9602,-2.9602,-2.9602,-2.9602,-2.9602,-2.9617,-2.9645,-2.9645,-3.0291,-3.1513,-3.165,-3.2401,-1.4538,-1.4121,-1.3765,-1.3645,-1.3236,-1.2903,-1.3134,-1.3117,-1.3078,-1.3058,-1.3071,-1.2956,-1.2609,-1.2301,-1.2054,-1.182,-1.1326,-1.096,-1.1048,-1.0744,-1.0641,-1.1038,-1.1589,-1.2204,-1.2737,-1.3346,-1.3829,-1.4016,-1.4112,-1.416,-1.416,-1.4598,-1.5064,-1.5669,-1.6803,-1.7831,-1.8665,-1.9509,-2.0155,-2.0699,-2.0826,-2.0909,-2.088,-2.1147,-2.1353,-2.1568,-2.2371,-2.2907,-2.3279,-2.3813,-2.4093,-2.42,-2.42,-2.4273,-2.4418,-2.4502,-2.4526,-2.461,-2.461,-2.4646,-2.4718,-2.4838,-2.4981,-2.5111,-2.5218,-2.5465,-2.5781,-2.6164,-2.6837,-2.7497,-2.796,-2.8565,-2.9107,-2.9324,-2.9477,-2.9602,-2.9602,-2.9602,-2.9602,-2.9602,-2.9602,-2.9602,-2.9602,-2.9602,-2.9602,-2.9602,-2.9602,-2.9602,-2.9602,-2.9602,-2.9602,-2.9602,-2.9602,-2.9602,-2.9602,-2.9602,-2.9602,-2.9602,-2.9602,-2.9602,-2.9602,-2.9682,-2.973,-2.973,-2.9851,-2.9927,-2.9927,-3.037,-3.1041,-3.1848,-3.2411,-3.3221,-1.4171,-1.3787,-1.3506,-1.3488,-1.3129,-1.2853,-1.3143,-1.3074,-1.2956,-1.2877,-1.2682,-1.2383,-1.1845,-1.1402,-1.1046,-1.082,-1.0352,-1.0047,-1.0092,-0.9875,-0.9797,-1.0057,-1.0745,-1.1424,-1.2063,-1.2856,-1.3588,-1.4112,-1.425,-1.4298,-1.4298,-1.4544,-1.4927,-1.5391,-1.648,-1.7466,-1.838,-1.9317,-2.0201,-2.0934,-2.1141,-2.1113,-2.0944,-2.1204,-2.1271,-2.1271,-2.2109,-2.2668,-2.3038,-2.3641,-2.4007,-2.42,-2.4273,-2.4381,-2.4538,-2.467,-2.4814,-2.4885,-2.4825,-2.4861,-2.4921,-2.5052,-2.5111,-2.5182,-2.5276,-2.543,-2.5641,-2.5921,-2.6496,-2.7095,-2.7484,-2.8195,-2.8867,-2.9222,-2.946,-2.9602,-2.9602,-2.9602,-2.9602,-2.9602,-2.9602,-2.9602,-2.9602,-2.9602,-2.9602,-2.9602,-2.9602,-2.9602,-2.9602,-2.9602,-2.9602,-2.9602,-2.9602,-2.9602,-2.9602,-2.9602,-2.9634,-2.9651,-2.9682,-2.9682,-2.9772,-2.9867,-2.9898,-2.9898,-3.0036,-3.008,-3.008,-3.0771,-3.1418,-3.208,-3.2973,-3.3856,-1.3406,-1.3104,-1.3002,-1.2929,-1.2676,-1.2514,-1.2893,-1.2995,-1.2878,-1.2452,-1.2224,-1.1803,-1.094,-1.049,-1.0148,-0.9813,-0.9699,-0.9594,-0.955,-0.9529,-0.9529,-0.9529,-1.0019,-1.0654,-1.1438,-1.2029,-1.2813,-1.3786,-1.4112,-1.4298,-1.4298,-1.4544,-1.4879,-1.5343,-1.6157,-1.7138,-1.8334,-1.9217,-2.0238,-2.1392,-2.1588,-2.144,-2.1062,-2.1151,-2.1161,-2.1212,-2.184,-2.244,-2.3038,-2.3677,-2.4043,-2.4236,-2.4418,-2.449,-2.4562,-2.4945,-2.5123,-2.5087,-2.4897,-2.4957,-2.5111,-2.5111,-2.5218,-2.5312,-2.5312,-2.5418,-2.5571,-2.5606,-2.6129,-2.6701,-2.6807,-2.7703,-2.8665,-2.9022,-2.9376,-2.9602,-2.9602,-2.9602,-2.9602,-2.9602,-2.9602,-2.9602,-2.9602,-2.9602,-2.9602,-2.9602,-2.9602,-2.9602,-2.9602,-2.9602,-2.9602,-2.9602,-2.9602,-2.9602,-2.9602,-2.9602,-2.9651,-2.9822,-2.9822,-2.9884,-3.008,-3.0111,-3.0111,-3.0111,-3.0111,-3.0111,-3.0111,-3.0845,-3.1556,-3.2245,-3.3296,-3.4298,-1.3487,-1.3277,-1.3132,-1.3121,-1.2948,-1.2772,-1.2788,-1.2901,-1.2845,-1.2307,-1.1847,-1.1353,-1.0707,-0.9983,-0.9421,-0.9217,-0.889,-0.8691,-0.8689,-0.8535,-0.8485,-0.868,-0.9171,-0.9764,-1.0364,-1.1438,-1.237,-1.3007,-1.3636,-1.407,-1.4298,-1.4346,-1.4538,-1.4879,-1.5818,-1.6803,-1.7878,-1.9712,-2.0916,-2.1392,-2.1297,-2.1053,-2.0659,-2.072,-2.0751,-2.0811,-2.1887,-2.259,-2.3075,-2.3824,-2.4236,-2.4418,-2.449,-2.467,-2.4945,-2.5052,-2.5147,-2.5241,-2.5182,-2.5218,-2.5241,-2.5241,-2.5276,-2.5312,-2.5312,-2.5347,-2.543,-2.5723,-2.601,-2.6408,-2.7149,-2.7941,-2.8683,-2.9031,-2.9366,-2.9602,-2.9602,-2.9602,-2.9602,-2.9602,-2.9602,-2.9602,-2.9602,-2.9602,-2.9602,-2.9602,-2.9602,-2.9602,-2.9602,-2.9602,-2.9602,-2.9602,-2.9602,-2.9634,-2.973,-2.9761,-2.9837,-3.0005,-3.0005,-3.005,-3.008,-3.0189,-3.0235,-3.0235,-3.0401,-3.0462,-3.0462,-3.1589,-3.2321,-3.2669,-3.4136,-3.5165,-1.3098,-1.2989,-1.2896,-1.2939,-1.2902,-1.2814,-1.2601,-1.2767,-1.2714,-1.1928,-1.1348,-1.0819,-1.0169,-0.9445,-0.8881,-0.874,-0.8481,-0.8262,-0.8241,-0.8088,-0.7988,-0.8038,-0.8432,-0.8874,-0.9422,-1.0453,-1.1482,-1.237,-1.3346,-1.4022,-1.4298,-1.4298,-1.4496,-1.4838,-1.5635,-1.6796,-1.8473,-1.996,-2.0926,-2.1245,-2.0957,-2.064,-2.0255,-2.0354,-2.0499,-2.0644,-2.1776,-2.2617,-2.3187,-2.4007,-2.4454,-2.4646,-2.4742,-2.4909,-2.5111,-2.5182,-2.5241,-2.5312,-2.5312,-2.5312,-2.5312,-2.5312,-2.5312,-2.5312,-2.5312,-2.5312,-2.5347,-2.5569,-2.5928,-2.6433,-2.7281,-2.8046,-2.8711,-2.9196,-2.9471,-2.9602,-2.9602,-2.9602,-2.9634,-2.9682,-2.9682,-2.9713,-2.9789,-2.9834,-2.9834,-2.9834,-2.9834,-2.9834,-2.9834,-2.9758,-2.9682,-2.9682,-2.9758,-2.9851,-2.9929,-2.9929,-2.9991,-3.0189,-3.0189,-3.0219,-3.0325,-3.0387,-3.0447,-3.0447,-3.0538,-3.0598,-3.0598,-3.1584,-3.2332,-3.2842,-3.4147,-3.5222,-1.255,-1.248,-1.2491,-1.2542,-1.2672,-1.2697,-1.2398,-1.257,-1.2504,-1.145,-1.0773,-1.0209,-0.956,-0.8955,-0.8505,-0.8321,-0.829,-0.8171,-0.7997,-0.7939,-0.7842,-0.7593,-0.7743,-0.8084,-0.8577,-0.941,-1.0444,-1.1731,-1.305,-1.3877,-1.425,-1.4298,-1.4592,-1.5178,-1.5697,-1.7066,-1.9418,-2.0007,-2.0567,-2.1025,-2.0631,-2.0223,-1.9925,-2.0064,-2.0282,-2.0605,-2.1614,-2.2483,-2.3298,-2.4127,-2.461,-2.4825,-2.5016,-2.5111,-2.5147,-2.5276,-2.5312,-2.5312,-2.5312,-2.5312,-2.5312,-2.5312,-2.5312,-2.5312,-2.5312,-2.5312,-2.5335,-2.5415,-2.5928,-2.6658,-2.74,-2.8039,-2.868,-2.9424,-2.9551,-2.9535,-2.9651,-2.9665,-2.9696,-2.9822,-2.9853,-2.9898,-3.008,-3.008,-3.008,-3.008,-3.008,-3.008,-3.008,-2.996,-2.9853,-2.9853,-3.0005,-3.0111,-3.0142,-3.0142,-3.0189,-3.0312,-3.0357,-3.0417,-3.0598,-3.0598,-3.0598,-3.0598,-3.0598,-3.0598,-3.0598,-3.1237,-3.1955,-3.2727,-3.3767,-3.4866,-1.2317,-1.2323,-1.2342,-1.2342,-1.2491,-1.2517,-1.2026,-1.2088,-1.1962,-1.0998,-1.0382,-0.987,-0.9359,-0.8755,-0.834,-0.8325,-0.8106,-0.7886,-0.7704,-0.7646,-0.7593,-0.7291,-0.7288,-0.7484,-0.7779,-0.8718,-0.9805,-1.093,-1.2214,-1.3298,-1.3931,-1.416,-1.4729,-1.5642,-1.6455,-1.7538,-1.9003,-1.9618,-2.0121,-2.0613,-2.0218,-1.9957,-1.9916,-1.9737,-1.9938,-2.042,-2.1433,0.0,-2.2889,-2.3861,-2.4454,-2.4825,-2.5016,-2.5182,-2.5276,-2.5276,-2.5312,-2.5312,-2.5312,-2.5312,-2.5312,-2.5312,-2.5312,-2.5312,-2.5312,-2.5312,-2.5406,-2.5896,-2.6443,-2.7041,-2.7749,-2.7996,-2.8367,-2.9362,-2.9315,-2.9199,-2.9875,-3.0019,-3.0019,-3.0036,-3.0036,-3.005,-3.008,-3.008,-3.008,-3.008,-3.008,-3.008,-3.008,-3.008,-3.0036,-3.0036,-3.008,-3.0127,-3.0266,-3.0266,-3.0357,-3.0538,-3.0538,-3.0568,-3.0598,-3.0598,-3.0598,-3.0598,-3.0598,-3.0598,-3.0598,-3.1374,-3.1892,-3.2177,-3.3826,-3.4955,-1.2051,-1.215,-1.223,-1.2418,-1.252,-1.244,-1.1869,-1.1755,-1.1512,-1.0488,-0.9832,-0.9327,-0.8963,-0.8468,-0.8054,-0.7847,-0.7776,-0.7624,-0.7355,-0.7344,-0.7291,-0.7042,-0.6992,-0.7039,-0.7188,-0.8031,-0.9019,-1.0096,-1.157,-1.2851,-1.3835,-1.4406,-1.4953,-1.5511,-1.6687,-1.7737,-1.8685,-1.9221,-1.971,-2.0168,-1.9797,-1.9604,-1.9595,-1.961,-1.9872,-2.0342,-2.1346,-2.2193,-2.2927,-2.3934,-2.4598,-2.4957,-2.5147,-2.5241,-2.5312,-2.5312,-2.5312,-2.5312,-2.5312,-2.5312,-2.5312,-2.5312,-2.5312,-2.5312,-2.5312,-2.5288,-2.5405,-2.5814,-2.6508,-2.7273,-2.8093,-2.8271,-2.8463,-2.9465,-2.961,-2.9635,-3.0023,-3.008,-3.0111,-3.0189,-3.0205,-3.0249,-3.0341,-3.0341,-3.0341,-3.0341,-3.0341,-3.0341,-3.0341,-3.0341,-3.031,-3.0219,-3.031,-3.0401,-3.0447,-3.0447,-3.0507,-3.0598,-3.0598,-3.0598,-3.0598,-3.0598,-3.0598,-3.0598,-3.0598,-3.0598,-3.0598,-3.1068,-3.1541,-3.2032,-3.308,-3.4001,-1.1746,-1.1915,-1.2161,-1.2452,-1.2528,-1.2389,-1.1735,-1.1443,-1.0998,-0.9898,-0.9249,-0.8788,-0.844,-0.8057,-0.7685,-0.7295,-0.7263,-0.7171,-0.687,-0.6906,-0.6839,-0.6592,-0.6542,-0.6542,-0.6642,-0.7341,-0.8283,-0.941,-1.1132,-1.2667,-1.3843,-1.4566,-1.5002,-1.5212,-1.6442,-1.7534,-1.8272,-1.8781,-1.9258,-1.9715,-1.9427,-1.9301,-1.9301,-1.9518,-1.9833,-2.0264,-2.1242,-2.2117,-2.2964,-2.397,-2.4622,-2.5052,-2.5241,-2.5312,-2.5312,-2.5312,-2.5312,-2.5312,-2.5312,-2.5312,-2.5312,-2.5347,-2.5347,-2.5347,-2.5288,-2.5322,-2.5438,-2.5695,-2.6552,-2.7482,-2.8164,-2.8279,-2.8424,-2.9312,-2.9852,-3.0203,-3.0203,-3.0203,-3.0249,-3.0357,-3.0357,-3.0417,-3.0568,-3.0598,-3.0598,-3.0598,-3.0598,-3.0598,-3.0598,-3.0598,-3.0538,-3.0387,-3.0507,-3.0598,-3.0598,-3.0598,-3.0598,-3.0598,-3.0598,-3.0598,-3.0598,-3.0598,-3.0598,-3.0598,-3.0598,-3.0598,-3.0642,-3.0821,-3.1249,-3.1945,-3.2481,-3.3256,-1.1311,-1.1679,-1.2035,-1.2202,-1.2344,-1.2198,-1.1435,-1.0994,-1.0412,-0.9165,-0.8668,-0.8294,-0.7788,-0.7357,-0.701,-0.6798,-0.6607,-0.6406,-0.605,-0.6069,-0.5989,-0.5737,-0.5687,-0.5787,-0.6042,-0.6789,-0.7832,-0.9118,-1.1346,-1.3003,-1.3848,-1.4182,-1.4568,-1.4907,-1.5595,-1.6501,-1.7582,-1.8181,-1.8696,-1.9096,-1.924,-1.9301,-1.9301,-1.9518,-1.9715,-1.9981,-2.0886,-2.1731,0.0,-2.3519,-2.4309,-2.4861,-2.5182,-2.5312,-2.5312,-2.5312,-2.5312,-2.5312,-2.5312,-2.5312,-2.5347,-2.55,-2.5571,-2.5523,-2.5345,-2.5486,-2.5707,-2.597,-2.6922,-2.7782,-2.7581,-2.7554,-2.7743,-2.8455,-2.9609,-3.0552,-3.0552,-3.0552,-3.0552,-3.0568,-3.0568,-3.0568,-3.0598,-3.0598,-3.0598,-3.0598,-3.0598,-3.0598,-3.0598,-3.0598,-3.0598,-3.0568,-3.0598,-3.0598,-3.0598,-3.0598,-3.0598,-3.0598,-3.0598,-3.0598,-3.0598,-3.0598,-3.0598,-3.0598,-3.0598,-3.0672,-3.0791,-3.1117,-3.1424,-3.1758,-3.2936,-3.3712,-1.05,-1.1006,-1.1582,-1.1835,-1.1931,-1.1817,-1.1132,-1.0486,-0.9753,-0.8708,-0.8058,-0.7555,-0.7092,-0.6654,-0.6307,-0.5975,-0.5956,-0.5858,-0.5575,-0.5682,-0.5737,-0.5636,-0.5586,-0.5636,-0.5737,-0.6337,-0.7542,-0.9555,-1.1296,-1.2554,-1.3182,-1.3774,-1.4185,-1.4425,-1.5338,-1.6192,-1.6996,-1.7938,-1.8603,-1.9002,-1.9183,-1.9341,-1.9478,-1.9676,-1.9912,-2.0186,-2.1002,-2.1693,0.0,-2.3298,-2.408,-2.4646,-2.504,-2.5241,-2.5312,-2.543,-2.55,-2.55,-2.5606,-2.5641,-2.5676,-2.5758,-2.5875,-2.5898,-2.5627,-2.5732,-2.5965,-2.6079,-2.6867,-2.757,-2.7199,-2.767,-2.8354,-2.8929,-2.9737,-3.0447,-3.0568,-3.0598,-3.0598,-3.0598,-3.0598,-3.0598,-3.0598,-3.0598,-3.0598,-3.0598,-3.0598,-3.0598,-3.0598,-3.0598,-3.0598,-3.0598,-3.0598,-3.0598,-3.0598,-3.0598,-3.0598,-3.0598,-3.0598,-3.0598,-3.0598,-3.0598,-3.0598,-3.0598,-3.0598,-3.0672,-3.0791,-3.1146,-3.1496,-3.1896,-3.2631,-3.324,-0.9836,-1.0432,-1.1102,-1.1243,-1.1319,-1.1173,-1.0484,-0.9792,-0.9002,-0.8052,-0.7358,-0.6773,-0.6312,-0.5907,-0.549,-0.5024,-0.514,-0.5183,-0.4903,-0.5016,-0.5135,-0.5135,-0.5186,-0.5286,-0.5336,-0.6184,-0.7618,-0.9644,-1.1,-1.2021,-1.2526,-1.3268,-1.3768,-1.395,-1.4877,-1.5782,-1.6583,-1.7651,-1.8434,-1.8922,-1.9192,-1.9429,-1.9606,-1.9833,-2.0069,-2.0342,-2.1002,-2.1617,0.0,-2.3075,-2.3861,-2.4526,-2.4945,-2.5218,-2.5418,-2.5535,-2.5641,-2.5723,-2.5828,-2.591,-2.591,-2.598,-2.6062,-2.6154,-2.5965,-2.6082,-2.6211,-2.6211,-2.6693,-2.7196,-2.7048,-2.779,-2.8721,-2.9258,-2.9865,-3.0357,-3.0568,-3.0598,-3.0598,-3.0598,-3.0598,-3.0598,-3.0598,-3.0598,-3.0598,-3.0598,-3.0598,-3.0598,-3.0598,-3.0598,-3.0598,-3.0598,-3.0598,-3.0598,-3.0598,-3.0598,-3.0598,-3.0598,-3.0598,-3.0598,-3.0598,-3.0598,-3.0612,-3.0672,-3.0672,-3.0777,-3.1014,-3.1336,-3.1754,-3.2191,-3.2645,-3.3102,-0.94,-1.005,-1.0737,-1.0401,-1.0405,-1.0295,-0.9417,-0.8864,-0.8189,-0.7057,-0.6477,-0.6018,-0.5405,-0.4993,-0.4558,-0.4001,-0.4079,-0.4142,-0.3862,-0.3941,-0.4033,-0.4033,-0.4236,-0.4537,-0.4784,-0.6481,-0.8065,-0.922,-1.0496,-1.1435,-1.1976,-1.2689,-1.3277,-1.3701,-1.4153,-1.5068,-1.6394,-1.7294,-1.8031,-1.87,-1.9112,-1.9429,-1.9606,-1.9833,-2.0069,-2.0303,-2.0741,-2.1359,0.0,-2.2777,-2.3593,-2.4526,-2.4945,-2.5288,-2.5606,-2.5606,-2.5723,-2.591,-2.591,-2.591,-2.5945,-2.6131,-2.6154,-2.6129,-2.6418,-2.6487,-2.6499,-2.6499,-2.6568,-2.6717,-2.7185,-2.7853,-2.8587,-2.9229,-2.9865,-3.0357,-3.0568,-3.0598,-3.0598,-3.0598,-3.0598,-3.0598,-3.0598,-3.0598,-3.0598,-3.0598,-3.0598,-3.0598,-3.0598,-3.0598,-3.0598,-3.0598,-3.0598,-3.0598,-3.0598,-3.0598,-3.0598,-3.0598,-3.0598,-3.0598,-3.0598,-3.0598,-3.0672,-3.0791,-3.0791,-3.1014,-3.148,-3.184,-3.2191,-3.2629,-3.3208,-3.371,-0.8528,-0.8943,-0.9388,-0.9138,-0.9011,-0.8793,-0.8284,-0.7583,-0.6829,-0.6311,-0.5665,-0.505,-0.446,-0.4037,-0.3685,-0.3299,-0.348,-0.3669,-0.3623,-0.3841,-0.3982,-0.3982,-0.4236,-0.4638,-0.5286,-0.6311,-0.7427,-0.8655,-1.0003,-1.1064,-1.1761,-1.2624,-1.3222,-1.3483,-1.423,-1.5026,-1.5899,-1.6976,-1.7838,-1.8482,-1.9033,-1.9469,-1.9833,-2.0059,-2.0294,-2.0527,-2.079,-2.1205,-2.1731,-2.2478,-2.3298,-2.4152,-2.4778,-2.5276,-2.5641,-2.591,-2.6062,-2.6131,-2.6258,-2.6327,-2.6324,-2.6371,-2.6114,-2.5699,-2.5415,-2.5862,-2.6445,-2.6169,-2.6261,-2.657,-2.7104,-2.7653,-2.8318,-2.9426,-2.994,-3.0249,-3.0552,-3.0598,-3.0598,-3.0598,-3.0598,-3.0598,-3.0598,-3.0598,-3.0598,-3.0598,-3.0598,-3.0598,-3.0598,-3.0598,-3.0598,-3.0598,-3.0598,-3.0598,-3.0598,-3.0598,-3.0598,-3.0598,-3.0598,-3.0598,-3.0598,-3.0598,-3.0672,-3.0791,-3.0791,-3.0999,-3.135,-3.1653,-3.2247,-3.3091,-3.3461,-3.3797,-0.7558,-0.7896,-0.8101,-0.7768,-0.7531,-0.7305,-0.6909,-0.6283,-0.5692,-0.5378,-0.4783,-0.408,-0.3381,-0.2992,-0.263,-0.2256,-0.2519,-0.282,-0.2889,-0.3168,-0.3479,-0.3682,-0.4034,-0.4537,-0.5236,-0.5987,-0.693,-0.8149,-0.954,-1.0642,-1.151,-1.2534,-1.3179,-1.3392,-1.411,-1.4866,-1.5692,-1.6632,-1.7578,-1.8514,-1.9063,-1.9539,-2.0059,-2.0225,-2.042,-2.0605,-2.0731,-2.1051,0.0,-2.2289,-2.3113,-2.397,-2.4695,-2.5276,-2.5758,-2.6097,-2.6099,-2.598,-2.6104,-2.6034,-2.5879,-2.6052,-2.5633,-2.5015,-2.4658,-2.5078,-2.5582,-2.5342,-2.5614,-2.6071,-2.648,-2.7008,-2.7759,-2.8864,-2.9263,-2.9472,-2.9798,-2.9886,-2.9886,-2.9886,-3.0089,-3.0219,-3.0219,-3.0422,-3.0598,-3.0598,-3.0598,-3.0598,-3.0598,-3.0598,-3.0598,-3.0598,-3.0598,-3.0598,-3.0598,-3.0598,-3.0598,-3.0598,-3.0598,-3.0612,-3.0672,-3.0672,-3.0791,-3.1073,-3.1073,-3.1278,-3.1724,-3.212,-3.2715,-3.345,-3.3668,-3.3899,0.0,-0.676,-0.6861,-0.63,-0.6036,-0.581,-0.5383,-0.5015,0.0,-0.4342,-0.3796,-0.3112,-0.2256,-0.1841,-0.1501,-0.1103,-0.1318,-0.1632,-0.1862,-0.2195,-0.2623,-0.313,-0.3682,-0.418,-0.4726,-0.5632,-0.6582,-0.766,-0.9018,-1.018,-1.1203,-1.2448,-1.3179,-1.3392,-1.387,-1.458,-1.5658,-1.6314,-1.7277,-1.8581,-1.9058,-1.962,-2.0226,-2.0294,-2.042,-2.0605,-2.0605,-2.0915,-2.154,-2.2138,-2.3001,-2.3959,-2.4731,-2.5382,-2.5945,-2.6094,-2.594,-2.5586,-2.5548,-2.5234,-2.489,-2.5229,-2.477,-2.4117,-2.4117,-2.4179,-2.4218,-2.4198,-2.4715,-2.5323,-2.5425,-2.6126,-2.701,-2.7778,-2.8082,-2.8297,-2.8624,-2.8709,-2.8709,-2.8709,-2.9145,-2.9537,-2.9537,-3.0089,-3.0539,-3.0539,-3.0583,-3.0598,-3.0598,-3.0598,-3.0598,-3.0598,-3.0598,-3.0598,-3.0598,-3.0598,-3.0598,-3.0598,-3.0598,-3.0672,-3.0791,-3.0791,-3.1014,-3.1495,-3.1508,-3.1823,-3.2398,-3.2985,-3.3424,-3.3684,-3.3822,-3.3975,-0.4111,0.0,-0.5123,-0.4722,-0.4397,-0.4132,0.0,-0.3705,-0.34,-0.3196,-0.2594,-0.1837,-0.1091,-0.0824,-0.0628,-0.0322,-0.0847,-0.1392,-0.1616,-0.2095,-0.2623,-0.313,-0.3479,-0.3959,-0.4646,-0.5328,-0.6208,-0.7322,-0.8609,-0.9853,-1.1025,-1.2363,-1.3179,-1.3392,-1.387,-1.4461,-1.5249,-1.5756,-1.6509,-1.7485,-1.8378,-1.9084,-1.9564,-2.0227,-2.0566,-2.0605,-2.0605,-2.0848,-2.132,-2.2111,-2.2979,-2.4009,-2.4874,-2.5606,-2.6117,-2.584,-2.5678,-2.5536,-2.5146,-2.5106,-2.5172,-2.4716,-2.4016,-2.3354,-2.3354,-2.3954,-2.4561,-2.4174,-2.4665,-2.5261,-2.5136,-2.5945,-2.695,-2.7603,-2.7995,-2.8297,-2.8624,-2.8709,-2.8709,-2.8709,-2.8825,-2.8898,-2.8898,-2.9421,-2.9856,-2.9856,-3.0263,-3.0598,-3.0598,-3.0598,-3.0598,-3.0598,-3.0598,-3.0598,-3.0598,-3.0598,-3.0598,-3.0598,-3.0598,-3.0672,-3.0791,-3.0791,-3.0969,-3.1336,-3.1697,-3.2051,-3.2398,-3.2893,-3.3266,-3.3555,-3.3771,-3.3975,-0.2483,-0.2931,-0.3524,-0.3246,-0.2921,-0.2671,-0.2666,-0.2382,-0.2102,-0.1939,-0.1352,-0.0632,0.0085,0.0265,0.0366,0.0654,-0.0048,-0.0876,-0.1488,-0.1957,-0.2372,-0.2775,-0.3153,-0.3618,-0.427,-0.4866,-0.5735,-0.6907,-0.8056,-0.9362,-1.0722,-1.2057,-1.2966,-1.3392,-1.3697,-1.4172,-1.4868,-1.533,-1.6024,-1.7008,-1.7899,-1.8591,-1.9173,-1.976,-2.0018,-2.0018,-2.0018,-2.0216,-2.0676,-2.1424,-2.2288,-2.3183,-2.4164,-2.4876,-2.5305,-2.5261,-2.5084,-2.482,-2.4544,-2.4394,-2.4286,-2.3871,-2.3457,-2.3108,-2.3108,-2.3534,-2.396,-2.369,-2.4001,-2.4461,-2.4545,-2.5226,-2.6056,-2.6706,-2.7116,-2.7438,-2.7755,-2.7837,-2.7837,-2.7837,-2.8042,-2.8245,-2.8245,-2.8768,-2.929,-2.9552,-2.9914,-3.0248,-3.0569,-3.0598,-3.0598,-3.0598,-3.0598,-3.0598,-3.0598,-3.0598,-3.0598,-3.0598,-3.0672,-3.0762,-3.0925,-3.1058,-3.1336,-3.1781,-3.2262,-3.2594,-3.2807,-3.3251,-3.3555,-3.3684,-3.3899,-3.4025,-0.1144,-0.1402,-0.1796,-0.1732,-0.1515,-0.1331,-0.1398,-0.1106,-0.0774,-0.0644,-0.0083,0.0552,0.1255,0.135,0.1304,0.1474,0.0583,-0.0446,-0.1462,-0.1815,-0.2063,-0.2361,-0.2766,-0.3267,-0.3839,-0.4379,-0.525,-0.6469,-0.7556,-0.8825,-1.0456,-1.1659,-1.2626,-1.3271,-1.3454,-1.3831,-1.4387,-1.4812,-1.56,-1.6686,-1.7406,-1.8119,-1.8872,-1.9185,-1.9287,-1.9287,-1.9323,0.0,-1.9959,-2.0715,-2.1479,-2.2252,-2.3292,-2.398,-2.4353,-2.4603,-2.4406,-2.3991,-2.3891,-2.3521,-2.3108,-2.3108,-2.3108,-2.3108,-2.3108,-2.3108,-2.3108,-2.3108,-2.3228,-2.3509,-2.3985,-2.445,-2.4977,-2.5729,-2.6084,-2.6394,-2.6727,-2.6806,-2.6806,-2.6806,-2.7215,-2.755,-2.755,-2.8115,-2.8753,-2.9377,-2.9537,-2.9856,-3.0525,-3.0598,-3.0598,-3.0598,-3.0598,-3.0598,-3.0598,-3.0598,-3.0598,-3.0598,-3.0702,-3.0866,-3.1087,-3.1394,-3.1809,-3.237,-3.2823,-3.315,-3.3309,-3.3694,-3.3899,-3.3899,-3.405,-3.4101,0.0139,0.064,0.0764,0.0149,0.0,0.0,0.0,0.0277,0.0563,0.077,0.1342,0.1944,0.2258,0.216,0.1911,0.1474,0.0246,-0.0906,-0.1515,-0.1644,-0.1824,-0.2266,-0.2566,-0.2995,-0.3647,-0.4173,-0.4993,-0.6337,-0.7319,-0.8554,-1.0199,-1.1366,-1.2229,-1.2705,-1.3061,-1.335,-1.3495,-1.4061,-1.4781,-1.563,-1.6816,-1.7695,-1.8261,-1.8976,-1.9287,-1.9323,0.0,-1.968,-1.9959,-2.0878,-2.1699,-2.2423,-2.3358,-2.4046,-2.4511,-2.4242,-2.4067,-2.3929,-2.3409,-2.3183,-2.3108,-2.3108,-2.3108,-2.3108,-2.3108,-2.3108,-2.3108,-2.3108,-2.3228,-2.3509,-2.3985,-2.445,-2.4977,-2.5729,-2.6084,-2.6394,-2.6727,-2.6806,-2.6806,-2.6806,-2.6852,-2.6924,-2.6924,-2.7461,-2.81,-2.8724,-2.9276,-2.9856,-3.0525,-3.0598,-3.0598,-3.0598,-3.0598,-3.0598,-3.0598,-3.0598,-3.0598,-3.0598,-3.0612,-3.0762,-3.1087,-3.1511,-3.1912,-3.2219,-3.2629,-3.2996,-3.3309,-3.3694,-3.3899,-3.3899,-3.405,-3.4101,0.1025,0.1696,0.2059,0.1911,0.1595,0.1297,0.1235,0.153,0.192,0.2178,0.2609,0.296,0.3216,0.2788,0.2042,0.0832,-0.005,-0.0805,-0.1495,-0.1679,-0.1907,-0.2274,-0.261,-0.3036,-0.3658,-0.4072,-0.4793,-0.5947,-0.6923,-0.8181,-0.9756,-1.0925,-1.1873,-1.2578,-1.285,-1.304,-1.312,-1.3598,-1.4249,-1.5154,-1.6225,-1.705,-1.764,-1.8296,-1.8664,-1.8769,0.0,-1.9059,-1.9371,-2.0083,-2.075,-2.1417,-2.2345,-2.301,-2.3422,-2.3473,-2.3496,-2.3459,-2.3195,-2.3108,-2.3108,-2.3108,-2.3108,-2.3108,-2.3108,-2.3108,-2.3108,-2.3108,-2.3168,-2.336,-2.3865,-2.4319,-2.4836,-2.5605,-2.6056,-2.6394,-2.6727,-2.6806,-2.6806,-2.6806,-2.6806,-2.6806,-2.6806,-2.7316,-2.7913,-2.8607,-2.9218,-2.9856,-3.0525,-3.0598,-3.0598,-3.0598,-3.0598,-3.0598,-3.0598,-3.0598,-3.0642,-3.0702,-3.0791,-3.0999,-3.1307,-3.1712,-3.2066,-3.2425,-3.2861,-3.3224,-3.3529,-3.3848,-3.4,-3.4,-3.4075,-3.4101,0.1829,0.2474,0.2948,0.3332,0.2914,0.2463,0.2385,0.2741,0.312,0.3361,0.3617,0.378,0.384,0.3,0.1819,0.0248,-0.0299,-0.0744,-0.1466,-0.1749,-0.1975,-0.2231,-0.2651,-0.3121,-0.3628,-0.4008,-0.4663,-0.5678,-0.6642,-0.7808,-0.9354,-1.0541,-1.1544,-1.2368,-1.2612,-1.2828,-1.2979,-1.3351,-1.3992,-1.4832,-1.5842,-1.6629,-1.7235,-1.7794,-1.8144,-1.8303,-1.8371,-1.8573,-1.8841,-1.944,-1.9955,-2.0495,-2.1471,-2.2118,-2.2543,-2.3149,-2.3407,-2.3487,-2.3502,-2.3552,-2.3583,-2.3389,-2.3308,-2.3283,-2.3145,-2.3108,-2.3108,-2.3108,-2.3108,-2.3228,-2.376,-2.4187,-2.4652,-2.5425,-2.5921,-2.6299,-2.6659,-2.6712,-2.6738,-2.6779,-2.6806,-2.6806,-2.6806,-2.7316,-2.7913,-2.8607,-2.9218,-2.9798,-3.0292,-3.038,-3.0322,-3.0176,-3.0162,-3.0162,-3.0162,-3.0162,-3.0249,-3.0498,-3.0837,-3.1146,-3.1394,-3.1739,-3.2135,-3.2532,-3.3038,-3.3424,-3.3694,-3.3975,-3.4101,-3.4101,-3.4101,-3.4101,0.2621,0.3312,0.3793,0.4217,0.3742,0.328,0.3449,0.3815,0.4103,0.4116,0.4408,0.4429,0.3764,0.2465,0.1167,0.0143,-0.0431,-0.0957,-0.1434,-0.1693,-0.1905,-0.2181,-0.2639,-0.3099,-0.355,-0.3919,-0.4604,-0.5815,-0.6583,-0.7669,-0.9231,-1.0293,-1.1106,-1.1739,-1.2308,-1.2707,-1.2891,-1.3506,-1.4065,-1.4645,-1.5772,-1.6629,-1.7235,-1.7964,-1.8303,-1.8303,-1.864,-1.8774,-1.8875,-1.9572,-2.0085,-2.0495,-2.1368,-2.2137,-2.2885,-2.3791,-2.4367,-2.467,-2.469,-2.4936,-2.5077,-2.4217,-2.3941,-2.3841,-2.3271,-2.3108,-2.3108,-2.3108,-2.3108,-2.3228,-2.376,-2.4115,-2.4509,-2.5245,-2.5674,-2.6029,-2.6431,-2.651,-2.6578,-2.6779,-2.6806,-2.6806,-2.6806,-2.7316,-2.7913,-2.8607,-2.9218,-2.961,-2.9653,-2.9668,-2.9464,-2.8912,-2.884,-2.884,-2.884,-2.884,-2.9073,-2.9653,-3.0396,-3.091,-3.1102,-3.1524,-3.1951,-3.2425,-3.2985,-3.3424,-3.3694,-3.3975,-3.4101,-3.4101,-3.4101,-3.4101,0.2728,0.3314,0.3687,0.3949,0.3873,0.3816,0.4188,0.4582,0.4786,0.4717,0.4807,0.454,0.3373,0.2482,0.1489,0.019,-0.0429,-0.0949,-0.1453,-0.1814,-0.2073,-0.2183,-0.285,-0.334,-0.3517,-0.4091,-0.48,-0.5521,-0.6473,-0.7532,-0.8813,-0.9967,-1.0875,-1.1484,-1.2231,-1.2709,-1.29,-1.3492,-1.4137,-1.4788,-1.5816,-1.6629,-1.7235,-1.7954,-1.8405,-1.8607,-1.8741,-1.8875,-1.9008,-1.9506,-1.9922,-2.0323,-2.1537,-2.2347,-2.2971,-2.3872,-2.4261,-2.4393,-2.4975,-2.5107,-2.4967,-2.4594,-2.4506,-2.4469,-2.4224,-2.4148,-2.4148,-2.4148,-2.4148,-2.406,-2.3683,-2.3881,-2.4321,-2.4893,-2.5411,-2.5866,-2.6177,-2.6392,-2.651,-2.6604,-2.6712,-2.6806,-2.6806,-2.7636,-2.8405,-2.8665,-2.9552,-3.0074,-2.9639,-2.9595,-2.9377,-2.8767,-2.8709,-2.8709,-2.8709,-2.8709,-2.8956,-2.9552,-3.0003,-3.0441,-3.0896,-3.1336,-3.1752,-3.2135,-3.2699,-3.3182,-3.3581,-3.3848,-3.4025,-3.4101,-3.4101,-3.4101,0.2735,0.3298,0.3694,0.3956,0.4123,0.4336,0.4744,0.5001,0.51,0.5041,0.4743,0.4181,0.3012,0.2334,0.1471,0.0093,-0.0468,-0.0978,-0.1515,-0.1914,-0.2213,-0.2359,-0.3006,-0.3524,-0.3653,-0.4252,-0.4858,-0.5394,-0.6404,-0.7462,-0.8556,-0.9807,-1.0812,-1.1558,-1.2305,-1.2826,-1.3083,-1.3637,-1.4245,-1.501,-1.5956,-1.6698,-1.7304,-1.81,-1.8573,-1.8808,-1.8875,-1.8965,-1.9131,-1.9473,-1.9922,-2.056,-2.1749,-2.2475,-2.3002,-2.4155,-2.4526,-2.4583,-2.5431,-2.5567,-2.531,-2.5121,-2.5059,-2.5034,-2.4838,-2.4788,-2.4788,-2.4788,-2.4788,-2.4644,-2.4015,-2.4154,-2.4592,-2.5079,-2.5619,-2.6049,-2.6203,-2.6503,-2.6701,-2.6527,-2.6645,-2.6806,-2.6806,-2.7665,-2.8448,-2.868,-2.9595,-3.0118,-2.9653,-2.9421,-2.9,-2.82,-2.8113,-2.8113,-2.8113,-2.8113,-2.8347,-2.8957,-2.9332,-2.9915,-3.0851,-3.1248,-3.161,-3.2038,-3.2547,-3.3033,-3.3503,-3.3771,-3.3975,-3.4101,-3.4101,-3.4101,0.2749,0.3413,0.3975,0.4369,0.4581,0.4772,0.5132,0.511,0.501,0.501,0.4253,0.3361,0.2642,0.1881,0.0986,-0.0179,-0.0583,-0.0942,-0.1705,-0.1982,-0.226,-0.2652,-0.3109,-0.357,-0.395,-0.4319,-0.4784,-0.5431,-0.6371,-0.7437,-0.8623,-0.9836,-1.0962,-1.1966,-1.2599,-1.3083,-1.3492,-1.3884,-1.4489,-1.5196,-1.6149,-1.689,-1.7442,-1.8361,-1.8808,-1.8808,-1.9008,-1.9108,-1.9131,-1.9473,-2.0226,-2.1265,-2.1941,-2.245,-2.3028,-2.4734,-2.5396,-2.549,-2.6227,-2.6487,-2.6399,-2.5787,-2.5598,-2.5511,-2.4996,-2.4813,-2.4813,-2.4813,-2.4813,-2.4813,-2.4813,-2.5077,-2.5447,-2.5874,-2.6356,-2.6666,-2.6547,-2.6919,-2.7138,-2.6613,-2.6659,-2.6806,-2.6806,-2.7316,-2.7927,-2.8607,-2.9232,-2.9595,-2.9581,-2.9058,-2.8215,-2.6951,-2.6806,-2.6806,-2.6806,-2.6806,-2.7055,-2.7666,-2.8332,-2.9433,-3.1014,-3.1234,-3.1567,-3.2191,-3.2602,-3.3033,-3.3503,-3.3771,-3.3975,-3.4101,-3.4101,-3.4101,0.1924,0.2483,0.2983,0.3529,0.3841,0.4183,0.4837,0.5161,0.5235,0.5055,0.4467,0.3723,0.2675,0.1842,0.1009,0.0044,-0.0622,-0.1071,-0.1406,-0.1832,-0.2247,-0.2596,-0.2999,-0.3449,-0.3899,-0.4376,-0.4904,-0.5529,-0.6546,-0.7561,-0.8623,-0.9986,-1.1037,-1.1781,-1.2636,-1.3236,-1.3492,-1.3884,-1.4525,-1.5426,-1.6219,-1.695,-1.7638,-1.8428,-1.8875,-1.9008,-1.9075,-1.9108,-1.9131,-1.9551,-2.0248,-2.1063,-2.1612,-2.2123,-2.2653,-2.3797,-2.4525,-2.5048,-2.5669,-2.6147,-2.6461,-2.6298,-2.6235,-2.621,-2.6047,-2.6009,-2.6009,-2.6009,-2.6009,-2.6009,-2.6009,-2.6064,-2.6062,-2.5741,-2.6096,-2.6607,-2.682,-2.7087,-2.7239,-2.7108,-2.6909,-2.6806,-2.6806,-2.7679,-2.8463,-2.868,-2.9624,-2.9972,-2.9073,-2.8405,-2.7694,-2.6907,-2.6806,-2.6806,-2.6806,-2.6806,-2.7055,-2.7666,-2.8332,-2.9101,-3.0003,-3.0646,-3.1146,-3.1567,-3.2023,-3.2535,-3.3156,-3.3461,-3.3771,-3.4101,-3.4101,-3.4101,0.1464,0.1996,0.2514,0.318,0.3559,0.3939,0.4766,0.5191,0.5314,0.5005,0.4509,0.3723,0.2621,0.1886,0.1158,0.0258,-0.0304,-0.0784,-0.116,-0.1702,-0.219,-0.2661,-0.3131,-0.3647,-0.4163,-0.4582,-0.5124,-0.5822,-0.6791,-0.7748,-0.8775,-1.0132,-1.126,-1.204,-1.2863,-1.3492,-1.3855,-1.4137,-1.4713,-1.5497,-1.6324,-1.7044,-1.774,-1.8462,-1.8908,-1.9108,-1.9108,-1.9131,-1.9208,-1.9495,-2.0053,-2.0743,-2.121,-2.1757,-2.2431,-2.3311,-2.4121,-2.4863,-2.541,-2.5858,-2.6147,-2.6147,-2.6009,-2.5812,-2.5812,-2.5812,-2.5812,-2.5812,-2.5996,-2.6147,-2.6147,-2.6357,-2.6515,-2.6258,-2.667,-2.7171,-2.7434,-2.7745,-2.7897,-2.7452,-2.7256,-2.7084,-2.6849,-2.7636,-2.839,-2.8665,-2.9784,-3.0147,-2.8869,-2.8565,-2.8116,-2.7258,-2.7389,-2.7534,-2.7534,-2.7302,-2.7316,-2.7681,-2.8086,-2.8594,-2.9232,-3.0265,-3.0984,-3.1365,-3.1783,-3.2302,-3.2926,-3.3251,-3.3633,-3.4025,-3.4025,-3.405,0.1139,0.1729,0.2329,0.305,0.3546,0.4015,0.4798,0.5213,0.5315,0.4966,0.4372,0.3605,0.2524,0.197,0.1425,0.0546,0.0168,-0.021,-0.0922,-0.1523,-0.2151,-0.2837,-0.3457,-0.4036,-0.4659,-0.4929,-0.5395,-0.6261,-0.7099,-0.7978,-0.8998,-1.0395,-1.1595,-1.2599,-1.3229,-1.3819,-1.4425,-1.4533,-1.4927,-1.5541,-1.6429,-1.7148,-1.7706,-1.8462,-1.8908,-1.9108,-1.9108,-1.9175,-1.9274,-1.9318,-1.9714,-2.0399,-2.0743,-2.138,-2.2246,-2.3074,-2.3951,-2.4775,-2.5285,-2.5485,-2.5523,-2.5523,-2.5209,-2.4788,-2.4788,-2.4788,-2.4788,-2.4788,-2.5197,-2.5598,-2.5598,-2.616,-2.6782,-2.7235,-2.7689,-2.8088,-2.8239,-2.8703,-2.8826,-2.7865,-2.77,-2.7536,-2.7041,-2.7432,-2.8014,-2.8666,-2.9784,-3.006,-2.8781,-2.9145,-2.9044,-2.784,-2.8303,-2.8709,-2.8709,-2.8144,-2.7782,-2.7782,-2.784,-2.8158,-2.8767,-3.0003,-3.0925,-3.1437,-3.1783,-3.2219,-3.2749,-3.3091,-3.3477,-3.3873,-3.3899,-3.3975,0.0194,0.0637,0.1145,0.188,0.3072,0.4169,0.4713,0.513,0.5297,0.4978,0.4517,0.3864,0.2745,0.2128,0.1637,0.1148,0.0582,0.0,-0.041,-0.114,-0.2017,-0.2928,-0.3499,-0.4112,-0.4849,-0.5273,-0.578,-0.6486,-0.7411,-0.8399,-0.941,-1.0801,-1.1966,-1.2826,-1.3586,-1.4173,-1.4569,-1.4605,-1.4963,-1.5726,-1.6202,-1.6786,-1.7476,-1.8395,-1.8908,-1.9108,-1.9108,-1.9121,-1.9177,-1.9318,-1.9681,-2.0183,-2.0432,-2.1031,-2.1862,-2.2318,-2.31,-2.3991,-2.4242,-2.4619,-2.4983,-2.4983,-2.4876,-2.4788,-2.4788,-2.4788,-2.4788,-2.4788,-2.5197,-2.5598,-2.5598,-2.616,-2.6816,-2.7335,-2.7842,-2.8357,-2.8807,-2.9012,-2.9084,-2.9001,-2.8293,-2.7811,-2.8229,-2.8418,-2.8695,-2.9291,-2.9624,-2.9334,-2.8072,-2.8492,-2.8594,-2.7782,-2.8303,-2.8709,-2.8709,-2.8578,-2.8477,-2.8477,-2.8942,-2.9247,-2.9421,-2.9711,-3.0207,-3.0955,-3.1292,-3.1739,-3.2315,-3.2711,-3.3193,-3.3761,-3.3848,-3.3975,-0.0117,0.0322,0.0876,0.1849,0.3035,0.4078,0.4556,0.4907,0.5097,0.4951,0.4579,0.4002,0.3004,0.2438,0.2037,0.1759,0.1171,0.0567,0.004,-0.0919,-0.1947,-0.2865,-0.3722,-0.4501,-0.5237,-0.5667,-0.6251,-0.6984,-0.7791,-0.8665,-0.9685,-1.1068,-1.2128,-1.2791,-1.3635,-1.4132,-1.4202,-1.4417,-1.4783,-1.5375,-1.5929,-1.6784,-1.7862,-1.8506,-1.8908,-1.9108,-1.9108,-1.9098,-1.9121,-1.9208,-1.945,-1.9758,-2.0031,-2.0646,-2.1368,-2.1882,-2.2717,-2.3634,-2.3898,-2.4192,-2.4431,-2.4431,-2.4211,-2.3985,-2.3985,-2.3985,-2.3985,-2.3985,-2.4562,-2.5222,-2.5222,-2.6038,-2.693,-2.7302,-2.7842,-2.8449,-2.9071,-2.9397,-2.9541,-2.9418,-2.8973,-2.8623,-2.8709,-2.8927,-2.9247,-2.9537,-2.9595,-2.9247,-2.8303,-2.8739,-2.9,-2.8638,-2.9203,-2.961,-2.961,-2.9305,-2.9131,-2.9131,-2.9145,-2.9305,-2.9581,-2.9595,-2.9988,-3.0777,-3.1043,-3.1408,-3.1966,-3.241,-3.2926,-3.3503,-3.3694,-3.3899,-0.0314,0.0243,0.093,0.2019,0.2922,0.3649,0.4205,0.4575,0.4761,0.4761,0.4515,0.4088,0.3347,0.2863,0.2511,0.2275,0.1721,0.1054,0.0351,-0.0854,-0.1974,-0.2789,-0.3947,-0.4955,-0.5585,-0.6098,-0.6689,-0.7442,-0.8131,-0.8932,-0.9884,-1.1218,-1.222,-1.2763,-1.3604,-1.4014,-1.3883,-1.4263,-1.458,-1.49,-1.5693,-1.6745,-1.8041,-1.8418,-1.8775,-1.9108,-1.9108,-1.9108,-1.9108,-1.9108,-1.9175,-1.9351,-1.9704,-2.0259,-2.0924,-2.1577,-2.2457,-2.3341,-2.3686,-2.3822,-2.3853,-2.3853,-2.3496,-2.3108,-2.3108,-2.3108,-2.3108,-2.3108,-2.3923,-2.4788,-2.4788,-2.5869,-2.7011,-2.7201,-2.7743,-2.8384,-2.9075,-2.9651,-2.9924,-2.959,-2.9666,-2.9595,-2.9013,-2.9392,-2.9784,-2.9697,-2.9682,-2.9478,-2.8838,-2.9318,-2.9682,-2.9682,-3.0294,-3.0672,-3.0642,-3.0118,-2.9784,-2.9755,-2.929,-2.9247,-2.974,-2.9755,-3.0104,-3.0747,-3.0896,-3.1175,-3.161,-3.2092,-3.2633,-3.3214,-3.3513,-3.3797,-0.0942,-0.02,0.0617,0.1348,0.2,0.2624,0.3524,0.3974,0.4217,0.4217,0.4291,0.4245,0.3804,0.3335,0.2904,0.2511,0.1813,0.1027,0.0228,-0.1081,-0.2278,-0.3196,-0.4074,-0.4961,-0.5857,-0.6323,-0.6832,-0.7472,-0.8394,-0.9268,-1.0105,-1.1216,-1.2218,-1.3107,-1.3577,-1.3998,-1.4338,-1.4502,-1.4684,-1.4915,-1.5609,-1.6273,-1.6929,-1.7443,-1.8189,-1.9108,-1.9108,-1.9108,-1.9108,-1.9108,-1.9175,-1.9308,-1.9539,-2.0064,-2.07,-2.1262,-2.1917,-2.2591,-2.2929,-2.3099,-2.3221,-2.3221,-2.317,-2.3108,-2.3108,-2.3108,-2.3108,-2.3108,-2.3923,-2.4788,-2.4788,-2.5769,-2.6782,-2.6973,-2.7477,-2.8039,-2.8739,-2.9293,-2.9744,-2.9966,-3.0241,-3.0308,-2.9827,-3.0251,-3.0499,-3.0102,-3.0042,-2.9806,-2.9131,-2.9616,-3.0042,-3.0042,-3.0646,-3.0955,-3.0791,-3.0689,-3.0601,-3.0481,-3.0394,-3.0394,-3.0467,-3.0481,-3.0525,-3.0628,-3.0762,-3.0984,-3.1336,-3.1811,-3.2315,-3.2884,-3.3314,-3.3668,-0.1509,-0.0726,-0.0041,0.0543,0.1197,0.1909,0.2681,0.3112,0.3413,0.3526,0.3526,0.3526,0.3604,0.3142,0.2614,0.2228,0.1506,0.063,-0.037,-0.1538,-0.2687,-0.374,-0.4576,-0.5397,-0.6262,-0.6597,-0.7062,-0.7722,-0.8281,-0.9046,-1.003,-1.1045,-1.1902,-1.2628,-1.3304,-1.3727,-1.379,-1.4033,-1.4442,-1.5011,-1.5738,-1.6383,-1.6992,-1.7233,-1.7696,-1.8319,-1.8499,-1.8499,-1.8319,-1.8319,-1.8497,-1.8812,-1.9114,-1.963,-2.028,-2.1103,-2.1702,-2.218,-2.2714,-2.2987,-2.3108,-2.3108,-2.3108,-2.3108,-2.3108,-2.3108,-2.3108,-2.3108,-2.3923,-2.4788,-2.4788,-2.5769,-2.6714,-2.6816,-2.7255,-2.7723,-2.8006,-2.8785,-2.9605,-3.0249,-3.0552,-3.0674,-3.0587,-3.0793,-3.0764,-3.0202,-3.0099,-2.9996,-2.9715,-2.9922,-3.0246,-3.063,-3.0925,-3.1043,-3.0984,-3.0984,-3.0955,-3.0895,-3.0895,-3.0895,-3.0895,-3.0895,-3.0895,-3.0895,-3.0762,-3.0851,-3.119,-3.1553,-3.2048,-3.2695,-3.3171,-3.3581,-0.2015,-0.1363,-0.0809,-0.0288,0.0408,0.1127,0.1813,0.2225,0.2549,0.2741,0.2653,0.2604,0.2873,0.2563,0.2112,0.1687,0.0843,-0.0108,-0.1162,-0.2275,-0.3349,-0.4421,-0.5194,-0.5905,-0.6698,-0.6943,-0.7354,-0.804,-0.8367,-0.8966,-1.0014,-1.0859,-1.1624,-1.2263,-1.3044,-1.3439,-1.3424,-1.3748,-1.4282,-1.5007,-1.5644,-1.6263,-1.689,-1.7022,-1.7215,-1.7469,-1.7873,-1.7895,-1.7616,-1.7668,-1.7988,-1.8435,-1.8607,-1.9073,-1.9803,-2.0551,-2.1086,-2.1527,-2.2145,-2.2573,-2.2835,-2.2895,-2.2995,-2.3108,-2.3108,-2.3108,-2.3108,-2.3108,-2.3923,-2.4788,-2.4788,-2.5736,-2.6658,-2.6658,-2.7032,-2.7469,-2.7756,-2.861,-2.9529,-3.0357,-3.0672,-3.0881,-3.1102,-3.1161,-3.0984,-3.0538,-3.0464,-3.0464,-3.0464,-3.0464,-3.0657,-3.1146,-3.119,-3.119,-3.1161,-3.1161,-3.1146,-3.1117,-3.1117,-3.1117,-3.1117,-3.1117,-3.1117,-3.1117,-3.0851,-3.0881,-3.1161,-3.1394,-3.1851,-3.252,-3.2969,-3.3408,-0.2425,-0.2045,-0.169,-0.1024,-0.0394,0.0236,0.0826,0.1335,0.1724,0.1921,0.1811,0.1631,0.1438,0.155,0.1462,0.0843,-0.0178,-0.1236,-0.2102,-0.3378,-0.455,-0.5421,-0.5916,-0.6445,-0.7176,-0.7381,-0.7695,-0.8252,-0.882,-0.9486,-1.0223,-1.0814,-1.1547,-1.2457,-1.2844,-1.328,-1.3769,-1.4118,-1.4417,-1.4714,-1.5086,-1.5498,-1.5973,-1.6487,-1.6728,-1.6774,-1.7375,-1.7503,-1.7358,-1.7616,-1.7988,-1.8372,-1.8145,-1.851,-1.9145,-1.9282,-1.97,-2.0252,-2.0749,-2.1448,-2.2168,-2.2301,-2.2681,-2.3108,-2.3108,-2.3108,-2.3108,-2.3108,-2.3923,-2.4788,-2.4788,-2.5636,-2.6499,-2.6499,-2.6773,-2.7335,-2.8481,-2.9012,-2.9498,-3.019,-3.0568,-3.091,-3.1219,-3.1292,-3.1336,-3.1422,-3.1422,-3.1422,-3.1422,-3.1422,-3.1437,-3.1467,-3.1482,-3.1424,-3.1307,-3.1292,-3.1234,-3.1117,-3.1117,-3.1117,-3.1117,-3.1117,-3.1117,-3.1117,-3.1087,-3.1161,-3.1292,-3.1437,-3.1752,-3.2247,-3.2641,-3.3087,-0.3832,-0.3412,-0.2943,-0.2183,-0.1512,-0.0863,-0.0196,0.0353,0.0746,0.0706,0.077,0.0716,0.0333,0.0583,0.061,-0.0071,-0.1161,-0.2279,-0.3432,-0.4588,-0.5728,-0.675,-0.7236,-0.7664,-0.8088,-0.8176,-0.8314,-0.8598,-0.8831,-0.9258,-0.9925,-1.0574,-1.1309,-1.2163,-1.2854,-1.3489,-1.4109,-1.4237,-1.4437,-1.4715,-1.5029,-1.5459,-1.5902,-1.6327,-1.6722,-1.707,-1.7006,-1.6867,-1.6741,-1.6831,-1.7129,-1.7502,-1.7528,-1.795,-1.8579,-1.9033,-1.9531,-2.0041,-2.0607,-2.1153,-2.1596,-2.1725,-2.2159,-2.2581,-2.2581,-2.2832,-2.3108,-2.3108,-2.3923,-2.4788,-2.4788,-2.5636,-2.6521,-2.6624,-2.6807,-2.7268,-2.8254,-2.8849,-2.9418,-3.0326,-3.0762,-3.1102,-3.138,-3.1438,-3.1438,-3.1511,-3.1511,-3.1511,-3.1511,-3.1511,-3.1511,-3.1511,-3.1511,-3.1467,-3.1438,-3.1438,-3.1409,-3.1366,-3.1366,-3.1366,-3.1366,-3.1366,-3.1366,-3.1366,-3.1366,-3.1336,-3.1307,-3.1437,-3.1752,-3.2219,-3.252,-3.2888,-0.4838,-0.4455,-0.3946,-0.3205,-0.2546,-0.1858,-0.1201,-0.0702,-0.0353,-0.0432,-0.0268,-0.026,-0.0695,-0.0637,-0.0692,-0.1188,-0.2272,-0.3478,-0.4714,-0.5871,-0.6969,-0.8056,-0.8473,-0.8801,-0.9093,-0.9039,-0.9047,-0.9192,-0.9171,-0.9382,-0.9926,-1.0555,-1.1334,-1.2297,-1.3125,-1.3791,-1.4297,-1.4297,-1.4407,-1.4647,-1.4872,-1.5225,-1.5729,-1.6066,-1.6558,-1.712,-1.6736,-1.6534,-1.6413,-1.6413,-1.6643,-1.6996,-1.6999,-1.7385,-1.8006,-1.8397,-1.8855,-1.9383,-1.9993,-2.0517,-2.0968,-2.1162,-2.1707,-2.2309,-2.2309,-2.2669,-2.3108,-2.3108,-2.3923,-2.4788,-2.4788,-2.5636,-2.6521,-2.6692,-2.6794,-2.7134,-2.7993,-2.8656,-2.9401,-3.0387,-3.0866,-3.119,-3.1453,-3.1511,-3.1511,-3.1511,-3.1511,-3.1511,-3.1511,-3.1511,-3.1511,-3.1511,-3.1511,-3.1511,-3.1511,-3.1511,-3.1511,-3.1511,-3.1511,-3.1511,-3.1511,-3.1511,-3.1511,-3.1511,-3.1511,-3.1467,-3.138,-3.1452,-3.1682,-3.2066,-3.2287,-3.2617,0.0,0.0,0.0,-0.4094,-0.3438,-0.2789,-0.2191,-0.1847,-0.1606,-0.1413,-0.1323,-0.135,-0.1716,-0.2166,-0.2478,-0.2512,-0.3533,-0.4765,-0.5973,-0.72,-0.831,-0.9233,-0.9553,-0.9815,-1.0202,-0.9967,-0.9834,-1.0022,-0.9888,-0.997,-1.0276,-1.0807,-1.1716,-1.2958,-1.3649,-1.4079,-1.4297,-1.4297,-1.4348,-1.4499,-1.4499,-1.4795,-1.5381,-1.5729,-1.6222,-1.6774,-1.6651,-1.6495,-1.6413,-1.6413,-1.6632,-1.6955,-1.655,-1.6846,-1.7445,-1.7251,-1.7579,-1.8193,-1.8786,-1.9524,-2.0234,-2.0584,-2.1433,-2.2297,-2.2309,-2.2698,-2.3108,-2.3108,-2.3954,-2.482,-2.4858,-2.5695,-2.6568,-2.6692,-2.6714,-2.6952,-2.7809,-2.8573,-2.9369,-3.0387,-3.0866,-3.1161,-3.1453,-3.1511,-3.1511,-3.1511,-3.1511,-3.1511,-3.1511,-3.1511,-3.1511,-3.1511,-3.1511,-3.1511,-3.1511,-3.1511,-3.1511,-3.1511,-3.1511,-3.1511,-3.1511,-3.1511,-3.1511,-3.1511,-3.1511,-3.1511,-3.1511,-3.1511,-3.1597,-3.1799,-3.194,-3.2274,-0.6352,0.0,0.0,0.0,0.0,0.0,-0.3643,-0.3111,-0.2836,-0.3042,-0.2827,-0.2728,-0.3248,-0.3672,-0.4191,-0.5019,-0.5326,-0.5864,-0.702,-0.8314,-0.9488,-1.0496,-1.0891,-1.1217,-1.142,-1.1365,-1.1106,-1.0592,-1.0528,-1.0464,-1.0314,-1.1115,-1.2019,-1.2981,-1.3558,-1.392,-1.407,-1.4237,-1.4267,-1.413,-1.4249,-1.4449,-1.4765,-1.5196,-1.5799,-1.65,-1.6319,-1.6296,-1.6413,-1.6413,-1.6485,-1.655,-1.6425,-1.6647,-1.6988,-1.7037,-1.7496,-1.8166,-1.8679,-1.9175,-1.973,-2.0446,-2.1224,-2.1951,-2.2369,-2.2946,-2.3467,-2.3467,-2.4282,-2.5339,-2.6166,-2.6612,-2.6875,-2.6909,-2.7032,-2.7289,-2.7875,-2.8379,-2.9053,-3.016,-3.0642,-3.0999,-3.1424,-3.1511,-3.1511,-3.1511,-3.1511,-3.1511,-3.1511,-3.1511,-3.1511,-3.1511,-3.1511,-3.1511,-3.1511,-3.1511,-3.1511,-3.1511,-3.1511,-3.1511,-3.1511,-3.1511,-3.1511,-3.1511,-3.1511,-3.1511,-3.1511,-3.167,-3.1756,-3.1799,-3.194,-3.215,-0.7217,-0.7001,-0.6642,-0.6089,0.0,0.0,-0.4762,-0.4342,-0.4133,-0.4267,-0.4192,-0.4222,-0.4667,-0.5192,-0.5906,-0.6861,-0.7284,-0.7684,-0.8221,-0.929,-1.0319,-1.1223,-1.1706,-1.2048,-1.2288,-1.223,-1.1976,-1.1526,-1.1202,-1.0901,-1.0638,-1.131,-1.2058,-1.2767,-1.3307,-1.37,-1.392,-1.4019,-1.4019,-1.392,-1.3911,-1.4031,-1.43,-1.4765,-1.5362,-1.5994,-1.6058,-1.621,-1.6413,-1.6413,-1.6413,-1.6413,-1.6413,-1.6534,-1.6751,-1.6927,-1.7412,-1.8002,-1.8518,-1.8999,-1.9468,-2.0329,-2.1123,-2.1805,-2.2429,-2.3063,-2.3599,-2.3599,-2.4436,-2.5563,-2.6683,-2.699,-2.699,-2.699,-2.7079,-2.7302,-2.7809,-2.8151,-2.8688,-2.987,-3.0357,-3.0747,-3.1219,-3.1351,-3.1438,-3.1511,-3.1511,-3.1511,-3.1511,-3.1511,-3.1511,-3.1511,-3.1511,-3.1511,-3.1511,-3.1511,-3.1511,-3.1511,-3.1511,-3.1511,-3.1511,-3.1511,-3.1511,-3.1511,-3.1511,-3.1511,-3.1511,-3.1626,-3.167,-3.167,-3.1769,-3.1883,-0.8018,-0.7608,-0.7125,-0.6924,-0.6535,0.0,-0.5703,-0.5562,-0.548,-0.5311,-0.5526,-0.5812,-0.6069,-0.6742,-0.7548,-0.8335,-0.9218,-0.9746,-0.953,-1.0207,-1.0999,-1.1781,-1.2231,-1.2636,-1.301,-1.2834,-1.2657,-1.2586,-1.1803,-1.1258,-1.1111,-1.1373,-1.1809,-1.239,-1.2934,-1.3359,-1.3709,-1.3739,-1.3769,-1.3761,-1.3601,-1.367,-1.3941,-1.4419,-1.4883,-1.5352,-1.5855,-1.6181,-1.6374,-1.6374,-1.6413,-1.6413,-1.6413,-1.6477,-1.6627,-1.687,-1.7273,-1.7767,-1.8317,-1.8815,-1.9336,-2.0269,-2.1091,-2.1817,-2.2493,-2.3144,-2.3641,-2.3735,-2.4497,-2.5537,-2.666,-2.6955,-2.6968,-2.7032,-2.7045,-2.718,-2.7689,-2.7875,-2.832,-2.9435,-2.9962,-3.0403,-3.0851,-3.1102,-3.1292,-3.1409,-3.1438,-3.1467,-3.1467,-3.1511,-3.1511,-3.1511,-3.1511,-3.1511,-3.1511,-3.1511,-3.1511,-3.1511,-3.1511,-3.1511,-3.1511,-3.1511,-3.1511,-3.1511,-3.1511,-3.1511,-3.1511,-3.1511,-3.1511,-3.1511,-3.1511,-3.1597,-0.8795,-0.8589,-0.8269,-0.7918,-0.7773,0.0,-0.7108,-0.7001,-0.7,-0.708,-0.7247,-0.7491,-0.7894,-0.8207,-0.8735,-0.9802,-1.0269,-1.0574,-1.0734,-1.1446,-1.2194,-1.282,-1.3273,-1.3601,-1.384,-1.3824,-1.3594,-1.3184,-1.2133,-1.142,-1.1111,-1.1153,-1.1435,-1.1926,-1.239,-1.2828,-1.3164,-1.3428,-1.3571,-1.3571,-1.3511,-1.3541,-1.3601,-1.4091,-1.4517,-1.4961,-1.5527,-1.5884,-1.6104,-1.6306,-1.6413,-1.6413,-1.6413,-1.6477,-1.6609,-1.6655,-1.705,-1.7579,-1.7936,-1.8479,-1.925,-2.0551,-2.1309,-2.1921,-2.3067,-2.361,-2.3981,-2.4554,-2.4901,-2.5331,-2.6446,-2.6746,-2.6863,-2.7285,-2.7403,-2.7503,-2.7756,-2.7809,-2.8006,-2.8481,-2.931,-2.9993,-3.0372,-3.0687,-3.091,-3.094,-3.1176,-3.1351,-3.1351,-3.1438,-3.1511,-3.1511,-3.1511,-3.1511,-3.1511,-3.1511,-3.1511,-3.1511,-3.1511,-3.1511,-3.1511,-3.1511,-3.1511,-3.1511,-3.1511,-3.1511,-3.1511,-3.1511,-3.1511,-3.1511,-3.1511,-3.1511,-0.9888,-0.9619,-0.9244,-0.9057,-0.8837,0.0,0.0,-0.8238,-0.8272,-0.8209,-0.8562,-0.8904,-0.9155,-0.9627,-1.0212,-1.0876,-1.1433,-1.1891,-1.226,-1.2563,-1.2989,-1.3659,-1.4021,-1.4408,-1.4908,-1.4764,-1.434,-1.3646,-1.2804,-1.2014,-1.1382,-1.1162,-1.1117,-1.131,-1.1771,-1.2174,-1.2482,-1.2942,-1.3186,-1.3246,-1.3246,-1.3246,-1.3277,-1.3769,-1.4249,-1.4686,-1.5167,-1.5623,-1.6026,-1.6278,-1.6413,-1.6413,-1.6413,-1.6566,-1.678,-1.6722,-1.7088,-1.763,-1.7917,-1.8398,-1.9152,-2.0603,-2.1369,-2.1934,-2.3136,-2.37,-2.4037,-2.4671,-2.4931,-2.5188,-2.602,-2.6452,-2.6771,-2.704,-2.7327,-2.7556,-2.7756,-2.7809,-2.7888,-2.8151,-2.8643,-2.9202,-2.9716,-3.0068,-3.0357,-3.0538,-3.0687,-3.0866,-3.1029,-3.1117,-3.1205,-3.138,-3.1409,-3.1438,-3.1511,-3.1511,-3.1511,-3.1511,-3.1511,-3.1511,-3.1511,-3.1511,-3.1511,-3.1511,-3.1511,-3.1511,-3.1511,-3.1511,-3.1511,-3.1511,-3.1511,-3.1511,-1.1074,-1.0691,-1.0224,-1.0244,-0.9946,-0.9555,0.0,0.0,0.0,-0.9079,-0.9569,-1.0036,-1.0063,-1.0749,-1.1364,-1.1628,-1.2362,-1.3063,-1.3592,-1.359,-1.375,-1.4402,-1.4724,-1.5152,-1.5783,-1.5549,-1.495,-1.4071,-1.3456,-1.2684,-1.1746,-1.126,-1.0914,-1.0801,-1.1143,-1.1553,-1.1888,-1.2428,-1.2805,-1.2958,-1.2989,-1.2989,-1.3019,-1.3498,-1.3941,-1.438,-1.4807,-1.5332,-1.5921,-1.6249,-1.6413,-1.6413,-1.6413,-1.6653,-1.6995,-1.6911,-1.7291,-1.7827,-1.8059,-1.848,-1.9134,-2.0608,-2.1503,-2.2198,-2.3124,-2.3611,-2.3922,-2.4378,-2.4641,-2.4905,-2.5449,-2.6041,-2.6575,-2.668,-2.7105,-2.7523,-2.7723,-2.7756,-2.7789,-2.7947,-2.8118,-2.8384,-2.898,-2.9404,-2.9716,-3.0007,-3.0129,-3.0282,-3.0612,-3.0732,-3.0881,-3.1219,-3.1278,-3.1351,-3.1511,-3.1511,-3.1511,-3.1511,-3.1511,-3.1511,-3.1511,-3.1511,-3.1511,-3.1511,-3.1511,-3.1511,-3.1511,-3.1511,-3.1511,-3.1511,-3.1511,-3.1511,-1.2077,-1.1829,-1.1482,-1.1403,-1.1154,-1.0762,-1.0273,0.0,-1.0027,-0.988,0.0,-1.0569,-1.0697,0.0,0.0,-1.188,-1.245,-1.3146,-1.4167,-1.452,-1.479,-1.5057,-1.5594,-1.5973,-1.6052,-1.5867,-1.5337,-1.4425,-1.3839,-1.3083,-1.2009,-1.1336,-1.091,-1.0712,-1.0816,-1.1115,-1.1545,-1.2081,-1.2521,-1.2836,-1.2928,-1.2989,-1.3011,-1.3246,-1.3549,-1.392,-1.4382,-1.4914,-1.5536,-1.6136,-1.6405,-1.6413,-1.6413,-1.6653,-1.7036,-1.7191,-1.7633,-1.8162,-1.8293,-1.8765,-1.9431,-2.0564,-2.1956,-2.3225,-2.3365,-2.3522,-2.3641,-2.3705,-2.3879,-2.414,-2.4684,-2.5348,-2.6046,-2.6588,-2.7105,-2.749,-2.7523,-2.7523,-2.7523,-2.757,-2.7723,-2.7973,-2.8352,-2.8707,-2.8994,-2.918,-2.9481,-2.9808,-3.0129,-3.0447,-3.0717,-3.0999,-3.119,-3.1351,-3.1511,-3.1511,-3.1511,-3.1511,-3.1511,-3.1511,-3.1511,-3.1511,-3.1511,-3.1511,-3.1511,-3.1511,-3.1511,-3.1511,-3.1511,-3.1511,-3.1511,-3.1511,-1.3105,-1.2952,-1.2693,-1.2423,-1.2106,-1.164,-1.0815,-1.0659,-1.0581,-1.0398,0.0,0.0,0.0,0.0,0.0,0.0,-1.2774,-1.3429,-1.386,-1.4706,-1.5386,-1.5799,-1.6061,-1.6316,-1.6551,-1.6502,-1.612,-1.5286,-1.4446,-1.3515,-1.2346,-1.1471,-1.0739,-1.0147,-1.0167,-1.046,-1.0919,-1.1459,-1.1965,-1.2398,-1.2467,-1.249,-1.2482,-1.245,-1.2767,-1.3373,-1.3927,-1.4481,-1.5108,-1.5729,-1.6163,-1.6405,-1.6384,-1.6653,-1.7015,-1.7009,-1.7344,-1.7822,-1.8057,-1.8382,-1.8991,-2.062,-2.1832,-2.2706,-2.311,-2.336,-2.348,-2.348,-2.3611,-2.3888,-2.452,-2.5195,-2.5842,-2.6543,-2.7105,-2.749,-2.749,-2.749,-2.749,-2.749,-2.7556,-2.7656,-2.7809,-2.8151,-2.8444,-2.8592,-2.8849,-2.9149,-2.9495,-2.9884,-3.0312,-3.0717,-3.1029,-3.1278,-3.1467,-3.1511,-3.1511,-3.1511,-3.1511,-3.1511,-3.1511,-3.1511,-3.1511,-3.1511,-3.1511,-3.1511,-3.1511,-3.1511,-3.1511,-3.1511,-3.1511,-3.1511,-1.3941,-1.3808,-1.353,-1.3369,-1.2928,-1.2338,-1.1494,-1.1285,-1.1202,-1.0939,-1.1185,0.0,0.0,0.0,-1.2562,-1.2727,0.0,-1.377,-1.3902,-1.4784,-1.5588,-1.6043,-1.6245,-1.6482,-1.6691,-1.6706,-1.6393,-1.5747,-1.4788,-1.3765,-1.2712,-1.1645,-1.0701,-0.983,-0.9828,-1.0001,-1.0364,-1.0895,-1.1428,-1.1965,-1.1905,-1.192,-1.1943,-1.1718,-1.1953,-1.2584,-1.3148,-1.3793,-1.45,-1.508,-1.5706,-1.628,-1.6288,-1.6541,-1.6839,-1.6911,-1.7278,-1.7726,-1.7918,-1.824,-1.8862,-2.0385,-2.1403,-2.2134,-2.268,-2.3055,-2.333,-2.333,-2.3534,-2.3888,-2.4407,-2.5156,-2.5877,-2.6485,-2.7052,-2.7469,-2.749,-2.749,-2.749,-2.749,-2.749,-2.749,-2.749,-2.7736,-2.8,-2.8137,-2.8346,-2.8587,-2.8908,-2.9355,-2.987,-3.0417,-3.0762,-3.1102,-3.1409,-3.1438,-3.1467,-3.1511,-3.1511,-3.1511,-3.1511,-3.1511,-3.1511,-3.1511,-3.1511,-3.1511,-3.1511,-3.1511,-3.1511,-3.1511,-3.1511,-3.1511,-1.4497,-1.4191,-1.3871,-1.4263,-1.3658,-1.2855,-1.2377,-1.2108,-1.1876,-1.1626,-1.1685,-1.2001,-1.2725,-1.2996,-1.3252,-1.3769,-1.3971,0.0,0.0,-1.4985,-1.5283,-1.5511,-1.6146,-1.6508,-1.6342,-1.6219,-1.5934,-1.5434,-1.4598,-1.3792,-1.3123,-1.1945,-1.0906,-1.0124,-0.9966,-0.9933,-1.0021,-1.0555,-1.109,-1.1615,-1.142,-1.1413,-1.1584,-1.1276,-1.1208,-1.1385,-1.1924,-1.2668,-1.3577,-1.4204,-1.501,-1.5931,-1.6056,-1.6249,-1.6475,-1.7066,-1.7656,-1.8196,-1.8178,-1.872,-1.9424,-1.9737,-2.0787,-2.193,-2.2084,-2.2605,-2.3108,-2.3108,-2.3619,-2.4171,-2.4196,-2.5167,-2.6147,-2.6362,-2.6854,-2.7335,-2.7469,-2.749,-2.749,-2.749,-2.749,-2.749,-2.749,-2.749,-2.759,-2.7776,-2.8,-2.8243,-2.8554,-2.904,-2.9529,-3.0068,-3.0417,-3.0807,-3.1263,-3.1307,-3.1351,-3.1511,-3.1511,-3.1511,-3.1511,-3.1511,-3.1511,-3.1511,-3.1511,-3.1511,-3.1511,-3.1511,-3.1511,-3.1511,-3.1511,-3.1511,0.0,0.0,-1.4297,-1.4114,-1.3794,-1.334,-1.2586,-1.2521,-1.258,-1.2465,-1.2876,-1.3364,-1.3713,-1.4088,-1.4381,-1.4427,-1.4659,-1.4883,0.0,-1.5549,-1.6039,-1.6378,-1.6531,-1.6508,-1.6307,-1.5806,-1.5425,-1.5208,-1.4305,-1.3506,-1.2885,-1.1814,-1.0822,-0.9933,-0.9565,-0.9466,-0.9658,-1.0072,-1.0555,-1.1083,-1.0897,-1.0868,-1.0906,-1.0407,-1.0361,-1.0722,-1.1,-1.178,-1.29,-1.3544,-1.4411,-1.542,-1.6058,-1.6269,-1.6259,-1.6673,-1.6964,-1.7185,-1.7466,-1.7863,-1.8393,-1.9146,-2.0148,-2.116,-2.179,-2.2491,-2.3108,-2.3108,-2.3276,-2.3682,-2.4551,-2.5116,-2.5651,-2.6583,-2.6938,-2.7146,-2.7335,-2.7369,-2.7403,-2.7503,-2.749,-2.749,-2.749,-2.749,-2.7523,-2.759,-2.7901,-2.8145,-2.8243,-2.8812,-2.9338,-2.9713,-3.0144,-3.0583,-3.1058,-3.0905,-3.0795,-3.0823,-3.0462,-3.0238,-3.0238,-3.0238,-3.0238,-3.0238,-3.0642,-3.0851,-3.0823,-3.1286,-3.1511,-3.1511,-3.1511,-3.1511,-1.4404,-1.4433,0.0,-1.4193,-1.3959,-1.3633,-1.293,-1.2959,-1.313,-1.3124,-1.3687,-1.4252,-1.4687,-1.5094,-1.5402,-1.5462,-1.5596,-1.5727,0.0,-1.6228,-1.6652,-1.6957,-1.6682,-1.6368,-1.6061,-1.5382,-1.4904,-1.4751,-1.3829,-1.3054,-1.2576,-1.163,-1.0693,-0.9859,-0.946,-0.9304,-0.9468,-0.9701,-1.0072,-1.0516,-1.0329,-1.0281,-1.0319,-0.9764,-0.9699,-0.9987,-1.0213,-1.1005,-1.2159,-1.2867,-1.3871,-1.5021,-1.5701,-1.6019,-1.6142,-1.641,-1.6657,-1.688,-1.7195,-1.7518,-1.7879,-1.8475,-1.9362,-2.0353,-2.1272,-2.2105,-2.2797,-2.3015,-2.3246,-2.3653,-2.4728,-2.514,-2.5539,-2.6646,-2.6909,-2.6943,-2.7146,-2.7235,-2.7335,-2.7403,-2.7469,-2.749,-2.749,-2.749,-2.749,-2.749,-2.7769,-2.8,-2.8,-2.8476,-2.8958,-2.9275,-2.9699,-3.012,-3.0544,-3.052,-3.0417,-3.0193,-2.9831,-2.9606,-2.9606,-2.9606,-2.9606,-2.9606,-2.9968,-3.0283,-3.0507,-3.0913,-3.1271,-3.1511,-3.1511,-3.1511]}]]